[[{"header":{"parameterUnit":"m.s-1","parameterCategory":1,"la1":30.6,"la2":29.2853,"lo1":-89.7004,"lo2":-87.6739,"dy":0.0162,"dx":0.0183,"nx":112,"ny":82,"refTime":"2026-03-20T12:00:00:Z","depth":0,"parameterNumber":2,"parameterNumberName":"U-component_of_WINDS"},"data":[0.0,0.0,0.0,0.0,0.0,0.0,0.0,0.0,0.0,0.0,0.0,0.0,0.0,0.0,0.0,0.0,0.0,0.0,0.0,0.0,0.0,0.0,0.0,0.0,0.0,0.0,0.0,0.0,0.0,0.0,0.0,0.0,0.0,0.0,0.0,0.0,0.0,0.0,0.0,0.0,0.0,0.0,0.0,0.0,0.0,0.0,0.0,0.0,0.0,0.0,0.0,0.0,0.0,0.0,0.0,0.0,0.0,0.0,0.0,0.0,0.0,0.0,0.0,0.0,0.0,0.0,0.0,0.0,0.0,0.0,0.0,0.0,0.0,0.0,0.0,0.0,0.0,0.0,0.0,0.0,0.0,0.0,0.0,0.0,0.0,0.0,0.0,0.0,0.0,0.0,0.0,-0.8016,-0.851,-0.8804,-0.8804,-0.8804,-0.8287,-0.7031,0.0,0.0,0.0,0.0,0.0,0.0,0.0,0.0,0.0,0.0,0.0,0.0,0.0,0.0,0.0,0.0,0.0,0.0,0.0,0.0,0.0,0.0,0.0,0.0,0.0,0.0,0.0,0.0,0.0,0.0,0.0,0.0,0.0,0.0,0.0,0.0,0.0,0.0,0.0,0.0,0.0,0.0,0.0,0.0,0.0,0.0,0.0,0.0,0.0,0.0,0.0,0.0,0.0,0.0,0.0,0.0,0.0,0.0,0.0,0.0,0.0,0.0,0.0,0.0,0.0,0.0,0.0,0.0,0.0,0.0,0.0,0.0,0.0,0.0,0.0,0.0,0.0,0.0,0.0,0.0,0.0,0.0,0.0,0.0,0.0,0.0,0.0,0.0,0.0,0.0,0.0,0.0,0.0,0.0,0.0,0.0,0.0,0.0,0.0,0.0,0.0,0.0,0.0,0.0,-0.7495,-0.8557,-0.8751,-0.8804,-0.8804,-0.8804,-0.8075,-0.6433,0.0,0.0,0.0,0.0,0.0,0.0,0.0,0.0,0.0,0.0,0.0,0.0,0.0,0.0,0.0,0.0,0.0,0.0,0.0,0.0,0.0,0.0,0.0,0.0,0.0,0.0,0.0,0.0,0.0,0.0,0.0,0.0,0.0,0.0,0.0,0.0,0.0,0.0,0.0,0.0,0.0,0.0,0.0,0.0,0.0,0.0,0.0,0.0,0.0,0.0,0.0,0.0,0.0,0.0,0.0,0.0,0.0,0.0,0.0,0.0,0.0,0.0,0.0,0.0,0.0,0.0,0.0,0.0,0.0,0.0,0.0,0.0,0.0,0.0,0.0,0.0,0.0,0.0,0.0,0.0,0.0,0.0,0.0,0.0,0.0,0.0,0.0,0.0,0.0,0.0,0.0,0.0,0.0,0.0,0.0,0.0,0.0,0.0,0.0,0.0,0.0,0.0,0.0,-0.7281,-0.7655,-0.8697,-0.8804,-0.8804,-0.8804,-0.8427,-0.7656,-0.6288,-0.5753,0.0,0.0,0.0,0.0,0.0,0.0,0.0,0.0,0.0,0.0,0.0,0.0,0.0,0.0,0.0,0.0,0.0,0.0,0.0,0.0,0.0,0.0,0.0,0.0,0.0,0.0,0.0,0.0,0.0,0.0,0.0,0.0,0.0,0.0,0.0,0.0,0.0,0.0,0.0,0.0,0.0,0.0,0.0,0.0,0.0,0.0,0.0,0.0,0.0,0.0,0.0,0.0,0.0,0.0,0.0,0.0,0.0,0.0,0.0,0.0,0.0,0.0,0.0,0.0,0.0,0.0,0.0,0.0,0.0,0.0,0.0,0.0,0.0,0.0,0.0,0.0,0.0,0.0,0.0,0.0,0.0,0.0,0.0,0.0,0.0,0.0,0.0,0.0,0.0,0.0,0.0,0.0,0.0,0.0,0.0,0.0,0.0,0.0,0.0,0.0,0.0,0.0,-0.7756,-0.8043,-0.8738,-0.8804,-0.8752,-0.854,-0.7988,-0.7172,-0.599,-0.5195,0.0,0.0,0.0,0.0,0.0,0.0,0.0,0.0,0.0,0.0,0.0,0.0,0.0,0.0,0.0,0.0,0.0,0.0,0.0,0.0,0.0,0.0,0.0,0.0,0.0,0.0,0.0,0.0,0.0,0.0,0.0,0.0,0.0,0.0,0.0,0.0,0.0,0.0,0.0,0.0,0.0,0.0,0.0,0.0,0.0,0.0,0.0,0.0,0.0,0.0,0.0,0.0,0.0,0.0,0.0,0.0,0.0,0.0,0.0,0.0,0.0,0.0,0.0,0.0,0.0,0.0,0.0,0.0,0.0,0.0,0.0,0.0,0.0,0.0,0.0,0.0,0.0,0.0,0.0,0.0,0.0,0.0,0.0,0.0,0.0,0.0,0.0,0.0,0.0,0.0,0.0,0.0,0.0,0.0,0.0,0.0,0.0,0.0,0.0,0.0,0.0,0.0,-0.8036,-0.8738,-0.8798,-0.8804,-0.8533,-0.783,-0.7604,-0.6834,-0.53,-0.471,0.0,0.0,0.0,0.0,0.0,0.0,0.0,0.0,0.0,0.0,0.0,0.0,0.0,0.0,0.0,0.0,0.0,0.0,0.0,0.0,0.0,0.0,0.0,0.0,0.0,0.0,0.0,0.0,0.0,0.0,0.0,0.0,0.0,0.0,0.0,0.0,0.0,0.0,0.0,0.0,0.0,0.0,0.0,0.0,0.0,0.0,0.0,0.0,0.0,0.0,0.0,0.0,0.0,0.0,0.0,0.0,0.0,0.0,0.0,0.0,0.0,0.0,0.0,0.0,0.0,0.0,0.0,0.0,0.0,0.0,0.0,0.0,0.0,0.0,0.0,0.0,0.0,0.0,0.0,0.0,0.0,0.0,0.0,0.0,0.0,0.0,0.0,0.0,0.0,0.0,0.0,0.0,0.0,0.0,0.0,0.0,0.0,0.0,0.0,0.0,0.0,0.0,-0.7749,-0.8404,0.0,-0.8804,-0.848,-0.7777,-0.7259,-0.6411,-0.5162,0.0,0.0,0.0,0.0,0.0,0.0,0.0,0.0,0.0,0.0,0.0,0.0,0.0,0.0,0.0,0.0,0.0,0.0,0.0,0.0,0.0,0.0,0.0,0.0,0.0,0.0,0.0,0.0,0.0,0.0,0.0,0.0,0.0,0.0,0.0,0.0,0.0,0.0,0.0,0.0,0.0,0.0,0.0,0.0,0.0,0.0,0.0,0.0,0.0,0.0,0.0,0.0,0.0,0.0,0.0,0.0,0.0,0.0,0.0,0.0,0.0,0.0,0.0,0.0,0.0,0.0,0.0,0.0,0.0,0.0,0.0,0.0,0.0,0.0,0.0,0.0,0.0,0.0,0.0,0.0,0.0,0.0,0.0,0.0,0.0,0.0,0.0,0.0,0.0,0.0,0.0,0.0,0.0,0.0,0.0,0.0,0.0,0.0,0.0,0.0,0.0,0.0,-0.6974,-0.7715,-0.8363,0.0,-0.8804,-0.8427,-0.745,-0.6844,-0.6034,-0.4788,0.0,0.0,0.0,0.0,0.0,0.0,0.0,0.0,0.0,0.0,0.0,0.0,0.0,0.0,0.0,0.0,0.0,0.0,0.0,0.0,0.0,0.0,0.0,0.0,0.0,0.0,0.0,0.0,0.0,0.0,0.0,0.0,0.0,0.0,0.0,0.0,0.0,0.0,0.0,0.0,0.0,0.0,0.0,0.0,0.0,0.0,0.0,0.0,0.0,0.0,0.0,0.0,0.0,0.0,0.0,0.0,0.0,0.0,0.0,0.0,0.0,0.0,0.0,0.0,0.0,0.0,0.0,0.0,0.0,0.0,0.0,0.0,0.0,0.0,0.0,0.0,0.0,0.0,0.0,0.0,0.0,0.0,0.0,0.0,0.0,0.0,0.0,0.0,0.0,0.0,0.0,0.0,0.0,0.0,0.0,0.0,0.0,0.0,0.0,0.0,0.0,0.0,-0.6979,-0.807,-0.8804,-0.8804,-0.8804,-0.8209,-0.675,-0.6487,-0.5663,0.0,0.0,0.0,0.0,0.0,0.0,0.0,0.0,0.0,0.0,0.0,0.0,0.0,0.0,0.0,0.0,0.0,0.0,0.0,0.0,0.0,0.0,0.0,0.0,0.0,0.0,0.0,0.0,0.0,0.0,0.0,0.0,0.0,0.0,0.0,0.0,0.0,0.0,0.0,0.0,0.0,0.0,0.0,0.0,0.0,0.0,0.0,0.0,0.0,0.0,0.0,0.0,0.0,0.0,0.0,0.0,0.0,0.0,0.0,0.0,0.0,0.0,0.0,0.0,0.0,0.0,0.0,0.0,0.0,0.0,0.0,0.0,0.0,0.0,0.0,0.0,0.0,0.0,0.0,0.0,0.0,0.0,0.0,0.0,0.0,0.0,0.0,0.0,0.0,0.0,0.0,0.0,0.0,0.0,0.0,0.0,0.0,0.0,0.0,0.0,0.0,0.0,0.0,-0.6979,-0.807,-0.8804,-0.8804,-0.8804,-0.8209,-0.675,-0.6487,-0.5663,-0.3903,0.0,0.0,0.0,0.0,0.0,0.0,0.0,0.0,0.0,0.0,0.0,0.0,0.0,0.0,0.0,0.0,0.0,0.0,0.0,0.0,0.0,0.0,0.0,0.0,0.0,0.0,0.0,0.0,0.0,0.0,0.0,0.0,0.0,0.0,0.0,0.0,0.0,0.0,0.0,0.0,0.0,0.0,0.0,0.0,0.0,0.0,0.0,0.0,0.0,0.0,0.0,0.0,0.0,0.0,0.0,0.0,0.0,0.0,0.0,0.0,0.0,0.0,0.0,0.0,0.0,0.0,0.0,0.0,0.0,0.0,0.0,0.0,0.0,0.0,0.0,0.0,0.0,0.0,0.0,0.0,0.0,0.0,0.0,0.0,0.0,0.0,0.0,0.0,0.0,0.0,0.0,0.0,0.0,0.0,0.0,0.0,0.0,0.0,0.0,0.0,0.0,0.0,-0.7188,-0.8143,-0.8804,-0.8804,-0.8804,-0.8321,-0.7128,-0.6675,-0.5853,-0.4322,0.0,0.0,0.0,0.0,0.0,0.0,0.0,0.0,0.0,0.0,0.0,0.0,0.0,0.0,0.0,0.0,0.0,0.0,0.0,0.0,0.0,0.0,0.0,0.0,0.0,0.0,0.0,0.0,0.0,0.0,0.0,0.0,0.0,0.0,0.0,0.0,0.0,0.0,0.0,0.0,0.0,0.0,0.0,0.0,0.0,0.0,0.0,0.0,0.0,0.0,0.0,0.0,0.0,0.0,0.0,0.0,0.0,0.0,0.0,0.0,0.0,0.0,0.0,0.0,0.0,0.0,0.0,0.0,0.0,0.0,0.0,0.0,0.0,0.0,0.0,0.0,0.0,0.0,0.0,0.0,0.0,0.0,0.0,0.0,0.0,0.0,0.0,0.0,0.0,0.0,0.0,0.0,0.0,0.0,0.0,0.0,0.0,0.0,0.0,0.0,0.0,0.0,-0.7473,-0.825,-0.8804,-0.8804,-0.8804,-0.848,-0.7777,-0.6999,-0.6123,-0.4976,0.0,0.0,0.0,0.0,0.0,0.0,0.0,0.0,0.0,0.0,0.0,0.0,0.0,0.0,0.0,0.0,0.0,0.0,0.0,0.0,0.0,0.0,0.0,0.0,0.0,0.0,0.0,0.0,0.0,0.0,0.0,0.0,0.0,0.0,0.0,0.0,0.0,0.0,0.0,0.0,0.0,0.0,0.0,0.0,0.0,0.0,0.0,0.0,0.0,0.0,0.0,0.0,0.0,0.0,0.0,0.0,0.0,0.0,0.0,0.0,-0.6981,0.0,0.0,0.0,0.0,0.0,0.0,0.0,0.0,0.0,0.0,0.0,0.0,0.0,0.0,0.0,0.0,0.0,0.0,0.0,0.0,0.0,0.0,0.0,0.0,0.0,0.0,0.0,0.0,0.0,0.0,0.0,0.0,0.0,0.0,0.0,0.0,0.0,0.0,0.0,0.0,0.0,-0.7473,-0.825,-0.8804,-0.8804,-0.8804,-0.848,-0.7777,-0.6902,-0.6011,-0.4967,-0.3931,0.0,0.0,0.0,0.0,0.0,0.0,0.0,0.0,0.0,0.0,0.0,0.0,0.0,0.0,0.0,0.0,0.0,0.0,0.0,0.0,0.0,0.0,0.0,0.0,0.0,0.0,0.0,0.0,0.0,0.0,0.0,0.0,0.0,0.0,0.0,0.0,0.0,0.0,0.0,0.0,0.0,0.0,0.0,0.0,0.0,0.0,0.0,0.0,0.0,0.0,0.0,0.0,0.0,0.0,0.0,0.0,0.0,0.0,0.0,0.0,-0.7582,0.0,0.0,0.0,0.0,0.0,0.0,0.0,0.0,0.0,0.0,0.0,0.0,0.0,0.0,0.0,0.0,0.0,0.0,0.0,0.0,0.0,0.0,0.0,0.0,0.0,0.0,0.0,0.0,0.0,0.0,0.0,0.0,0.0,0.0,0.0,0.0,0.0,0.0,0.0,0.0,-0.7635,-0.8343,-0.8804,-0.8804,-0.8804,-0.8646,-0.8268,-0.7172,-0.6267,-0.5683,-0.4317,0.0,0.0,0.0,0.0,0.0,0.0,0.0,0.0,0.0,0.0,0.0,0.0,0.0,0.0,0.0,0.0,0.0,0.0,0.0,0.0,0.0,0.0,0.0,0.0,0.0,0.0,0.0,0.0,0.0,0.0,0.0,0.0,0.0,0.0,0.0,0.0,0.0,0.0,0.0,0.0,0.0,0.0,0.0,0.0,0.0,0.0,0.0,0.0,0.0,0.0,0.0,0.0,0.0,-0.8214,-0.8564,-0.9038,-0.9038,-0.9165,-0.9276,-0.8303,-0.811,-0.8504,-0.8203,0.0,0.0,0.0,0.0,0.0,0.0,0.0,0.0,0.0,0.0,0.0,0.0,0.0,0.0,0.0,0.0,0.0,0.0,0.0,0.0,0.0,0.0,0.0,0.0,-0.827,-0.8163,-0.7128,0.0,0.0,0.0,0.0,0.0,0.0,0.0,0.0,0.0,0.0,0.0,-0.7929,-0.8477,-0.8804,-0.8804,-0.8804,-0.8804,-0.8804,-0.7563,-0.6706,-0.6422,-0.4906,-0.3844,0.0,0.0,0.0,0.0,0.0,0.0,0.0,0.0,0.0,0.0,0.0,0.0,0.0,0.0,0.0,0.0,0.0,0.0,0.0,0.0,0.0,0.0,0.0,0.0,0.0,0.0,0.0,0.0,0.0,0.0,0.0,0.0,-0.6431,-0.7126,0.0,0.0,0.0,0.0,0.0,0.0,0.0,0.0,0.0,0.0,0.0,0.0,0.0,-0.7896,-0.819,-0.8697,-0.8937,-0.9017,-0.9586,-0.9866,-0.9947,-0.9947,-0.9967,-0.998,-0.9573,0.0,-0.905,-0.8811,0.0,0.0,0.0,0.0,0.0,0.0,0.0,0.0,0.0,0.0,0.0,0.0,0.0,0.0,0.0,0.0,0.0,0.0,0.0,0.0,0.0,0.0,-0.8691,-0.8691,-0.8717,-0.8637,0.0,-0.7802,-0.7295,-0.6921,-0.668,0.0,0.0,0.0,0.0,0.0,0.0,0.0,-0.8237,-0.8604,-0.8804,-0.8804,-0.8804,-0.8804,-0.8804,-0.8049,-0.7236,-0.6473,-0.5471,-0.4578,-0.3784,-0.3423,0.0,0.0,0.0,0.0,0.0,0.0,0.0,0.0,0.0,0.0,0.0,0.0,0.0,0.0,0.0,0.0,0.0,0.0,0.0,0.0,0.0,0.0,0.0,0.0,0.0,0.0,0.0,0.0,0.0,-0.594,-0.6543,-0.6688,-0.6877,-0.6757,0.0,0.0,0.0,0.0,0.0,0.0,0.0,0.0,0.0,-0.8444,-0.8591,-0.8891,-0.9352,-0.9606,-0.99,-1.0227,-1.0488,-1.0695,-1.0848,-1.0848,-1.0848,-1.0842,-1.0715,-1.0494,-1.018,-0.9552,-0.9125,-0.8844,0.0,0.0,0.0,0.0,-0.8612,-0.8639,-0.8858,-0.8824,-0.8677,-0.8484,0.0,0.0,0.0,0.0,0.0,0.0,0.0,0.0,0.0,0.0,-0.9051,-0.9051,-0.9051,-0.8971,-0.8684,-0.841,-0.8029,0.0,-0.7315,-0.7052,-0.6231,0.0,0.0,0.0,0.0,-0.743,-0.8267,-0.8624,-0.8804,-0.8804,-0.8804,-0.8804,-0.8804,-0.8103,-0.7511,-0.7134,-0.6329,-0.5663,-0.5278,-0.4632,-0.4232,0.0,0.0,0.0,0.0,0.0,0.0,0.0,0.0,0.0,0.0,0.0,0.0,0.0,0.0,0.0,0.0,0.0,0.0,0.0,0.0,0.0,0.0,0.0,0.0,0.0,0.0,0.0,0.0,-0.619,-0.6647,-0.6545,-0.6874,-0.6934,0.0,0.0,0.0,0.0,0.0,0.0,-0.8187,-0.8337,-0.8711,-0.9382,-0.9539,-0.982,-1.0334,-1.0414,-1.0668,-1.1102,-1.1182,-1.1329,-1.1543,-1.1543,-1.1543,-1.1536,-1.1456,-1.1303,-1.1049,-1.0321,-0.9846,-0.9573,-0.9492,-0.9332,-0.9158,-0.9299,-0.9342,-0.9429,-0.9633,-0.9733,-0.9719,-0.9285,-0.9092,-0.8905,-0.8237,0.0,0.0,0.0,0.0,-0.8758,-0.8978,-0.9192,-0.9352,-0.9352,-0.9352,-0.9272,-0.8978,-0.8918,-0.8697,0.0,-0.7936,-0.7688,-0.66,0.0,0.0,0.0,0.0,-0.753,-0.8393,-0.8671,-0.8804,-0.8804,-0.8804,-0.8804,-0.8804,-0.8321,-0.7889,-0.7723,-0.7117,-0.6649,-0.6442,-0.5769,-0.5224,-0.485,0.0,0.0,0.0,0.0,0.0,0.0,0.0,0.0,0.0,0.0,0.0,0.0,0.0,0.0,0.0,0.0,0.0,0.0,0.0,0.0,0.0,0.0,0.0,0.0,0.0,0.0,0.0,0.0,0.0,-0.7412,-0.7473,0.0,0.0,0.0,0.0,-0.7795,-0.8397,-0.8851,-0.9103,-0.9439,-0.974,-1.006,-1.0347,-1.0641,-1.0942,-1.1223,-1.1376,-1.141,-1.169,-1.183,-1.1844,-1.1844,-1.1844,-1.183,-1.155,-1.1416,-1.1376,-1.1056,-1.0755,-1.053,-1.018,-1.006,-1.002,-0.976,-0.9833,-1.0033,-0.9773,-0.9866,-1.0087,-1.006,-0.9866,-0.9633,-0.9586,-0.9372,0.0,0.0,-0.9606,-0.9619,-0.9639,-0.9653,-0.9659,-0.9659,-0.9659,-0.9579,-0.9223,-0.9163,-0.907,0.0,-0.853,-0.8337,-0.829,0.0,-0.7935,-0.8263,-0.833,-0.8457,-0.8751,-0.8798,-0.8804,-0.8804,-0.8804,-0.8804,-0.8804,-0.8752,-0.8427,-0.7723,-0.7658,-0.7326,-0.6627,-0.641,-0.6022,-0.5289,-0.4848,0.0,0.0,0.0,0.0,0.0,0.0,0.0,0.0,0.0,0.0,0.0,0.0,0.0,0.0,0.0,0.0,0.0,0.0,0.0,0.0,0.0,0.0,0.0,0.0,0.0,0.0,0.0,0.0,-0.7729,-0.7936,0.0,-0.7903,-0.8156,-0.845,-0.8698,-0.9145,-0.9579,-1.0067,-1.0187,-1.0468,-1.0942,-1.1062,-1.1256,-1.1557,-1.1657,-1.1804,-1.1991,-1.2098,-1.2144,-1.2144,-1.2144,-1.2144,-1.2144,-1.2037,-1.1991,-1.1977,-1.1877,-1.155,-1.1109,-1.1002,-1.0962,-1.0949,-1.0842,-1.0868,-1.0942,-1.0842,-1.0875,-1.0929,-1.0742,-1.0488,-1.0214,-1.002,-0.9886,-0.9786,-0.9706,-0.9686,-0.9726,-0.9913,-0.996,-0.996,-0.996,-0.996,-0.988,-0.9593,-0.9379,-0.9157,-0.905,-0.8851,-0.8487,-0.793,-0.7815,-0.7789,-0.781,-0.7902,-0.8155,-0.8738,-0.8804,-0.8804,-0.8804,-0.8804,-0.8804,-0.8804,-0.8804,-0.8699,-0.8427,-0.8427,-0.8268,-0.8049,-0.7046,-0.635,-0.6,-0.4865,-0.3964,0.0,0.0,0.0,0.0,0.0,0.0,0.0,0.0,0.0,0.0,0.0,0.0,0.0,0.0,0.0,0.0,0.0,0.0,0.0,0.0,0.0,0.0,0.0,0.0,0.0,0.0,-0.8269,-0.8203,-0.8577,-0.8778,-0.8677,-0.8931,-0.9225,-0.9455,-0.9813,-1.0194,-1.0681,-1.0795,-1.1076,-1.1557,-1.1577,-1.1717,-1.2011,-1.2011,-1.2111,-1.2305,-1.2405,-1.2398,-1.2305,-1.2405,-1.2398,-1.2305,-1.2305,-1.2305,-1.2305,-1.2305,-1.2071,-1.171,-1.161,-1.1577,-1.1563,-1.1463,-1.149,-1.1577,-1.1577,-1.151,-1.1396,-1.1202,-1.1009,-1.0815,-1.0621,-1.0555,-1.0514,-1.0327,-1.0274,-1.0294,-1.0388,-1.0414,-1.0388,-1.0287,-1.0267,-1.0187,-0.9893,-0.9673,-0.9449,-0.9412,-0.9078,-0.8633,-0.8017,-0.8032,-0.8041,-0.7959,-0.8038,-0.8262,-0.8752,-0.8804,-0.8804,-0.8804,-0.8804,-0.8804,-0.8804,-0.8804,-0.8804,-0.8804,-0.8804,-0.8804,-0.8804,-0.7616,-0.6785,-0.6472,-0.4825,-0.3826,-0.3471,0.0,0.0,0.0,0.0,0.0,0.0,0.0,0.0,0.0,0.0,0.0,0.0,0.0,0.0,0.0,0.0,0.0,0.0,0.0,0.0,0.0,0.0,0.0,-0.7716,-0.8868,-0.9569,-0.893,-0.9332,-0.9573,-0.9292,-0.9539,-0.9833,-1.012,-1.0477,-1.0715,-1.1002,-1.1283,-1.1577,-1.187,-1.1884,-1.2017,-1.2298,-1.2305,-1.2305,-1.2318,-1.2605,-1.2599,-1.2338,-1.2694,-1.2585,-1.2318,-1.2305,-1.2305,-1.2305,-1.2305,-1.2305,-1.2271,-1.1991,-1.1884,-1.1844,-1.1557,-1.1637,-1.1884,-1.1884,-1.1697,-1.145,-1.145,-1.145,-1.145,-1.1443,-1.1443,-1.1436,-1.143,-1.1423,-1.1363,-1.1082,-1.1002,-1.0922,-1.0641,-1.0631,-1.0481,-1.0194,-1.0127,-1.0033,-0.9753,-0.9232,-0.8831,-0.8831,-0.8831,-0.8831,-0.8831,-0.8824,0.0,-0.8824,-0.8811,-0.8804,-0.8804,-0.8804,-0.8804,-0.8804,-0.8804,-0.8804,-0.8804,-0.8804,-0.8804,-0.8804,-0.8049,-0.7289,-0.6534,-0.4884,-0.388,-0.3595,0.0,0.0,0.0,0.0,0.0,0.0,0.0,0.0,0.0,0.0,0.0,0.0,0.0,0.0,0.0,0.0,0.0,0.0,0.0,0.0,0.0,0.0,-1.0605,-0.9878,-0.9784,-0.994,-1.0306,-0.9973,-0.9959,-1.0654,-1.0497,-1.0739,-1.1531,-1.1338,-1.1316,-1.1617,-1.1703,-1.1884,-1.2171,-1.2184,-1.2225,-1.2305,-1.2305,-1.2412,-1.2625,-1.2782,-1.2826,-1.2959,-1.2812,-1.2775,-1.2612,-1.2398,-1.2305,-1.2305,-1.2305,-1.2305,-1.2291,-1.2218,-1.2184,-1.2171,-1.2091,-1.2111,-1.2184,-1.2184,-1.2131,-1.2058,-1.2058,-1.2058,-1.2024,-1.181,-1.175,-1.1703,-1.1483,-1.1423,-1.141,-1.1329,-1.1149,-1.0969,-1.0895,-1.0715,-1.0598,-1.0454,-1.0267,-1.0094,-1.0013,-0.9699,-0.9446,-0.9446,-0.9446,-0.9446,-0.9446,-0.9259,0.0,-0.9064,-0.8938,-0.8804,-0.8804,-0.8804,-0.8804,-0.8804,-0.8804,-0.8804,-0.8804,-0.8804,-0.8804,-0.8804,-0.7563,-0.6312,-0.5117,-0.4374,-0.3978,0.0,0.0,0.0,0.0,0.0,0.0,0.0,0.0,0.0,0.0,0.0,0.0,0.0,0.0,0.0,0.0,0.0,0.0,0.0,0.0,0.0,0.0,-1.1505,-1.2166,-1.2319,-1.1798,-1.1453,-1.1581,-1.1305,-1.1398,-1.2202,-1.1994,-1.2187,-1.3024,-1.29,-1.2836,-1.3027,-1.282,-1.2697,-1.2872,-1.2519,-1.2305,-1.2305,-1.2425,-1.2579,-1.2829,-1.2999,-1.3153,-1.3206,-1.3146,-1.3053,-1.2933,-1.2759,-1.2685,-1.2685,-1.2685,-1.2685,0.0,0.0,0.0,0.0,0.0,-1.2305,-1.2305,-1.2305,-1.2305,-1.2305,-1.2305,-1.2305,-1.2271,-1.2098,-1.2051,-1.2017,-1.1844,-1.1797,-1.1764,-1.1643,-1.1396,-1.1142,-1.1022,-1.0775,-1.0624,-1.0624,-1.0421,-1.0301,-1.0301,-1.0167,0.0,-1.0053,-0.9846,-0.9686,-0.9686,-0.9432,-0.9183,-0.9183,-0.8985,-0.8804,-0.8804,-0.8804,-0.8804,-0.8804,-0.8804,0.0,0.0,0.0,-0.8646,-0.8374,-0.7235,0.0,0.0,0.0,0.0,0.0,0.0,0.0,0.0,-0.3839,-0.386,0.0,0.0,0.0,0.0,0.0,0.0,0.0,0.0,0.0,0.0,0.0,0.0,0.0,0.0,0.0,0.0,-1.2744,-1.3496,-1.4619,-1.4242,-1.3518,-1.2889,-1.2972,-1.3252,-1.3693,-1.3738,-1.3922,-1.4444,-1.4681,-1.4745,-1.4745,0.0,0.0,0.0,0.0,-1.2318,-1.2351,-1.2612,-1.2856,-1.2929,-1.3387,-1.3527,-1.332,-1.354,-1.35,-1.326,-1.3227,-1.3213,-1.3213,-1.3213,-1.3213,-1.316,-1.2612,-1.2405,-1.2405,-1.2405,-1.2405,-1.2398,-1.2365,0.0,0.0,-1.2311,-1.2305,-1.2305,-1.2305,-1.2305,-1.2305,-1.2305,-1.2305,-1.2245,-1.1984,-1.1697,-1.1403,-1.1109,-1.0822,-1.0665,-1.0631,-1.0624,-1.0624,-1.0624,-1.0624,-1.0624,-1.0624,-1.0127,-0.978,-0.978,-0.9532,-0.9269,-0.9236,-0.9038,-0.8844,-0.8811,0.0,0.0,-0.8804,-0.8804,-0.8804,-0.8804,-0.8804,-0.8427,-0.761,-0.6966,-0.6204,-0.5378,-0.4787,-0.4519,-0.4519,-0.4536,-0.4543,-0.4532,-0.408,-0.4036,0.0,0.0,0.0,0.0,0.0,0.0,0.0,0.0,0.0,0.0,0.0,0.0,0.0,0.0,0.0,-1.2656,-1.3691,-1.4502,-1.4756,-1.4964,-1.4751,-1.3978,-1.3646,-1.3777,-1.4542,-1.4524,-1.4765,-1.5513,-1.5265,-1.5126,-1.5126,-1.4204,-1.3673,-1.3673,-1.2806,-1.2418,-1.2735,-1.2795,-1.2993,-1.3474,0.0,0.0,-1.3915,-1.3728,-1.3532,-1.3547,-1.3313,-1.3213,-1.3213,-1.3213,-1.3213,-1.32,-1.308,-1.3039,-1.3039,-1.3039,-1.3039,-1.2999,-1.2746,-1.2735,-1.2694,-1.2378,-1.2305,-1.2305,-1.2305,-1.2305,0.0,-1.2305,-1.2305,-1.2285,-1.2231,-1.2004,-1.171,-1.141,-1.1122,-1.0842,-1.0672,-1.0624,-1.0624,-1.0624,-1.0624,-1.0624,-1.0624,-1.053,-1.0456,-1.0456,-1.0134,-0.986,-0.9626,-0.9339,-0.9065,-0.8831,-0.8804,-0.8804,-0.8804,-0.8804,-0.8804,-0.8804,-0.8804,-0.8209,-0.6858,-0.6696,-0.5987,-0.4736,-0.457,-0.4519,-0.4519,-0.4585,-0.4646,-0.4646,-0.4558,-0.4548,0.0,0.0,0.0,0.0,0.0,0.0,0.0,0.0,0.0,0.0,0.0,-1.1165,-1.1777,0.0,-1.3076,-1.373,-1.4365,-1.4863,-1.5068,-1.5283,-1.5312,-1.5157,-1.4989,-1.5212,-1.609,-1.6103,-1.6282,-1.6889,-1.6752,-1.6585,-1.6585,-1.5234,-1.445,-1.445,-1.3248,-1.2592,-1.2822,-1.3046,-1.3347,-1.3559,-1.3794,-1.3941,-1.4082,-1.3935,-1.3868,-1.3854,-1.3714,-1.3647,-1.3647,-1.3647,-1.3647,-1.3647,-1.3647,-1.3474,-1.3213,-1.3213,-1.3213,-1.3186,-1.3033,-1.2979,-1.2953,-1.2806,-1.2652,-1.2525,-1.2525,-1.2418,-1.2305,-1.2305,-1.2305,-1.2305,-1.2305,-1.2084,-1.1797,-1.1496,-1.1209,-1.0915,-1.0685,-1.0624,-1.0624,-1.0624,-1.0624,-1.0624,-1.0624,-1.0624,-1.0624,-1.0624,-1.0307,-1.006,-0.992,-0.9646,-0.9345,-0.9058,-0.9025,-0.8965,-0.8818,-0.8804,-0.8804,-0.8804,-0.848,-0.7937,-0.7182,-0.6416,-0.5758,-0.5189,-0.4801,-0.4616,-0.4691,-0.4769,-0.4806,-0.4806,-0.4877,-0.4874,0.0,0.0,0.0,0.0,0.0,0.0,0.0,0.0,-1.0273,-1.1221,-1.1699,-1.2224,-1.2978,-1.3467,-1.3984,-1.4678,-1.4853,-1.5029,-1.5361,-1.541,-1.5566,-1.6066,-1.6143,-1.6475,-1.7187,-1.7412,-1.7646,-1.7988,-1.8008,-1.8008,-1.8008,-1.6228,-1.5305,-1.5446,-1.3762,-1.2925,-1.3133,-1.3447,-1.3592,-1.3734,-1.3975,-1.4088,-1.4088,-1.4088,-1.4088,-1.4088,-1.4088,-1.4088,-1.4088,-1.4088,-1.4088,-1.4088,-1.4088,-1.3801,-1.338,-1.338,-1.338,-1.3373,-1.3313,-1.3293,-1.3287,-1.3227,-1.3039,-1.2916,-1.2916,-1.2625,-1.2385,-1.2385,-1.2345,-1.2305,-1.2305,-1.2131,-1.1877,-1.1583,-1.1289,-1.0995,-1.0708,-1.0665,-1.0624,-1.0624,-1.0624,-1.0624,-1.0624,-1.0624,-1.0624,-1.0624,-1.0354,-1.018,-1.0127,-0.9913,-0.9653,-0.9359,-0.9216,-0.9064,-0.8831,-0.8804,-0.8752,-0.8593,-0.8049,-0.7557,-0.7283,-0.6178,-0.5557,-0.56,-0.5006,-0.4796,-0.4918,-0.4948,-0.4958,-0.4962,-0.5108,-0.5098,-1.0898,-1.0527,0.0,-1.0684,-1.0488,-1.0615,0.0,0.0,-1.1699,-1.2959,-1.3252,-1.3437,-1.3906,-1.4346,-1.4678,-1.4766,-1.5098,-1.5361,-1.54,-1.541,-1.5566,-1.6066,-1.6416,-1.6699,-1.6797,-1.749,-1.7959,-1.8008,-1.8008,-1.8008,-1.8008,-1.6228,-1.5587,-1.6419,-1.4052,-1.332,-1.4362,-1.3863,-1.3774,-1.4041,-1.4075,-1.4088,-1.4088,-1.4088,-1.4088,-1.4088,-1.4088,-1.4088,-1.4088,-1.4088,-1.4088,-1.4088,-1.4088,-1.4048,-1.3988,-1.3988,-1.3988,-1.3955,-1.3687,-1.3594,-1.3554,-1.3293,-1.3186,-1.316,-1.316,-1.2939,-1.2775,-1.2775,-1.2505,-1.2305,-1.2305,-1.2278,-1.2178,-1.1891,-1.159,-1.1296,-1.1009,-1.0742,-1.0624,-1.0624,-1.0624,-1.0624,-1.0624,-1.0624,-1.0624,-1.0624,-1.0598,-1.0414,-1.0147,-1.0087,-0.996,-0.9666,-0.9399,-0.9064,-0.8831,-0.8804,-0.8533,-0.7883,-0.7723,-0.7122,-0.5814,-0.5759,-0.5465,-0.4861,-0.4882,-0.4901,-0.4918,-0.5047,-0.5108,-0.5111,-0.5264,-0.5254,-1.2041,0.0,0.0,0.0,-1.1543,-1.1611,-1.2334,-1.2412,-1.2549,-1.335,-1.3906,-1.4307,-1.4482,-1.4863,-1.5146,0.0,-1.5293,-1.541,-1.541,-1.541,-1.5478,-1.5664,-1.6074,-1.6543,-1.7061,-1.7441,-1.7744,-1.7988,-1.8008,-1.8008,-1.8008,-1.6724,-1.621,-1.6567,-1.4828,-1.405,-1.4569,-1.4144,-1.3968,-1.4088,-1.4088,-1.4088,-1.4088,-1.4088,-1.4088,-1.4088,-1.4088,-1.4088,-1.4088,-1.4088,-1.4088,-1.4088,-1.4088,-1.4088,-1.4088,-1.4088,-1.4088,-1.4068,-1.3948,-1.3901,-1.3881,-1.3761,-1.3601,-1.346,-1.346,-1.3126,-1.2822,-1.2822,-1.2532,-1.2305,-1.2305,-1.2305,-1.2231,-1.1937,-1.177,-1.1603,-1.1309,-1.1149,-1.1062,-1.1062,-1.0929,-1.0815,-1.0815,-1.0675,-1.0624,-1.0624,-1.0624,-1.0577,-1.0388,-1.0374,-1.0261,-0.9967,-0.9519,-0.9137,-0.9017,-0.8905,-0.848,-0.7723,-0.7289,-0.6578,-0.5542,-0.528,-0.5078,-0.4819,-0.4965,-0.5087,-0.5179,-0.5237,-0.5267,-0.5267,-0.5332,-0.5325,-1.2508,0.0,0.0,-1.218,-1.2324,-1.2412,-1.2412,-1.2744,-1.3174,-1.3594,-1.417,-1.4648,-1.4766,-1.5039,0.0,-1.5234,-1.5342,-1.541,-1.541,-1.541,-1.541,-1.541,-1.5693,-1.6182,-1.6943,-1.7129,-1.7383,-1.7803,-1.7842,-1.7746,-1.7638,-1.6715,-1.6263,-1.6298,-1.4948,-1.4387,-1.4702,-1.431,-1.4088,-1.4088,-1.4088,-1.4088,-1.4088,-1.4088,-1.4088,-1.4088,-1.4088,-1.4088,-1.4088,-1.4088,-1.4088,-1.4088,-1.4088,-1.4088,-1.4088,-1.4088,-1.4088,-1.4088,-1.4088,-1.4088,-1.4088,-1.4088,-1.3941,-1.3768,-1.3768,-1.3407,-1.2979,-1.2899,-1.2659,-1.2405,-1.2325,-1.2305,-1.2245,-1.2037,-1.1924,-1.181,-1.1597,-1.127,-1.1073,-1.1354,-1.1047,-1.0743,-1.0936,-1.0822,-1.0719,-1.0631,-1.0624,-1.0624,-1.0624,-1.0624,-1.0448,-1.0147,-0.974,-0.9389,-0.9372,-0.8938,-0.8373,-0.7654,-0.6819,-0.6041,-0.5361,-0.498,-0.4823,-0.4972,-0.5121,-0.525,-0.5428,-0.5428,-0.5428,-0.5428,-0.5428,-0.5428,0.0,0.0,-1.218,-1.218,-1.2549,-1.2861,-1.2861,-1.3184,-1.3613,-1.397,-1.4077,-1.4277,-1.4707,-1.4795,-1.4805,-1.4805,-1.5146,-1.541,-1.541,-1.541,-1.541,-1.541,-1.542,-1.5605,0.0,-1.6494,-1.6934,-1.7373,-1.7402,-1.7159,-1.6688,-1.572,-1.5392,-1.5593,-1.4106,-1.3805,-1.5042,-1.4421,-1.4088,-1.4088,-1.4088,-1.4088,-1.4088,-1.4088,-1.4088,-1.4088,-1.4088,-1.4088,-1.4088,-1.4088,-1.4088,-1.4088,-1.4088,-1.4088,-1.4088,-1.4088,-1.4088,-1.4088,-1.4088,-1.4088,-1.4088,-1.4088,-1.4082,-1.4075,-1.4075,-1.3861,-1.3554,-1.3273,-1.2973,-1.2741,-1.2378,-1.2305,-1.2298,-1.2291,-1.2078,-1.1864,-1.1857,-1.0835,-1.0227,-1.1211,-1.0642,-1.0137,-1.0903,-1.0982,-1.0882,-1.0665,-1.0624,-1.0624,-1.0624,-1.0624,-1.0448,-1.0147,-1.01,-0.9973,-0.9693,-0.8878,-0.8094,-0.7328,-0.6379,-0.5556,-0.4958,-0.4908,-0.4979,-0.5121,-0.5277,-0.5422,-0.5428,-0.5428,-0.5428,-0.5428,-0.5428,-0.5428,0.0,0.0,-1.2248,-1.2588,-1.2773,-1.2881,-1.2881,-1.3203,-1.3545,-1.3691,-1.3883,-1.4126,-1.4326,-1.4355,-1.4453,-1.4736,-1.4902,-1.5098,-1.5371,-1.541,-1.541,-1.541,-1.541,0.0,0.0,0.0,0.0,-1.7324,-1.7383,-1.7149,-1.6618,-1.628,-1.585,-1.5336,-1.4961,-1.4782,-1.481,-1.475,-1.4531,-1.4088,-1.4088,-1.4088,-1.4088,-1.4088,-1.4088,-1.4088,-1.4088,-1.4088,-1.4088,-1.4088,-1.4088,-1.4088,-1.4088,-1.4088,-1.4088,-1.4088,-1.4088,-1.4088,-1.4088,-1.4088,-1.4088,-1.4088,-1.4088,-1.4088,-1.4088,-1.3881,-1.3499,-1.3293,-1.2986,-1.2755,-1.2378,-1.2305,-1.2305,-1.2305,-1.2225,-1.2158,-1.2158,-1.1259,-1.0822,-1.1781,-1.1047,-1.0538,-1.1451,-1.141,-1.1182,-1.0895,-1.0681,-1.0624,-1.0624,-1.0624,-1.0584,-1.0421,-1.0234,-1.0074,-0.998,-0.9001,-0.8063,-0.7349,-0.6983,-0.6219,-0.4975,-0.5559,-0.5642,-0.5128,-0.5284,-0.5428,-0.5428,-0.5428,-0.5428,-0.5428,-0.5428,-0.5428,0.0,-1.2791,-1.2381,-1.3042,-1.3065,-1.2881,-1.2881,-1.3203,-1.3506,-1.3506,-1.3721,-1.3916,-1.3916,-1.3916,-1.4004,-1.4287,-1.459,-1.4883,-1.5146,-1.5312,-1.541,-1.541,-1.541,0.0,0.0,0.0,0.0,-1.708,-1.7148,-1.6845,-1.6123,-1.607,-1.5568,-1.4413,-1.4851,-1.482,-1.4281,-1.4801,-1.4753,-1.4088,-1.4088,-1.4088,-1.4088,-1.4088,-1.4088,-1.4088,-1.4088,-1.4088,-1.4088,-1.4088,-1.4088,-1.4088,-1.4088,-1.4088,-1.4088,-1.4088,-1.4088,-1.4088,-1.4088,-1.4088,-1.4088,-1.4088,-1.4088,-1.4088,-1.4088,-1.3955,-1.3741,-1.3447,-1.322,-1.2973,-1.2565,-1.2458,-1.2438,-1.2325,-1.2305,-1.2305,-1.2305,-1.1242,-1.064,-1.2003,-1.1034,-1.0446,-1.167,-1.1536,-1.1209,-1.1022,-1.0748,-1.0624,-1.0624,-1.0624,-1.0498,-1.0174,-0.9944,-0.9835,-0.9835,-0.8857,-0.8204,-0.8021,-0.7633,-0.6899,-0.5626,-0.6111,-0.6042,-0.5209,-0.5311,-0.5428,-0.5428,-0.5428,-0.5428,-0.5428,-0.5428,-0.5459,-1.4123,-1.3207,-1.253,-1.3533,-1.3372,-1.2978,-1.2929,-1.3233,-1.3518,-1.3477,-1.3457,-1.3437,0.0,0.0,-1.3447,-1.3477,-1.4189,-1.4756,-1.4785,-1.5146,-1.541,0.0,0.0,0.0,0.0,0.0,0.0,-1.667,0.0,-1.629,-1.5334,-1.5234,-1.4455,-1.2864,-1.3697,-1.4,-1.3587,-1.4493,-1.4753,-1.4088,-1.4088,-1.4088,-1.4088,-1.4088,-1.4088,-1.4088,-1.4088,-1.4088,-1.4088,-1.4088,-1.4088,-1.4088,-1.4088,-1.4088,-1.4088,-1.4088,-1.4088,-1.4088,-1.4088,-1.4088,-1.4088,-1.4088,-1.4088,-1.4088,-1.4088,-1.4088,-1.4021,-1.3728,-1.3559,-1.3507,-1.2919,-1.2849,-1.2768,-1.2392,-1.2325,-1.2318,-1.2305,-1.072,-0.99,-1.1929,-1.0726,-0.998,-1.1644,-1.1416,-1.1035,-1.1015,-1.0768,-1.0645,-1.0624,-1.0624,-1.0301,-0.9466,-0.9338,-0.9274,-0.9274,-0.8484,-0.8285,-0.9139,-0.8201,-0.7351,-0.6645,-0.6489,-0.6105,-0.5425,-0.5428,-0.5428,-0.5428,-0.5428,-0.5428,-0.5428,-0.5428,-0.5443,-1.437,-1.4016,-1.3445,-1.3747,-1.4003,-1.4025,-1.3113,-1.3319,-1.3583,-1.3135,-1.2783,-1.2511,0.0,0.0,0.0,-1.2988,-1.375,0.0,-1.4736,-1.5146,0.0,0.0,0.0,-1.541,-1.541,-1.5703,0.0,0.0,-1.6665,-1.6561,-1.6244,-1.5587,-1.4633,-1.3506,-1.3726,-1.3554,-1.305,-1.3654,-1.4035,-1.4088,-1.4088,-1.4088,-1.4088,-1.4088,-1.4088,-1.4088,-1.4088,-1.4088,-1.4088,-1.4088,-1.4088,-1.4088,-1.4088,-1.4088,-1.4088,-1.4088,-1.4088,-1.4088,-1.4088,-1.4088,-1.4088,-1.4088,-1.4088,-1.4088,-1.4088,-1.4088,-1.4021,-1.3728,-1.3559,-1.3554,-1.3193,-1.3093,-1.3013,-1.2705,-1.2708,-1.2572,-1.2351,-1.072,-0.99,-1.1929,-1.1922,-1.1681,-1.2131,-1.1891,-1.157,-1.1349,-1.1069,-1.0808,-1.0651,-1.0624,-1.0498,-1.0301,-0.9658,-0.9274,-0.9274,-0.7897,-0.7111,-0.7372,-0.7126,-0.6607,-0.5749,-0.629,-0.6225,-0.5425,-0.5428,-0.5428,-0.5428,-0.5428,-0.5428,-0.5428,-0.5428,-0.5443,-1.4911,-1.4485,-1.3862,-1.4143,-1.4468,-1.4424,-1.3258,-1.3253,-1.3273,-1.2474,-1.2109,0.0,0.0,0.0,0.0,0.0,0.0,0.0,-1.4434,-1.4863,-1.5205,0.0,-1.541,0.0,-1.541,-1.5811,-1.625,0.0,-1.6914,-1.6685,-1.6044,-1.586,-1.5013,-1.3171,-1.3882,-1.4041,-1.3417,-1.358,-1.3661,-1.3707,-1.3961,-1.4021,-1.3895,-1.3895,-1.3968,-1.4082,0.0,-1.3968,-1.4088,-1.4088,-1.4088,-1.4088,-1.4088,-1.4088,-1.4088,-1.4088,-1.4088,-1.4088,-1.4088,-1.4088,-1.4088,-1.4088,-1.4088,-1.4088,-1.4088,-1.4088,-1.4055,-1.3881,-1.3841,-1.3768,-1.348,-1.34,-1.332,-1.3019,-1.2923,-1.2775,-1.2532,-1.1178,-1.0265,-1.1391,-1.1996,-1.2305,-1.2305,-1.1689,-1.1301,-1.1574,-1.0911,-1.0462,-1.0768,-1.0315,-0.9913,-0.9518,-0.8672,-0.8291,-0.8683,-0.7502,-0.685,-0.7242,-0.7242,-0.6854,-0.6009,-0.6461,-0.6268,-0.5425,-0.5428,-0.5428,-0.5428,-0.5428,-0.5428,-0.5428,-0.543,-0.5508,-1.5543,-1.4903,-1.4179,-1.4698,-1.488,-1.4609,-1.3484,-1.321,-1.295,-1.1904,0.0,0.0,-1.1518,0.0,-1.2139,-1.2139,0.0,-1.3633,-1.3941,-1.4473,-1.4922,-1.5283,-1.5381,-1.541,-1.541,-1.5811,-1.6221,-1.6611,-1.71,-1.6872,-1.5641,-1.6219,-1.5359,-1.2592,-1.4019,-1.4543,-1.4013,-1.3657,-1.342,-1.322,-1.3728,-1.3834,-1.3587,-1.3587,-1.3728,-1.3961,-1.3741,-1.3788,-1.4035,-1.4075,-1.4088,-1.4088,-1.4088,-1.4088,-1.4088,-1.4088,-1.4088,-1.4088,-1.4088,-1.4088,-1.4088,-1.4088,-1.4088,-1.4088,-1.4088,-1.4088,-1.4088,-1.4088,-1.4088,-1.4028,-1.3768,-1.3701,-1.3627,-1.334,-1.306,-1.2929,-1.2896,-1.1872,-1.098,-1.0864,-1.162,-1.2305,-1.2305,-1.1345,-1.0959,-1.1799,-1.0585,-0.9922,-1.0731,-0.9953,-0.9011,-0.8221,-0.7307,-0.6981,-0.7762,-0.7046,-0.6854,-0.7637,-0.7637,-0.7312,-0.6593,-0.6523,-0.6203,-0.5428,-0.5428,-0.5428,-0.5428,-0.5428,-0.5428,-0.5432,-0.5498,-0.5569,-1.6051,-1.582,-1.5309,-1.541,-1.582,-1.5743,-1.4114,-1.3839,0.0,0.0,0.0,-1.1025,-1.1025,-1.1377,0.0,-1.1724,0.0,0.0,0.0,0.0,-1.4814,0.0,0.0,0.0,0.0,0.0,0.0,0.0,0.0,-1.7426,-1.7491,-1.6922,-1.5641,-1.3528,-1.3018,-1.2885,-1.3044,-1.3,-1.3006,-1.3213,-1.3313,-1.3333,-1.3287,-1.3287,-1.3313,-1.3373,-1.3561,0.0,-1.3741,-1.3988,-1.4088,-1.4088,-1.4088,-1.4088,-1.4088,-1.4088,-1.4088,-1.4088,-1.4088,-1.4088,-1.4088,-1.4088,-1.4088,-1.4088,-1.4088,-1.4088,-1.4088,-1.4088,-1.4088,-1.4075,-1.4021,-1.4008,-1.3935,-1.3641,-1.3527,-1.342,-1.318,-1.2809,-1.2132,-1.1055,-1.162,-1.2305,-1.2305,-1.2111,-1.1919,-1.1904,-1.0978,-1.0195,-0.9977,-0.9563,-0.9268,-0.9075,-0.7632,-0.6785,-0.6915,-0.6141,-0.5686,-0.5818,-0.5818,-0.5752,-0.562,-0.562,-0.5557,-0.5428,-0.5428,-0.5428,-0.5428,-0.5428,-0.5428,-0.5428,-0.5456,-0.5467,-1.5864,-1.582,-1.5588,-1.5588,-1.6051,-1.5985,-1.4067,0.0,0.0,0.0,0.0,-1.0586,-1.0586,0.0,0.0,0.0,0.0,0.0,0.0,0.0,0.0,0.0,0.0,0.0,0.0,0.0,0.0,0.0,0.0,-1.7021,-1.6938,-1.6251,-1.5438,-1.4522,-1.3528,-1.2875,-1.2512,-1.2741,-1.2746,-1.2746,-1.306,-1.3126,-1.2966,-1.2966,-1.306,-1.3213,-1.3186,-1.3353,-1.3572,-1.3801,-1.3948,-1.4088,-1.4088,-1.4088,-1.4088,-1.4088,-1.4088,-1.4088,-1.4088,-1.4088,-1.4088,-1.4088,-1.4088,-1.4088,-1.4088,-1.4088,-1.4088,-1.4088,-1.4088,-1.4088,-1.4088,-1.4088,-1.4048,-1.3908,-1.3641,-1.334,-1.3033,-1.2732,-1.2322,-1.1719,-1.1996,-1.2305,-1.2305,-1.1848,-1.1649,-1.2038,-1.1153,-1.0319,-1.0072,-0.9411,-0.8826,-0.8641,-0.7055,-0.6203,-0.6654,-0.5881,-0.5428,-0.5428,-0.5428,-0.5428,-0.5428,-0.5428,-0.5428,-0.5428,-0.5428,-0.5428,-0.5428,-0.5428,-0.5428,-0.5428,-0.5443,-0.5518,-1.5776,-1.5776,-1.5776,-1.5776,-1.6139,-1.5966,-1.3994,-1.3488,0.0,0.0,0.0,-1.0137,-1.0137,0.0,0.0,0.0,0.0,0.0,0.0,0.0,0.0,0.0,0.0,0.0,0.0,0.0,0.0,0.0,0.0,0.0,-1.5945,-1.5368,-1.501,-1.4879,-1.3954,-1.3025,-1.2305,-1.2532,-1.2532,-1.2311,-1.2786,-1.2893,-1.2728,-1.2728,-1.2786,-1.3006,-1.2826,-1.3013,-1.3454,-1.3527,-1.3728,-1.3988,-1.3988,-1.4035,-1.4088,-1.4088,-1.4088,-1.4088,-1.4088,-1.4088,-1.4088,-1.4088,-1.4088,-1.4088,-1.4088,-1.4088,-1.4088,-1.4088,-1.4088,-1.4088,-1.4088,-1.4088,-1.4088,-1.4088,-1.3687,-1.322,-1.2913,-1.2612,-1.2378,-1.2311,-1.2305,-1.2305,-1.2305,-1.162,-1.1391,-1.215,-1.1284,-1.0466,-1.0413,-0.923,-0.818,-0.7815,-0.6394,-0.5726,-0.6334,-0.5815,-0.5428,-0.5428,-0.5428,-0.5428,-0.5428,-0.5428,-0.5428,-0.5428,-0.5428,-0.5428,-0.5428,-0.5428,-0.5428,-0.5432,-0.5484,-0.5559,-1.6423,-1.6423,-1.6423,-1.6423,-1.6479,-1.6093,-1.443,0.0,0.0,0.0,-1.0015,-0.9651,-0.9651,0.0,0.0,0.0,0.0,0.0,0.0,0.0,0.0,0.0,0.0,0.0,0.0,0.0,0.0,0.0,0.0,0.0,-1.5945,-1.5053,-1.4329,-1.3875,-1.2952,-1.2372,-1.2305,-1.2325,-1.2325,-1.2305,-1.2358,-1.2371,-1.2345,-1.2345,-1.2358,-1.2398,-1.2721,0.0,0.0,-1.3133,-1.342,-1.3687,-1.3687,-1.3848,-1.4088,-1.4088,-1.4088,-1.4088,-1.4088,-1.4088,-1.4088,-1.4088,-1.4088,-1.4088,-1.4088,-1.4088,-1.4088,-1.4088,-1.4088,-1.4088,-1.4088,-1.4088,-1.4088,-1.4088,-1.3841,-1.3527,-1.3233,-1.2926,-1.2625,-1.2351,-1.2305,-1.2305,-1.2305,-1.2224,-1.2224,-1.2298,-1.1446,-1.0666,-1.0431,-0.8787,-0.747,-0.7018,-0.6177,-0.5579,-0.5502,-0.5428,-0.5428,-0.5428,-0.5428,-0.5428,-0.5428,-0.5428,-0.5428,-0.5428,-0.5428,-0.5428,-0.5428,-0.5428,-0.5428,-0.5428,-0.5442,-0.5457,-1.6421,-1.6522,-1.6522,-1.6522,-1.6271,-1.56,-1.4046,0.0,0.0,-1.0252,-0.9566,-0.9326,-0.9554,0.0,0.0,0.0,0.0,0.0,0.0,0.0,0.0,0.0,0.0,0.0,0.0,0.0,0.0,0.0,0.0,0.0,-1.5177,-1.5534,-1.5146,-1.3738,-1.3317,-1.2879,-1.2305,-1.2305,-1.2305,-1.2305,-1.2305,-1.2305,-1.2305,-1.2305,-1.2305,-1.2311,-1.2425,0.0,0.0,-1.2956,-1.3113,-1.34,-1.3574,-1.3714,-1.3841,-1.4021,-1.4088,-1.4088,-1.4088,-1.4088,-1.4088,-1.4088,-1.4088,-1.4088,-1.4088,-1.4088,-1.4088,-1.4088,-1.4088,-1.4088,-1.4088,-1.4088,-1.4041,-1.3861,-1.3594,-1.33,-1.2999,-1.2692,-1.2445,-1.2325,-1.2305,-1.2077,-1.1465,-1.1922,-1.207,-1.1465,-1.1087,-1.0525,-0.984,-0.8562,-0.7343,-0.6447,-0.598,-0.562,-0.5449,-0.5447,-0.546,-0.5432,-0.5428,-0.5428,-0.5428,-0.5428,-0.5428,-0.5428,-0.5428,-0.5428,-0.5428,-0.5428,-0.5428,-0.5428,-0.5457,-0.5579,-1.617,-1.6396,-1.6522,-1.6522,-1.6107,-1.5299,0.0,0.0,-1.1439,-0.9766,-0.9111,-0.8945,-0.933,-0.9408,0.0,0.0,0.0,0.0,0.0,0.0,0.0,0.0,0.0,0.0,0.0,0.0,0.0,0.0,0.0,0.0,-1.4728,-1.5437,-1.516,-1.3596,-1.3628,-1.3237,-1.2305,-1.2305,-1.2305,-1.2305,-1.2305,-1.2305,-1.2305,-1.2305,-1.2305,-1.2305,-1.2305,0.0,0.0,-1.2619,-1.2799,-1.3093,-1.33,-1.3434,-1.354,-1.3748,-1.3881,-1.3941,-1.3854,-1.3941,-1.4075,-1.3981,-1.4015,-1.4088,-1.4088,-1.4088,-1.4088,-1.4088,-1.4088,-1.4088,-1.4088,-1.4021,-1.3901,-1.3694,-1.3353,-1.3013,-1.2869,-1.2512,-1.2224,-1.1922,-1.1848,-1.1545,-1.0565,-1.0944,-1.1174,-1.049,-1.034,-0.9965,-0.8993,-0.8237,-0.7331,-0.6119,-0.5973,-0.5817,-0.5515,-0.5552,-0.5545,-0.5437,-0.5452,-0.5428,-0.5428,-0.5428,-0.5428,-0.5428,-0.5428,-0.5428,-0.5428,-0.5428,-0.5452,-0.5433,-0.5538,-0.5691,-1.5706,-1.6107,-1.6522,-1.6522,-1.6107,-1.5299,0.0,-1.2623,-1.1339,-0.9421,-0.8672,-0.8516,-0.8936,-0.9014,-0.9424,0.0,0.0,0.0,0.0,0.0,0.0,0.0,0.0,0.0,0.0,0.0,0.0,0.0,0.0,0.0,-1.4746,-1.4354,-1.3795,-1.312,-1.3509,-1.3237,-1.2305,-1.2305,-1.2305,-1.2305,-1.2305,-1.2305,-1.2305,-1.2305,-1.2305,-1.2305,0.0,0.0,0.0,-1.2305,-1.2485,-1.2829,-1.2829,-1.2946,-1.3213,-1.322,-1.34,-1.3607,-1.332,-1.3601,-1.4041,-1.3741,-1.3848,-1.4088,-1.4088,-1.4088,-1.4088,-1.4088,-1.4088,-1.4088,-1.4088,-1.3868,-1.3566,-1.3559,-1.3186,-1.2829,-1.2822,-1.2512,-1.1996,-1.1013,-1.0789,-1.049,-0.9523,-0.9296,-0.9296,-0.9296,-0.9296,-0.8917,-0.7936,-0.7783,-0.7331,-0.6119,-0.6166,-0.6132,-0.5823,-0.5671,-0.5589,-0.5589,-0.5447,-0.5428,-0.5428,-0.5428,-0.5428,-0.5428,-0.5428,-0.5428,-0.5428,-0.5428,-0.544,-0.5589,-0.5589,-0.5745,-1.4927,-1.5266,-1.5392,-1.5392,-1.473,-1.3754,-1.2651,-1.1353,-1.0042,-0.8845,-0.8232,-0.8066,-0.8496,-0.8574,-0.8994,-1.0273,0.0,0.0,0.0,0.0,0.0,0.0,0.0,0.0,0.0,0.0,0.0,0.0,0.0,0.0,-1.5191,-1.4834,-1.4078,-1.2855,-1.2621,-1.2356,-1.2004,-1.2204,-1.2305,-1.2305,-1.2305,-1.2305,-1.2305,-1.2305,-1.2305,0.0,0.0,0.0,-1.2305,-1.2305,-1.2358,-1.2458,-1.2741,-1.2882,-1.2919,-1.3133,-1.3267,-1.3333,-1.324,-1.346,-1.3768,-1.3592,-1.3841,-1.4088,-1.4088,-1.4088,-1.4088,-1.4088,-1.4088,-1.4088,-1.4088,-1.3868,-1.3512,-1.3394,-1.3039,-1.2768,-1.2485,-1.2365,-1.1996,-1.1013,-1.0783,-1.026,-0.8537,-0.8841,-0.9069,-0.8389,-0.8313,-0.8161,-0.7859,-0.7176,-0.6623,-0.627,-0.6234,-0.6135,-0.5827,-0.5762,-0.5694,-0.5596,-0.5447,-0.5428,-0.5428,-0.5428,-0.5428,-0.5428,-0.5428,-0.5428,-0.5428,-0.5467,-0.5647,-0.5891,-0.5891,-0.5996,0.0,-1.4551,-1.4916,-1.4916,-1.3988,-1.2852,-1.2087,-1.0651,-0.9287,-0.8555,-0.8027,-0.7832,-0.8332,-0.8411,-0.8773,-0.9853,0.0,0.0,0.0,0.0,0.0,0.0,0.0,0.0,0.0,0.0,0.0,0.0,0.0,0.0,-1.541,-1.4629,-1.376,-1.2856,-1.2441,-1.2116,-1.1703,-1.1991,-1.2138,-1.2138,-1.2245,-1.2305,-1.2305,-1.2305,-1.2305,0.0,0.0,-1.2305,0.0,-1.2305,-1.2305,-1.2318,-1.2505,-1.2579,-1.2599,-1.2799,-1.2939,-1.3019,-1.2906,-1.314,-1.346,-1.334,-1.3514,-1.3754,-1.3754,-1.3834,-1.3921,-1.3921,-1.3841,-1.3754,-1.3754,-1.3534,-1.326,-1.308,-1.2799,-1.2525,-1.2345,-1.2305,-1.1922,-1.049,-1.0265,-0.9588,-0.7553,-0.7783,-0.7936,-0.7326,-0.7249,-0.7249,-0.7249,-0.6721,-0.6338,-0.6338,-0.6338,-0.6159,-0.5908,-0.5833,-0.5766,-0.5674,-0.5477,-0.5428,-0.5428,-0.5416,-0.542,-0.5428,-0.5471,-0.5474,-0.5428,-0.5569,-0.5793,-0.603,-0.6091,-0.6169,0.0,-1.3799,-1.4638,-1.4588,-1.3509,-1.2354,-1.1822,-1.0322,0.0,-0.8456,-0.8008,-0.7841,-0.834,-0.843,-0.8672,0.0,0.0,0.0,0.0,0.0,0.0,0.0,0.0,0.0,0.0,0.0,0.0,0.0,0.0,0.0,-1.541,-1.3914,-1.307,-1.3009,-1.2905,-1.2378,-1.1396,-1.169,-1.1837,-1.1837,-1.2111,-1.2238,-1.2238,-1.2238,-1.2238,0.0,-1.2265,-1.2271,-1.2271,-1.2291,-1.2305,-1.2305,-1.2305,-1.2305,-1.2305,-1.2305,-1.2478,-1.2755,-1.2398,-1.2685,-1.3133,-1.2866,-1.2973,-1.3213,-1.3213,-1.34,-1.3614,-1.3614,-1.342,-1.3213,-1.3213,-1.2979,-1.2822,-1.2822,-1.2518,-1.2305,-1.2224,-1.2224,-1.1626,-0.9599,-0.9221,-0.8542,-0.6644,-0.6338,-0.6338,-0.6338,-0.6338,-0.6338,-0.6338,-0.6338,-0.6338,-0.6338,-0.6338,-0.6203,-0.6057,-0.5895,-0.5796,-0.5786,-0.5528,-0.5439,-0.5428,-0.5518,-0.5535,-0.5449,-0.5657,-0.5671,-0.5476,-0.5684,-0.5895,-0.6051,-0.6193,-0.6338,-1.1182,0.0,-1.1841,-1.1609,-1.0945,-1.03,0.0,-0.9151,0.0,0.0,0.0,0.0,0.0,0.0,0.0,0.0,0.0,0.0,0.0,0.0,0.0,0.0,0.0,0.0,0.0,0.0,0.0,0.0,0.0,-1.541,-1.541,-1.4451,-1.3666,-1.3009,-1.236,-1.1746,-1.1089,-1.1383,-1.153,-1.153,-1.1597,-1.163,-1.163,-1.163,-1.163,-1.1643,-1.187,-1.1971,-1.1991,-1.2211,-1.2305,-1.2305,-1.2305,-1.2305,-1.2305,-1.2305,-1.2345,-1.2398,-1.2325,-1.2545,-1.2879,-1.3046,-1.3153,-1.3213,-1.3213,-1.326,-1.3313,-1.3313,-1.3267,-1.3213,-1.3213,-1.2979,-1.2822,-1.2822,-1.2518,-1.2077,-1.1316,-1.1162,-1.0565,-0.8537,-0.8161,-0.7783,-0.649,-0.6338,-0.6338,-0.6338,-0.6338,-0.6338,-0.6338,-0.6338,-0.6338,-0.6338,-0.6338,-0.6247,-0.621,-0.5956,-0.5755,-0.5647,-0.5576,-0.5484,-0.5432,-0.5613,-0.5684,-0.5538,-0.5711,-0.5823,-0.5874,-0.5942,-0.6054,-0.6207,-0.6244,-0.6338,-0.9646,-1.0433,-1.1263,-1.1102,-1.0365,-0.9647,0.0,0.0,0.0,0.0,0.0,0.0,0.0,0.0,0.0,0.0,0.0,0.0,0.0,0.0,0.0,0.0,0.0,0.0,0.0,0.0,0.0,0.0,0.0,-1.541,-1.541,-1.4628,-1.4025,-1.3545,-1.2757,-1.1869,-1.086,-1.1082,-1.1229,-1.1229,-1.1363,-1.1423,-1.1423,-1.1423,-1.1423,-1.143,-1.1597,-1.1744,-1.1877,-1.2037,-1.2184,-1.2305,-1.2305,-1.2305,-1.2305,-1.2305,-1.2305,-1.2305,-1.2305,-1.2412,-1.2572,-1.2739,-1.2792,-1.2792,-1.2792,-1.2792,-1.2819,-1.2959,-1.2899,-1.2792,-1.2792,-1.2665,-1.2545,-1.2545,-1.2418,-1.1996,-1.1013,-1.0783,-1.0185,-0.8156,-0.7783,-0.748,-0.649,-0.6338,-0.6338,-0.6338,-0.6338,-0.6338,-0.6338,-0.6338,-0.6338,-0.6338,-0.6338,-0.6234,-0.6162,-0.6003,-0.5874,-0.5796,-0.5725,-0.565,-0.5569,-0.5783,-0.5905,-0.5898,-0.5833,-0.5911,-0.6135,-0.6064,-0.6108,-0.6338,-0.6338,-0.6338,-0.8637,-0.9976,-1.1392,-1.1141,-1.0278,-0.9496,0.0,0.0,0.0,0.0,0.0,0.0,0.0,0.0,0.0,0.0,0.0,0.0,0.0,0.0,0.0,0.0,0.0,0.0,0.0,0.0,0.0,0.0,0.0,-1.541,-1.541,-1.4746,-1.4332,-1.4213,-1.3545,-1.2458,-1.0996,-1.1053,-1.1118,-1.1118,-1.1243,-1.1289,-1.1289,-1.1289,-1.1289,-1.1296,0.0,0.0,-1.1737,-1.1784,-1.1971,-1.2238,-1.2238,-1.2265,-1.2305,-1.2305,-1.2305,-1.2305,-1.2305,-1.2305,-1.2305,-1.2305,-1.2305,-1.2305,-1.2305,-1.2305,-1.2351,-1.2605,-1.2498,-1.2305,-1.2305,-1.2305,-1.2305,-1.2305,-1.215,-1.1774,-1.0789,-1.0484,-0.9809,-0.7931,-0.7553,-0.7326,-0.6412,-0.6338,-0.6338,-0.6338,-0.6338,-0.6338,-0.6338,-0.6338,-0.6338,-0.6338,-0.6338,-0.6207,-0.6074,-0.6064,-0.6064,-0.6064,-0.5922,-0.5847,-0.5871,-0.5973,-0.6101,-0.6257,-0.6003,-0.6,-0.6338,-0.6129,-0.6132,-0.6338,-0.6338,-0.6338,-0.9751,-1.0026,-1.0003,-0.8643,-0.8459,-0.8495,0.0,0.0,0.0,0.0,0.0,0.0,0.0,0.0,0.0,0.0,0.0,0.0,0.0,0.0,0.0,0.0,0.0,0.0,0.0,0.0,0.0,0.0,0.0,-1.541,-1.541,-1.5294,-1.4874,-1.4213,-1.4085,-1.3545,-1.2642,-1.2011,-1.1667,-1.1659,-1.1044,-1.0695,-1.0695,-1.0695,-1.0695,-1.0708,0.0,-1.1082,-1.1149,-1.139,-1.167,-1.1937,-1.1937,-1.2084,-1.2305,-1.2305,-1.2305,-1.2305,-1.2305,-1.2305,-1.2305,-1.2305,-1.2305,-1.2305,-1.2305,-1.2305,-1.2311,-1.2358,-1.2338,-1.2305,-1.2305,-1.2305,-1.2305,-1.2305,-1.162,-1.0714,-0.9744,-0.8841,-0.7931,-0.6718,-0.6567,-0.649,-0.6338,-0.6338,-0.6338,-0.6338,-0.6338,-0.6338,-0.6338,-0.6338,-0.6338,-0.6338,-0.6338,-0.6251,-0.6227,-0.6227,-0.6227,-0.6227,-0.6081,-0.6054,-0.6186,-0.6088,-0.6101,-0.6257,-0.6213,-0.6213,-0.6338,-0.6237,-0.6237,-0.6338,-0.6338,-0.6338,-0.9068,-0.9133,-0.8993,-0.8266,-0.8574,-0.9004,0.0,0.0,0.0,0.0,0.0,0.0,0.0,0.0,0.0,0.0,0.0,0.0,0.0,0.0,0.0,0.0,0.0,0.0,0.0,0.0,0.0,0.0,0.0,0.0,-1.5078,-1.5078,-1.4897,-1.4544,-1.4544,-1.4473,-1.4332,-1.3476,-1.287,-1.2451,-1.2089,-1.1663,-1.1226,-1.1226,-1.0982,-1.0631,0.0,-1.0848,-1.1002,-1.1136,-1.1363,-1.1643,-1.1804,-1.1951,-1.2084,-1.2245,-1.2305,-1.2305,-1.2305,-1.2305,-1.2305,-1.2305,-1.2305,-1.2305,-1.2305,-1.2305,-1.2305,-1.2305,-1.2305,-1.2305,-1.2305,-1.2305,-1.2305,-1.2305,-1.1539,-1.0484,-0.9523,-0.8542,-0.748,-0.649,-0.6338,-0.6338,-0.6338,-0.6338,-0.6338,-0.6338,-0.6338,-0.6338,-0.6338,-0.6338,-0.6338,-0.6338,-0.6338,-0.6338,-0.6338,-0.6338,-0.6338,-0.6338,-0.6193,-0.6186,-0.6257,-0.6193,-0.6186,-0.6335,-0.6338,-0.6338,-0.6338,-0.6338,-0.6338,-0.6338,-0.6338,-0.6338,-0.8556,-0.8508,-0.8448,0.0,0.0,0.0,0.0,0.0,0.0,0.0,0.0,0.0,0.0,0.0,0.0,0.0,0.0,0.0,0.0,0.0,0.0,0.0,0.0,0.0,0.0,0.0,0.0,0.0,0.0,0.0,-1.4629,-1.4629,-1.4629,-1.4629,-1.4629,-1.4785,-1.5107,-1.4618,-1.3996,-1.3312,-1.307,-1.2696,-1.2081,-1.2081,-1.1655,-1.0863,-1.0863,-1.0873,-1.0895,-1.0895,-1.1062,-1.1349,-1.1577,-1.175,-1.1904,-1.2191,-1.2305,-1.2305,-1.2305,-1.2305,-1.2305,-1.2305,-1.2305,-1.2305,-1.2305,-1.2305,-1.2305,-1.2305,-1.2305,-1.2305,-1.2305,-1.2305,-1.2224,-1.1996,-1.1168,-1.019,-0.9145,-0.8161,-0.7249,-0.6412,-0.6338,-0.6338,-0.6338,-0.6338,-0.6338,-0.6338,-0.6338,-0.6338,-0.6338,-0.6338,-0.6338,-0.6338,-0.6338,-0.6338,-0.6338,-0.6338,-0.6338,-0.6338,-0.6338,-0.6338,-0.6338,-0.6338,-0.6338,-0.6338,-0.6338,-0.6338,-0.6338,-0.6338,-0.6338,-0.6338,-0.6338,-0.6338,-0.934,-0.9014,-0.8645,-0.8882,0.0,0.0,0.0,0.0,0.0,0.0,0.0,0.0,0.0,0.0,0.0,0.0,0.0,0.0,0.0,0.0,0.0,0.0,0.0,0.0,0.0,0.0,0.0,0.0,0.0,0.0,-1.4126,-1.4126,-1.4126,-1.4126,-1.4126,-1.4136,-1.4175,-1.4574,-1.4554,-1.4085,-1.3373,-1.2948,-1.2887,-1.2887,-1.2451,-1.171,-1.171,-1.1303,-1.0658,-1.0658,-1.0762,-1.1022,-1.1049,-1.139,-1.1904,-1.2191,-1.2305,-1.2305,-1.2305,-1.2305,-1.2305,-1.2305,-1.2305,-1.2305,-1.2305,-1.2305,-1.2305,-1.2305,-1.2305,-1.2305,-1.2305,-1.2305,-1.207,-1.1162,-1.0115,-0.9145,-0.8161,-0.7099,-0.6416,-0.6338,-0.6338,-0.6338,-0.6338,-0.6338,-0.6338,-0.6338,-0.6338,-0.6338,-0.6338,-0.6338,-0.6338,-0.6338,-0.6338,-0.6338,-0.6338,-0.6338,-0.6338,-0.6338,-0.6338,-0.6338,-0.6338,-0.6338,-0.6338,-0.6338,-0.6338,-0.6338,-0.6338,-0.6338,-0.6338,-0.6338,-0.6338,-0.6338,-0.9248,-0.9101,-0.8825,0.0,0.0,0.0,0.0,0.0,0.0,0.0,0.0,0.0,0.0,0.0,0.0,0.0,0.0,0.0,0.0,0.0,0.0,0.0,0.0,0.0,0.0,0.0,0.0,0.0,0.0,0.0,-1.375,-1.375,-1.375,-1.375,-1.375,-1.3877,-1.4077,-1.4297,-1.4289,-1.4165,-1.4387,-1.4078,-1.3386,-1.3621,-1.3053,-1.1834,-1.1834,-1.1351,-1.0624,-1.0624,-1.0692,-1.0742,-1.0922,-1.1349,-1.1884,-1.1991,-1.2144,-1.2305,-1.2305,-1.2305,-1.2305,-1.2305,-1.2305,-1.2305,-1.2305,-1.2305,-1.2305,-1.2305,-1.2305,-1.2305,-1.2305,-1.2305,-1.2077,-1.1013,-1.0045,-0.8993,-0.8008,-0.7022,-0.6338,-0.6338,-0.6338,-0.6338,-0.6338,-0.6338,-0.6338,-0.6338,-0.6338,-0.6338,-0.6338,-0.6338,-0.6338,-0.6338,-0.6338,-0.6338,-0.6338,-0.6338,-0.6338,-0.6338,-0.6338,-0.6338,-0.6338,-0.6338,-0.6338,-0.6338,-0.6338,-0.6338,-0.6338,-0.6338,-0.6338,-0.6338,-0.6338,-0.6338,-0.874,-0.8699,-0.8662,0.0,0.0,0.0,0.0,0.0,0.0,0.0,0.0,0.0,0.0,0.0,0.0,0.0,0.0,0.0,0.0,0.0,0.0,0.0,0.0,0.0,0.0,0.0,0.0,0.0,0.0,0.0,0.0,-1.3311,-1.3311,-1.3311,-1.3311,-1.3447,-1.374,-1.3877,-1.3877,-1.375,-1.46,-1.4639,-1.3987,-1.4255,-1.3723,-1.2565,-1.2266,-1.1717,-1.0989,-1.0681,-1.0624,-1.0651,-1.0882,-1.1236,-1.1617,-1.1797,-1.1997,-1.2178,-1.2271,-1.2305,-1.2305,-1.2305,-1.2305,-1.2305,-1.2305,-1.2305,-1.2305,-1.2305,-1.2305,-1.2305,-1.2305,-1.2305,-1.1996,-1.064,-0.982,-0.8922,-0.7629,-0.6795,-0.6338,-0.6338,-0.6338,-0.6338,-0.6338,-0.6338,-0.6338,-0.6338,-0.6338,-0.6338,-0.6338,-0.6338,-0.6338,-0.6338,-0.6338,-0.6338,-0.6338,-0.6338,-0.6338,-0.6338,-0.6338,-0.6338,-0.6338,-0.6338,-0.6338,-0.6338,-0.6338,-0.6338,-0.6338,-0.6338,-0.6338,-0.6338,-0.6338,-0.6338,-0.7885,-0.7809,0.0,0.0,0.0,0.0,0.0,0.0,0.0,0.0,0.0,0.0,0.0,0.0,0.0,0.0,0.0,0.0,0.0,0.0,0.0,0.0,0.0,0.0,0.0,0.0,0.0,0.0,0.0,0.0,0.0,-1.2881,-1.2881,-1.2881,-1.2881,-1.2881,-1.2881,-1.3291,-1.3291,-1.2891,-1.3721,-1.4355,-1.4775,-1.4785,-1.4601,-1.4145,-1.3364,-1.2512,-1.1772,-1.0926,-1.0624,-1.0651,-1.0875,-1.0989,-1.1062,-1.1643,-1.1864,-1.1911,-1.2198,-1.2298,-1.2305,-1.2305,-1.2305,-1.2305,-1.2305,-1.2305,-1.2305,-1.2305,-1.2305,-1.2305,-1.2298,-1.2298,-1.1774,-0.975,-0.9296,-0.877,-0.6718,-0.6338,-0.6338,-0.6338,-0.6338,-0.6338,-0.6338,-0.6338,-0.6338,-0.6338,-0.6338,-0.6338,-0.6338,-0.6338,-0.6338,-0.6338,-0.6338,-0.6338,-0.6338,-0.6338,-0.6338,-0.6338,-0.6338,-0.6338,-0.6338,-0.6338,-0.6338,-0.6338,-0.6338,-0.6338,-0.6338,-0.6338,-0.6338,-0.6338,-0.6338,-0.6338,-0.8048,0.0,0.0,0.0,0.0,0.0,0.0,0.0,0.0,0.0,0.0,0.0,0.0,0.0,0.0,0.0,0.0,0.0,0.0,0.0,0.0,0.0,0.0,0.0,0.0,0.0,0.0,0.0,0.0,0.0,0.0,-1.2881,-1.2881,-1.2881,-1.2881,-1.2881,-1.2881,-1.3008,-1.3008,-1.2881,-1.3135,-1.3477,-1.3906,-1.4512,-1.4449,-1.3758,-1.3254,-1.2512,-1.1772,-1.0926,-1.0624,-1.0631,-1.0719,-1.0815,-1.1015,-1.1189,-1.1516,-1.1877,-1.1964,-1.2131,-1.2305,-1.2305,-1.2305,-1.2305,-1.2305,-1.2305,-1.2305,-1.2305,-1.2305,-1.215,-1.1465,-1.1236,-1.0944,-0.9599,-0.8765,-0.7859,-0.6567,-0.6338,-0.6338,-0.6338,-0.6338,-0.6338,-0.6338,-0.6338,-0.6338,-0.6338,-0.6338,-0.6338,-0.6338,-0.6338,-0.6338,-0.6338,-0.6338,-0.6338,-0.6338,-0.6338,-0.6338,-0.6338,-0.6338,-0.6338,-0.6338,-0.6338,-0.6338,-0.6338,-0.6338,-0.6338,-0.6338,-0.6338,-0.6338,-0.6338,-0.6338,-0.6338,-0.782,0.0,0.0,0.0,0.0,0.0,0.0,0.0,0.0,0.0,0.0,0.0,0.0,0.0,0.0,0.0,0.0,0.0,0.0,0.0,0.0,0.0,0.0,0.0,0.0,0.0,0.0,0.0,0.0,0.0,0.0,-1.2881,-1.2881,-1.2881,-1.2881,-1.2881,-1.2881,-1.2881,-1.2881,-1.2881,-1.2881,-1.3018,-1.3281,-1.3965,-1.4093,-1.3756,-1.305,-1.2305,-1.1463,-1.0871,-1.0624,-1.0624,-1.0624,-1.0668,-1.0835,-1.0949,-1.1216,-1.1536,-1.165,-1.1884,-1.2131,-1.2131,-1.2204,-1.2305,-1.2305,-1.2305,-1.2305,-1.2305,-1.1996,-1.1545,-1.0938,-1.0185,-0.9437,-0.8841,-0.8237,-0.7553,-0.649,-0.6338,-0.6338,-0.6338,-0.6338,-0.6338,-0.6338,-0.6338,-0.6338,-0.6338,-0.6338,-0.6338,-0.6338,-0.6338,-0.6338,-0.6338,-0.6338,-0.6338,-0.6338,-0.6338,-0.6338,-0.6338,-0.6338,-0.6338,-0.6338,-0.6338,-0.6338,-0.6338,-0.6338,-0.6338,-0.6338,-0.6338,-0.6338,-0.6338,-0.6338,-0.6338,0.0,0.0,0.0,0.0,0.0,0.0,0.0,0.0,0.0,0.0,0.0,0.0,0.0,0.0,0.0,0.0,0.0,0.0,0.0,0.0,0.0,0.0,0.0,0.0,0.0,0.0,0.0,0.0,0.0,0.0,0.0,-1.2881,-1.2881,-1.2881,-1.2881,-1.2881,-1.2881,-1.2881,-1.2881,-1.2881,-1.2881,-1.2881,-1.29,-1.3311,-1.3679,-1.3936,-1.2845,-1.1854,-1.1063,-1.0705,-1.0598,-1.0624,-1.0624,-1.0624,-1.0658,-1.0855,-1.0969,-1.1029,-1.1296,-1.1583,-1.183,-1.183,-1.2011,-1.2225,-1.2225,-1.2225,-1.2225,-1.2225,-1.1563,-1.0902,-1.0822,-0.9346,-0.7936,-0.7859,-0.7706,-0.7403,-0.649,-0.6338,-0.6338,-0.6338,-0.6338,-0.6338,-0.6338,-0.6338,-0.6338,-0.6338,-0.6338,-0.6338,-0.6338,-0.6338,-0.6338,-0.6338,-0.6338,-0.6338,-0.6338,-0.6338,-0.6338,-0.6338,-0.6338,-0.6338,-0.6338,-0.6338,-0.6338,-0.6338,-0.6338,-0.6338,-0.6338,-0.6338,-0.6338,-0.6338,-0.6338,-0.6338,0.0,0.0,0.0,0.0,0.0,0.0,0.0,0.0,0.0,0.0,0.0,0.0,0.0,0.0,0.0,0.0,0.0,0.0,0.0,0.0,0.0,0.0,0.0,0.0,0.0,0.0,0.0,0.0,0.0,0.0,-1.2881,-1.2881,-1.2881,-1.2881,-1.2881,-1.2881,-1.2881,-1.2881,-1.2881,-1.2881,-1.2881,-1.2881,-1.29,-1.3311,-1.3356,-1.315,-1.2321,-1.1668,-1.1048,-1.0478,-1.0347,-1.0624,-1.0624,-1.0624,-1.0631,-1.0628,-1.0795,-1.1002,-1.1062,-1.1276,-1.1523,-1.1523,-1.1563,-1.1617,-1.1617,-1.1617,-1.1617,-1.1617,-1.1636,-1.1441,-1.0707,-0.9755,-0.877,-0.8012,-0.7176,-0.6567,-0.6338,-0.6338,-0.6338,-0.6338,-0.6338,-0.6338,-0.6338,-0.6338,-0.6338,-0.6338,-0.6338,-0.6338,-0.6338,-0.6338,-0.6338,-0.6338,-0.6338,-0.6338,-0.6338,-0.6338,-0.6338,-0.6338,-0.6338,-0.6338,-0.6338,-0.6338,-0.6338,-0.6338,-0.6338,-0.6338,-0.6338,-0.6338,-0.6338,-0.6338,-0.6338,-0.6338,0.0,0.0,0.0,0.0,0.0,0.0,0.0,0.0,0.0,0.0,0.0,0.0,0.0,0.0,0.0,0.0,0.0,0.0,0.0,0.0,0.0,0.0,0.0,0.0,0.0,0.0,0.0,0.0,0.0,-1.2881,-1.2881,-1.2881,-1.2881,-1.2881,-1.2881,-1.2881,-1.2881,-1.2881,-1.2881,-1.2881,-1.2881,-1.2881,-1.2891,-1.3105,-1.3118,-1.2856,-1.2334,-1.1754,-1.1172,-1.0746,-1.0499,-1.0361,-1.0571,-1.0624,-1.0624,-1.0624,-1.0719,-1.0788,-1.0788,-1.0975,-1.1223,-1.1223,-1.1316,-1.1423,-1.1423,-1.1423,-1.1423,-1.1423,-1.1281,-1.106,-1.0551,-0.949,-0.8466,-0.7936,-0.7022,-0.6338,-0.6338,-0.6338,-0.6338,-0.6338,-0.6338,-0.6338,-0.6338,-0.6338,-0.6338,-0.6338,-0.6338,-0.6338,-0.6338,-0.6338,-0.6338,-0.6338,-0.6338,-0.6338,-0.6338,-0.6338,-0.6338,-0.6338,-0.6338,-0.6338,-0.6338,-0.6338,-0.6338,-0.6338,-0.6338,-0.6338,-0.6338,-0.6338,-0.6338,-0.6338,-0.6338,-0.6338,0.0,0.0,0.0,0.0,0.0,0.0,0.0,0.0,0.0,0.0,0.0,0.0,0.0,0.0,0.0,0.0,0.0,0.0,0.0,0.0,0.0,0.0,0.0,0.0,0.0,0.0,0.0,0.0,0.0,-1.2881,-1.2881,-1.2881,-1.2881,-1.2881,-1.2881,-1.2881,-1.2881,-1.2881,-1.2881,-1.2881,-1.2881,-1.2881,-1.2881,-1.2881,-1.2881,-1.2852,-1.2415,-1.1843,-1.1301,-1.1054,-1.0569,-1.0067,-1.0367,-1.0481,-1.0488,-1.0604,-1.0624,-1.0624,-1.0624,-1.0722,-1.0915,-1.0915,-1.1082,-1.1276,-1.1276,-1.1276,-1.1276,-1.1276,-1.0918,-1.0491,-1.0343,-0.9081,-0.7921,-0.7799,-0.6977,-0.623,-0.6254,-0.6338,-0.6338,-0.6338,-0.6338,-0.6338,-0.6338,-0.6338,-0.6338,-0.6338,-0.6338,-0.6338,-0.6338,-0.6338,-0.6338,-0.6338,-0.6338,-0.6338,-0.6338,-0.6338,-0.6338,-0.6338,-0.6338,-0.6338,-0.6338,-0.6338,-0.6338,-0.6338,-0.6338,-0.6338,-0.6338,-0.6338,-0.6338,-0.6338,-0.6338,-0.6338,0.0,0.0,0.0,0.0,0.0,0.0,0.0,0.0,0.0,0.0,0.0,0.0,0.0,0.0,0.0,0.0,0.0,0.0,0.0,0.0,0.0,0.0,0.0,0.0,0.0,0.0,0.0,0.0,-1.2881,-1.2881,-1.2881,-1.2881,-1.2881,-1.2881,-1.2881,-1.2881,-1.2881,-1.2881,-1.2881,-1.2881,-1.2881,-1.2881,-1.2881,-1.2881,-1.2881,-1.2881,-1.2144,-1.1635,-1.1268,-1.067,-1.0172,-0.9773,-1.006,-1.0174,-1.0207,-1.0461,-1.0624,-1.0624,-1.0624,-1.0651,-1.0678,-1.0678,-1.0705,-1.0739,-1.0739,-1.0739,-1.0739,-1.0739,-1.0817,-1.0769,-1.0025,-0.9178,-0.8337,-0.7712,-0.6798,-0.6098,-0.6234,-0.6338,-0.6338,-0.6338,-0.6338,-0.6338,-0.6338,-0.6338,-0.6338,-0.6338,-0.6338,-0.6338,-0.6338,-0.6338,-0.6338,-0.6338,-0.6338,-0.6338,-0.6338,-0.6338,-0.6338,-0.6338,-0.6338,-0.6338,-0.6338,-0.6338,-0.6338,-0.6338,-0.6338,-0.6338,-0.6338,-0.6338,-0.6338,-0.6338,-0.6338,-0.6338,0.0,0.0,0.0,0.0,0.0,0.0,0.0,0.0,0.0,0.0,0.0,0.0,0.0,0.0,0.0,0.0,0.0,0.0,0.0,0.0,0.0,0.0,0.0,0.0,0.0,0.0,0.0,0.0,-1.2881,-1.2881,-1.2881,-1.2881,-1.2881,-1.2881,-1.2881,-1.2881,-1.2881,-1.2881,-1.2881,-1.2881,-1.2881,-1.2881,-1.2881,-1.2881,-1.2881,-1.2881,-1.2559,-1.209,-1.1533,-1.1072,-1.0553,-1.0017,-0.9928,-0.9973,-1.0114,-1.008,-1.0342,-1.0598,-1.0367,-1.0421,-1.0624,-1.0624,-1.0624,-1.0624,-1.0624,-1.0624,-1.0624,-1.0624,-1.0438,-1.0188,-0.9789,-0.8831,-0.7898,-0.7547,-0.684,-0.6176,-0.6247,-0.6338,-0.6338,-0.6338,-0.6338,-0.6338,-0.6338,-0.6338,-0.6338,-0.6338,-0.6338,-0.6338,-0.6338,-0.6338,-0.6338,-0.6338,-0.6338,-0.6338,-0.6338,-0.6338,-0.6338,-0.6338,-0.6338,-0.6338,-0.6338,-0.6338,-0.6338,-0.6338,-0.6338,-0.6338,-0.6338,-0.6338,-0.6338,-0.6338,-0.6338,-0.6338,0.0,0.0,0.0,0.0,0.0,0.0,0.0,0.0,0.0,0.0,0.0,0.0,0.0,0.0,0.0,0.0,0.0,0.0,0.0,0.0,0.0,0.0,0.0,0.0,0.0,0.0,0.0,0.0,-1.2881,-1.2881,-1.2881,-1.2881,-1.2881,-1.2881,-1.2881,-1.2881,-1.2881,-1.2881,-1.2881,-1.2881,-1.2881,-1.2881,-1.2881,-1.2881,-1.2881,-1.2881,-1.2881,-1.2403,-1.1534,-1.1266,-1.0706,-0.9908,-0.9672,-0.9699,-0.9873,-0.974,-1.0007,-1.0408,-1.0107,-1.0254,-1.0611,-1.0474,-1.0557,-1.0624,-1.0624,-1.0624,-1.0624,-1.0624,-1.0128,-0.9556,-0.9351,-0.8319,-0.7233,-0.711,-0.6574,-0.6166,-0.6321,-0.6338,-0.6338,-0.6338,-0.6338,-0.6338,-0.6338,-0.6338,-0.6338,-0.6338,-0.6338,-0.6338,-0.6338,-0.6338,-0.6338,-0.6338,-0.6338,-0.6338,-0.6338,-0.6338,-0.6338,-0.6338,-0.6338,-0.6338,-0.6338,-0.6338,-0.6338,-0.6338,-0.6338,-0.6338,-0.6338,-0.6338,-0.6338,-0.6338,-0.6338,-0.6264,0.0,0.0,0.0,0.0,0.0,0.0,0.0,0.0,0.0,0.0,0.0,0.0,0.0,0.0,0.0,0.0,0.0,0.0,0.0,0.0,0.0,0.0,0.0,0.0,0.0,0.0,0.0,0.0,-1.2881,-1.2881,-1.2881,-1.2881,-1.2881,-1.2881,-1.2881,-1.2881,-1.2881,-1.2881,-1.2881,-1.2881,-1.2881,-1.2881,-1.2881,-1.2881,-1.2881,-1.2881,-1.2881,-1.2098,-1.0864,-1.0838,-1.0043,-0.8911,-0.9152,-0.9216,-0.9263,-0.9586,-0.988,-1.01,-0.9806,-1.008,-1.0577,-1.0234,-1.0327,-1.0624,-1.0624,-1.0624,-1.0624,-1.0624,-0.9989,-0.9163,-0.8306,-0.7405,-0.6589,-0.6026,-0.5888,-0.5905,-0.6196,-0.6338,-0.6338,-0.6338,-0.6338,-0.6338,-0.6338,-0.6338,-0.6338,-0.6338,-0.6338,-0.6338,-0.6338,-0.6338,-0.6338,-0.6338,-0.6338,-0.6338,-0.6338,-0.6338,-0.6338,-0.6338,-0.6338,-0.6338,-0.6338,-0.6338,-0.6338,-0.6338,-0.6338,-0.6338,-0.6338,-0.6338,-0.6338,-0.6338,-0.6338,-0.6268,0.0,0.0,0.0,0.0,0.0,0.0,0.0,0.0,0.0,0.0,0.0,0.0,0.0,0.0,0.0,0.0,0.0,0.0,0.0,0.0,0.0,0.0,0.0,0.0,0.0,0.0,0.0,0.0,0.0,-1.3334,-1.2929,-1.2881,-1.2881,-1.2881,-1.2881,-1.2881,-1.2881,-1.2881,-1.2881,-1.2881,-1.2881,-1.2881,-1.2881,-1.2881,-1.2881,-1.2881,-1.2881,-1.2618,-1.2098,-1.1174,-1.0517,-1.0028,-0.9224,-0.9024,-0.9176,-0.9152,-0.9426,-0.9793,-0.9499,-0.978,-1.0254,-1.0147,-1.0314,-1.0624,-1.0624,-1.0624,-1.0624,-1.0624,-0.9588,-0.842,-0.8091,-0.7017,-0.5989,-0.5947,-0.6023,-0.6125,-0.6237,-0.6338,-0.6338,-0.6338,-0.6338,-0.6338,-0.6338,-0.6338,-0.6338,-0.6338,-0.6338,-0.6338,-0.6338,-0.6338,-0.6338,-0.6338,-0.6338,-0.6338,-0.6338,-0.6338,-0.6338,-0.6338,-0.6338,-0.6338,-0.6338,-0.6338,-0.6338,-0.6338,-0.6338,-0.6338,-0.6338,-0.6338,-0.6338,-0.6338,-0.6338,-0.6268,0.0,0.0,0.0,0.0,0.0,0.0,0.0,0.0,0.0,0.0,0.0,0.0,0.0,0.0,0.0,0.0,0.0,0.0,0.0,0.0,0.0,0.0,0.0,0.0,0.0,0.0,0.0,0.0,0.0,0.0,-1.2488,-1.2441,-1.2441,-1.2441,-1.2578,-1.2666,-1.2666,-1.2812,-1.2881,-1.2881,-1.2881,-1.2881,-1.2881,-1.2881,-1.2881,-1.2881,-1.2881,-1.2618,-1.2098,-1.1174,-1.0517,-1.0064,-0.9159,-0.8925,-0.9072,-0.8878,-0.9118,-0.9492,-0.9198,-0.9546,-1.01,-1.0,-1.0234,-1.0624,-1.0624,-1.0624,-1.0624,-1.0624,-0.9326,-0.8027,-0.8027,-0.6848,-0.5708,-0.5908,-0.6112,-0.6338,-0.6338,-0.6338,-0.6338,-0.6338,-0.6338,-0.6338,-0.6338,-0.6338,-0.6338,-0.6338,-0.6338,-0.6338,-0.6338,-0.6338,-0.6338,-0.6338,-0.6338,-0.6338,-0.6338,-0.6338,-0.6338,-0.6338,-0.6338,-0.6338,-0.6338,-0.6338,-0.6338,-0.6338,-0.6338,-0.6338,-0.6338,-0.6338,-0.6338,-0.6338,-0.6338,-0.5948,0.0,0.0,0.0,0.0,0.0,0.0,0.0,0.0,0.0,0.0,0.0,0.0,0.0,0.0,0.0,0.0,0.0,0.0,0.0,0.0,0.0,0.0,0.0,0.0,0.0,0.0,0.0,0.0,-1.1683,-1.165,-1.164,-1.165,-1.1606,-1.1606,-1.1982,-1.2161,-1.2161,-1.2646,-1.2861,-1.2861,-1.2871,-1.2881,-1.2881,-1.2881,-1.2881,-1.2881,-1.2881,-1.2098,-1.0813,-1.0813,-1.0012,-0.8804,-0.8811,-0.8804,-0.8804,-0.8804,-0.8985,-0.913,-0.8905,-0.9372,-1.0047,-0.976,-1.0067,-1.0611,-1.0611,-1.0618,-1.0561,-1.0561,-0.932,-0.7962,-0.7962,-0.6865,-0.5796,-0.58,-0.6034,-0.6254,-0.6335,-0.6338,-0.6338,-0.6338,-0.6338,-0.6338,-0.6338,-0.6338,-0.6338,-0.6338,-0.6338,-0.6338,-0.6338,-0.6338,-0.6338,-0.6338,-0.6338,-0.6338,-0.6338,-0.6338,-0.6338,-0.6338,-0.6338,-0.6338,-0.6338,-0.6338,-0.6338,-0.6338,-0.6338,-0.6338,-0.6338,-0.6338,-0.6338,-0.6338,-0.6338,-0.5157,-0.6712,0.0,0.0,0.0,0.0,0.0,0.0,0.0,0.0,0.0,0.0,0.0,0.0,0.0,0.0,0.0,0.0,0.0,0.0,0.0,0.0,0.0,0.0,0.0,0.0,0.0,0.0,0.0,-1.3324,-1.3106,-1.2636,-1.2309,-1.1933,-1.1606,-1.1724,-1.1792,-1.1792,-1.2187,-1.2412,-1.2412,-1.2734,-1.2881,-1.2881,-1.2881,-1.2881,-1.2881,-1.2881,-1.2098,-1.0813,-1.0813,-1.0312,-0.9458,-0.9008,-0.8804,-0.8804,-0.8804,-0.8858,-0.8918,-0.8838,-0.9105,-0.9416,-0.9385,-0.976,-1.0241,-1.0241,-1.0388,-1.0498,-0.9849,-0.8877,-0.7702,-0.647,-0.5905,-0.5674,-0.5776,-0.5952,-0.6125,-0.6237,-0.6338,-0.6338,-0.6338,-0.6338,-0.6338,-0.6338,-0.6338,-0.6338,-0.6338,-0.6338,-0.6338,-0.6338,-0.6338,-0.6338,-0.6338,-0.6338,-0.6338,-0.6338,-0.6338,-0.6338,-0.6338,-0.6338,-0.6338,-0.6338,-0.6338,-0.6338,-0.6338,-0.6338,-0.6338,-0.6338,-0.6338,-0.6338,-0.6338,-0.6271,-0.596,0.0,0.0,0.0,0.0,0.0,0.0,0.0,-0.8089,0.0,0.0,0.0,0.0,0.0,0.0,0.0,0.0,0.0,0.0,0.0,0.0,0.0,0.0,0.0,0.0,0.0,-1.3914,-1.3689,-1.3105,-1.3066,-1.2821,-1.2207,-1.1897,-1.1542,-1.1067,-1.1243,-1.1332,-1.1332,-1.1728,-1.1953,-1.1953,-1.2207,-1.2432,-1.2607,-1.2607,-1.2705,-1.2881,-1.2881,-1.2098,-1.0813,-1.0813,-1.0269,-0.9361,-0.8956,-0.8804,-0.8804,-0.8804,-0.8804,-0.8804,-0.8804,-0.8998,-0.9183,-0.9183,-0.9582,-1.0114,-1.0114,-1.0321,-1.0434,-0.953,-0.842,-0.7111,-0.5752,-0.5474,-0.561,-0.5694,-0.5827,-0.5976,-0.6132,-0.6166,-0.6183,-0.6247,-0.6338,-0.6338,-0.6338,-0.6338,-0.6338,-0.6338,-0.6338,-0.6338,-0.6338,-0.6338,-0.6338,-0.6338,-0.6338,-0.6338,-0.6338,-0.6338,-0.6338,-0.6338,-0.6338,-0.6338,-0.6338,-0.6338,-0.6338,-0.6338,-0.6338,-0.6338,-0.6338,-0.6338,-0.6338,-0.6338,-0.6274,-0.6285,-0.7493,-0.7493,0.0,0.0,0.0,0.0,-0.8022,-0.7751,0.0,0.0,0.0,0.0,0.0,0.0,0.0,0.0,0.0,0.0,0.0,0.0,0.0,0.0,0.0,0.0,-1.2519,-1.2495,-1.233,-1.1993,-1.1957,-1.1726,-1.1196,-1.1132,-1.0867,-1.039,-1.0685,-1.084,-1.084,-1.127,-1.1528,-1.1528,-1.1577,-1.1797,-1.218,-1.218,-1.2471,-1.2881,-1.2881,-1.2098,-1.0813,-1.0813,-1.002,-0.8804,-0.8804,-0.8804,-0.8804,-0.8804,-0.8804,-0.8804,-0.8804,-0.8978,-0.9137,-0.9137,-0.9593,-1.0067,-1.0067,-1.0232,-1.0238,-0.9268,-0.7832,-0.6396,-0.5624,-0.546,-0.5569,-0.5586,-0.5688,-0.582,-0.5973,-0.6006,-0.6044,-0.6183,-0.6237,-0.6338,-0.6338,-0.6338,-0.6338,-0.6338,-0.6338,-0.6338,-0.6338,-0.6338,-0.6338,-0.6338,-0.6338,-0.6338,-0.6338,-0.6338,-0.6338,-0.6338,-0.6338,-0.6338,-0.6338,-0.6338,-0.6338,-0.6338,-0.6338,-0.6251,-0.6237,-0.6254,-0.6264,-0.6264,-0.6274,-0.6288,-0.8114,-0.8114,-0.8026,-0.7676,0.0,0.0,-0.7112,-0.7187,0.0,0.0,0.0,0.0,0.0,0.0,0.0,0.0,0.0,0.0,0.0,0.0,0.0,0.0,0.0,0.0,-1.2386,-1.2436,-1.2543,-1.2906,-1.2943,-1.272,-1.2246,-1.1847,-1.1394,-1.0867,-1.0585,-1.04,-1.04,-1.083,-1.1035,-1.1035,-1.1439,-1.1797,-1.218,-1.218,-1.2471,-1.2881,-1.2881,-1.2098,-1.0813,-1.0813,-1.002,-0.8804,-0.8804,-0.8804,-0.8804,-0.8804,-0.8804,-0.8804,-0.8804,-0.8844,-0.8891,-0.8891,-0.9285,-0.9766,-0.9766,-0.9646,-0.9204,-0.7632,-0.6465,-0.562,-0.5428,-0.5452,-0.5437,-0.5559,-0.561,-0.5671,-0.5817,-0.5844,-0.5854,-0.5884,-0.6091,-0.6338,-0.6338,-0.6338,-0.6338,-0.6338,-0.6338,-0.6338,-0.6338,-0.6338,-0.6338,-0.6338,-0.6338,-0.6338,-0.6338,-0.6338,-0.6338,-0.6338,-0.6338,-0.6338,-0.6338,-0.6338,-0.6338,-0.6338,-0.6338,-0.62,-0.6074,-0.621,-0.6274,-0.6274,-0.6288,-0.6305,-0.8688,-0.8688,-0.8625,-0.8324,0.0,0.0,0.0,0.0,0.0,0.0,0.0,0.0,0.0,0.0,0.0,0.0,0.0,0.0,0.0,0.0,0.0,0.0,0.0,0.0,-1.1977,-1.2002,-1.2228,-1.2747,-1.2785,-1.2728,-1.252,-1.2282,-1.1799,-1.1008,-1.0753,-1.0544,-1.0283,-1.0488,-1.0596,-1.0596,-1.082,-1.1152,-1.1582,-1.1797,-1.2139,-1.2521,-1.2415,-1.1783,-1.0762,-1.0415,-0.9718,-0.8804,-0.8804,-0.8804,-0.8804,-0.8804,-0.8804,-0.8804,-0.8804,-0.8804,-0.8804,-0.8804,-0.9105,-0.9492,-0.9639,-0.9224,-0.8355,-0.7046,-0.6075,-0.5428,-0.5428,-0.5428,-0.5449,-0.5457,-0.5477,-0.5515,-0.5664,-0.5694,-0.5718,-0.5786,-0.5925,-0.6054,-0.6132,-0.6081,-0.6057,-0.6135,-0.6081,-0.603,-0.603,-0.603,-0.603,-0.603,-0.603,-0.603,-0.603,-0.603,-0.603,-0.603,-0.603,-0.603,-0.603,-0.603,-0.603,-0.603,-0.6115,-0.6081,-0.6002,-0.6179,-0.6259,-0.6162,-0.6266,-0.6325,0.0,0.0,0.0,0.0,0.0,-0.8248,0.0,0.0,0.0,0.0,0.0,0.0,0.0,0.0,0.0,0.0,0.0,0.0,0.0,0.0,0.0,0.0,0.0,0.0,-1.1399,-1.1425,-1.165,-1.2215,-1.2153,-1.2205,-1.247,-1.2318,-1.1879,-1.1159,-1.0981,-1.0687,-1.0283,-1.0283,-1.0283,-1.0283,-1.0283,-1.0508,-1.0918,-1.1279,-1.1719,-1.22,-1.1822,-1.1347,-1.0771,-1.0064,-0.9413,-0.8804,-0.8804,-0.8804,-0.8804,-0.8804,-0.8804,-0.8804,-0.8804,-0.8804,-0.8804,-0.8804,-0.9005,-0.925,-0.9479,-0.879,-0.7708,-0.6902,-0.6075,-0.5428,-0.5428,-0.5428,-0.5428,-0.5428,-0.5428,-0.5463,-0.5518,-0.5545,-0.5579,-0.5694,-0.5718,-0.5772,-0.5956,-0.5884,-0.5844,-0.5966,-0.5881,-0.58,-0.58,-0.58,-0.58,-0.58,-0.58,-0.58,-0.58,-0.58,-0.58,-0.58,-0.58,-0.58,-0.58,-0.58,-0.5803,-0.5806,-0.596,-0.5806,-0.5415,-0.6032,-0.6193,-0.6017,-0.5355,-0.5053,0.0,0.0,0.0,0.0,-0.8688,0.0,0.0,0.0,0.0,0.0,0.0,0.0,0.0,0.0,0.0,0.0,0.0,0.0,0.0,0.0,0.0,0.0,0.0,0.0,0.0,-1.0794,-1.106,-1.1638,-1.1211,-1.1357,-1.2344,-1.1559,-1.1268,-1.1689,-1.084,-1.0351,-1.0283,-1.0283,-1.0283,-1.0283,-1.0283,-1.0508,-1.0908,-1.0967,-1.1436,-1.218,-1.1536,-1.1111,-1.0771,-1.0064,-0.9413,-0.8804,-0.8804,-0.8804,-0.8804,-0.8804,-0.8804,-0.8804,-0.8804,-0.8804,-0.8804,-0.8804,-0.9005,-0.9171,-0.8974,-0.8303,-0.7453,-0.6867,-0.6075,-0.5428,-0.5428,-0.5428,-0.5428,-0.5428,-0.5428,-0.5432,-0.5452,-0.5456,-0.5459,-0.541,-0.5476,-0.5501,-0.5779,-0.5813,-0.5806,-0.5823,-0.5813,-0.58,-0.58,-0.58,-0.58,-0.58,-0.58,-0.58,-0.58,-0.58,-0.58,-0.58,-0.58,-0.58,-0.58,-0.58,-0.5878,-0.5967,-0.5967,-0.5176,-0.3436,-0.5374,-0.6261,-0.6193,-0.2416,-0.0742,0.0,0.0,0.0,0.0,0.0,0.0,-0.7313,0.0,-0.6956,0.0,0.0,0.0,0.0,0.0,0.0,0.0,0.0,0.0,0.0,0.0,0.0,0.0,0.0,0.0,0.0,0.0,0.0,0.0,-1.0558,-1.0747,-1.1876,-1.1526,-1.13,-1.1279,-1.0863,-1.0535,-1.0312,-1.0283,-1.0283,-1.0283,-1.0283,-1.0371,-1.0557,-1.0791,-1.1027,-1.125,-1.081,-1.0491,-1.0167,-0.951,-0.9061,-0.8804,-0.8804,-0.8804,-0.8804,-0.8804,-0.8804,-0.8804,-0.8804,-0.8804,-0.8804,-0.8804,-0.9005,-0.9032,-0.8114,-0.7644,-0.7298,-0.6221,-0.5686,-0.5428,-0.5428,-0.5428,-0.5428,-0.5428,-0.5428,-0.5428,-0.5428,-0.5428,-0.5428,-0.5428,-0.5428,-0.5466,-0.5525,-0.5545,-0.5576,-0.5664,-0.5603,-0.5545,-0.5545,-0.5545,-0.5545,-0.5545,-0.5545,-0.5545,-0.5545,-0.5545,-0.5545,-0.5545,-0.5545,-0.5545,-0.5545,-0.5552,-0.5628,-0.5634,-0.5648,-0.5274,-0.4455,-0.5662,-0.613,-0.57,-0.1772,-0.0,-0.9905,0.0,0.0,0.0,0.0,0.0,0.0,0.0,0.0,0.0,0.0,0.0,0.0,0.0,0.0,0.0,0.0,0.0,0.0,0.0,0.0,0.0,0.0,0.0,0.0,0.0,0.0,0.0,0.0,-0.9966,-1.1156,-1.1099,-1.0931,-1.0732,-1.0505,-1.0287,-1.0098,-1.0107,-1.0166,-1.0283,-1.0283,-1.0283,-1.0293,-1.0435,-1.0498,-1.0427,-0.9979,-0.9766,-0.9636,-0.9026,-0.8804,-0.8804,-0.8804,-0.8804,-0.8804,-0.8804,-0.8804,-0.8804,-0.8804,-0.8804,-0.8804,-0.8804,-0.8784,-0.8626,-0.7741,-0.729,-0.6915,-0.6017,-0.5554,-0.5428,-0.5428,-0.5428,-0.5428,-0.5428,-0.5428,-0.5428,-0.5428,-0.5428,-0.5428,-0.5428,-0.5428,-0.5428,-0.5428,-0.5428,-0.5466,-0.5511,-0.5433,-0.5428,-0.5428,-0.5428,-0.5428,-0.5428,-0.5428,-0.5428,-0.5428,-0.5428,-0.5428,-0.5428,-0.5428,-0.5428,-0.5432,-0.5372,-0.5382,-0.5386,-0.5403,-0.4934,-0.3914,-0.4336,-0.4344,-0.3864,-0.124,-0.0,0.0,0.0,0.0,-0.8587,0.0,0.0,0.0,0.0,-0.7381,0.0,0.0,0.0,0.0,0.0,0.0,0.0,0.0,0.0,0.0,0.0,0.0,0.0,0.0,0.0,0.0,0.0,-0.7768,0.0,-0.8434,-0.891,-1.018,-0.9827,-0.9814,-1.0295,-0.9509,-0.9228,-0.9612,-0.9622,-0.9863,-1.0283,-1.0283,-1.0283,-1.0283,-0.9774,-0.9754,-1.0058,-0.9156,-0.8996,-0.9373,-0.8989,-0.8804,-0.8804,-0.8804,-0.8804,-0.8804,-0.8804,-0.8804,-0.8804,-0.8804,-0.8804,-0.8804,-0.8804,-0.8328,-0.7829,-0.8207,-0.7299,-0.6136,-0.6552,-0.6075,-0.5428,-0.5428,-0.5428,-0.5428,-0.5428,-0.5428,-0.5428,-0.5428,-0.5428,-0.5428,-0.5428,-0.5428,-0.5428,-0.5428,-0.5428,-0.5428,-0.5435,-0.5432,-0.5428,-0.5428,-0.5428,-0.5428,-0.5428,-0.5428,-0.5428,-0.5428,-0.5428,-0.5428,-0.5428,-0.5428,-0.5432,-0.5376,-0.5379,-0.5389,-0.541,-0.5413,-0.3708,-0.0202,-0.0202,-0.0202,-0.0202,-0.0067,-0.0,0.0,0.0,-0.973,-0.9025,0.0,0.0,0.0,0.0,0.0,0.0,0.0,0.0,0.0,0.0,0.0,0.0,0.0,0.0,0.0,0.0,0.0,0.0,0.0,0.0,0.0,0.0,0.0,0.0,-0.7888,0.0,-0.923,-0.9119,-0.9153,-0.936,-0.9098,-0.9,-0.9209,-0.9456,-0.967,-0.9853,-1.0146,-1.0118,-0.9765,-0.9597,-0.9278,-0.8874,-0.8557,-0.8555,-0.872,-0.8579,-0.8637,-0.8804,-0.8804,-0.8804,-0.8804,-0.8804,-0.8804,-0.8804,-0.8804,-0.8804,-0.8699,-0.8215,-0.7883,-0.7601,-0.6988,-0.6409,-0.6006,-0.5853,-0.562,-0.5428,-0.5428,-0.5428,-0.5428,-0.5428,-0.5428,-0.5428,-0.5428,-0.5428,-0.5428,-0.5428,-0.5428,-0.5428,-0.5428,-0.5428,-0.5428,-0.5428,-0.5428,-0.5428,-0.5428,-0.5428,-0.5428,-0.5428,-0.5428,-0.5428,-0.5428,-0.5428,-0.5428,-0.5428,-0.5428,-0.5428,-0.5432,-0.4223,-0.362,-0.3625,-0.2421,-0.1212,-0.0,-0.0,-0.0,-0.0,-0.0,-0.0,-0.9905,-0.9905,0.0,-0.9239,-0.8849,0.0,-0.7851,0.0,-0.8001,0.0,0.0,0.0,0.0,0.0,0.0,0.0,0.0,0.0,0.0,0.0,0.0,0.0,0.0,0.0,0.0,0.0,-0.6977,-0.7447,-0.7248,0.0,0.0,-0.831,-0.8404,-0.8429,-0.8458,-0.8581,-0.8779,-0.9199,-0.9447,-0.9602,-0.9878,-0.9843,-0.9478,-0.9119,-0.8642,-0.8149,-0.8041,-0.8073,-0.8223,-0.833,-0.8544,-0.8804,-0.8804,-0.8804,-0.8804,-0.8804,-0.8804,-0.8752,-0.848,-0.8427,-0.8262,-0.7563,-0.7122,-0.6812,-0.6151,-0.5763,-0.5575,-0.5338,-0.5318,-0.5428,-0.5428,-0.5428,-0.5428,-0.5428,-0.5428,-0.5428,-0.5428,-0.5428,-0.5428,-0.5428,-0.5428,-0.5428,-0.5428,-0.5428,-0.5428,-0.5428,-0.5428,-0.5428,-0.5428,-0.5428,-0.5428,-0.5428,-0.5428,-0.5428,-0.5428,-0.5428,-0.5428,-0.5428,-0.5432,-0.5369,-0.5372,-0.4298,-0.3088,-0.1744,-0.0605,-0.0,-0.0,-0.0,-0.0,-0.0,-0.0,-0.0]},{"header":{"parameterUnit":"m.s-1","parameterCategory":1,"la1":30.6,"la2":29.2853,"lo1":-89.7004,"lo2":-87.6739,"dy":0.0162,"dx":0.0183,"nx":112,"ny":82,"refTime":"2026-03-20T12:00:00:Z","depth":0,"parameterNumber":3,"parameterNumberName":"V-component_of_WINDS"},"data":[0.0,0.0,0.0,0.0,0.0,0.0,0.0,0.0,0.0,0.0,0.0,0.0,0.0,0.0,0.0,0.0,0.0,0.0,0.0,0.0,0.0,0.0,0.0,0.0,0.0,0.0,0.0,0.0,0.0,0.0,0.0,0.0,0.0,0.0,0.0,0.0,0.0,0.0,0.0,0.0,0.0,0.0,0.0,0.0,0.0,0.0,0.0,0.0,0.0,0.0,0.0,0.0,0.0,0.0,0.0,0.0,0.0,0.0,0.0,0.0,0.0,0.0,0.0,0.0,0.0,0.0,0.0,0.0,0.0,0.0,0.0,0.0,0.0,0.0,0.0,0.0,0.0,0.0,0.0,0.0,0.0,0.0,0.0,0.0,0.0,0.0,0.0,0.0,0.0,0.0,0.0,-2.2024,-2.3382,-2.419,-2.419,-2.419,-2.3566,-2.2133,0.0,0.0,0.0,0.0,0.0,0.0,0.0,0.0,0.0,0.0,0.0,0.0,0.0,0.0,0.0,0.0,0.0,0.0,0.0,0.0,0.0,0.0,0.0,0.0,0.0,0.0,0.0,0.0,0.0,0.0,0.0,0.0,0.0,0.0,0.0,0.0,0.0,0.0,0.0,0.0,0.0,0.0,0.0,0.0,0.0,0.0,0.0,0.0,0.0,0.0,0.0,0.0,0.0,0.0,0.0,0.0,0.0,0.0,0.0,0.0,0.0,0.0,0.0,0.0,0.0,0.0,0.0,0.0,0.0,0.0,0.0,0.0,0.0,0.0,0.0,0.0,0.0,0.0,0.0,0.0,0.0,0.0,0.0,0.0,0.0,0.0,0.0,0.0,0.0,0.0,0.0,0.0,0.0,0.0,0.0,0.0,0.0,0.0,0.0,0.0,0.0,0.0,0.0,0.0,-2.0592,-2.3511,-2.4043,-2.419,-2.419,-2.419,-2.3619,-2.2253,0.0,0.0,0.0,0.0,0.0,0.0,0.0,0.0,0.0,0.0,0.0,0.0,0.0,0.0,0.0,0.0,0.0,0.0,0.0,0.0,0.0,0.0,0.0,0.0,0.0,0.0,0.0,0.0,0.0,0.0,0.0,0.0,0.0,0.0,0.0,0.0,0.0,0.0,0.0,0.0,0.0,0.0,0.0,0.0,0.0,0.0,0.0,0.0,0.0,0.0,0.0,0.0,0.0,0.0,0.0,0.0,0.0,0.0,0.0,0.0,0.0,0.0,0.0,0.0,0.0,0.0,0.0,0.0,0.0,0.0,0.0,0.0,0.0,0.0,0.0,0.0,0.0,0.0,0.0,0.0,0.0,0.0,0.0,0.0,0.0,0.0,0.0,0.0,0.0,0.0,0.0,0.0,0.0,0.0,0.0,0.0,0.0,0.0,0.0,0.0,0.0,0.0,0.0,-2.0005,-2.1033,-2.3896,-2.419,-2.419,-2.419,-2.4303,-2.3737,-2.2294,-2.1853,0.0,0.0,0.0,0.0,0.0,0.0,0.0,0.0,0.0,0.0,0.0,0.0,0.0,0.0,0.0,0.0,0.0,0.0,0.0,0.0,0.0,0.0,0.0,0.0,0.0,0.0,0.0,0.0,0.0,0.0,0.0,0.0,0.0,0.0,0.0,0.0,0.0,0.0,0.0,0.0,0.0,0.0,0.0,0.0,0.0,0.0,0.0,0.0,0.0,0.0,0.0,0.0,0.0,0.0,0.0,0.0,0.0,0.0,0.0,0.0,0.0,0.0,0.0,0.0,0.0,0.0,0.0,0.0,0.0,0.0,0.0,0.0,0.0,0.0,0.0,0.0,0.0,0.0,0.0,0.0,0.0,0.0,0.0,0.0,0.0,0.0,0.0,0.0,0.0,0.0,0.0,0.0,0.0,0.0,0.0,0.0,0.0,0.0,0.0,0.0,0.0,0.0,-2.1308,-2.2097,-2.4006,-2.419,-2.4209,-2.4284,-2.4225,-2.3643,-2.2356,-2.1229,0.0,0.0,0.0,0.0,0.0,0.0,0.0,0.0,0.0,0.0,0.0,0.0,0.0,0.0,0.0,0.0,0.0,0.0,0.0,0.0,0.0,0.0,0.0,0.0,0.0,0.0,0.0,0.0,0.0,0.0,0.0,0.0,0.0,0.0,0.0,0.0,0.0,0.0,0.0,0.0,0.0,0.0,0.0,0.0,0.0,0.0,0.0,0.0,0.0,0.0,0.0,0.0,0.0,0.0,0.0,0.0,0.0,0.0,0.0,0.0,0.0,0.0,0.0,0.0,0.0,0.0,0.0,0.0,0.0,0.0,0.0,0.0,0.0,0.0,0.0,0.0,0.0,0.0,0.0,0.0,0.0,0.0,0.0,0.0,0.0,0.0,0.0,0.0,0.0,0.0,0.0,0.0,0.0,0.0,0.0,0.0,0.0,0.0,0.0,0.0,0.0,0.0,-2.2079,-2.4006,-2.4171,-2.419,-2.4266,-2.4461,-2.3754,-2.3072,-2.2509,-2.02,0.0,0.0,0.0,0.0,0.0,0.0,0.0,0.0,0.0,0.0,0.0,0.0,0.0,0.0,0.0,0.0,0.0,0.0,0.0,0.0,0.0,0.0,0.0,0.0,0.0,0.0,0.0,0.0,0.0,0.0,0.0,0.0,0.0,0.0,0.0,0.0,0.0,0.0,0.0,0.0,0.0,0.0,0.0,0.0,0.0,0.0,0.0,0.0,0.0,0.0,0.0,0.0,0.0,0.0,0.0,0.0,0.0,0.0,0.0,0.0,0.0,0.0,0.0,0.0,0.0,0.0,0.0,0.0,0.0,0.0,0.0,0.0,0.0,0.0,0.0,0.0,0.0,0.0,0.0,0.0,0.0,0.0,0.0,0.0,0.0,0.0,0.0,0.0,0.0,0.0,0.0,0.0,0.0,0.0,0.0,0.0,0.0,0.0,0.0,0.0,0.0,0.0,-2.129,-2.3088,0.0,-2.419,-2.4284,-2.4478,-2.431,-2.3719,-2.2582,0.0,0.0,0.0,0.0,0.0,0.0,0.0,0.0,0.0,0.0,0.0,0.0,0.0,0.0,0.0,0.0,0.0,0.0,0.0,0.0,0.0,0.0,0.0,0.0,0.0,0.0,0.0,0.0,0.0,0.0,0.0,0.0,0.0,0.0,0.0,0.0,0.0,0.0,0.0,0.0,0.0,0.0,0.0,0.0,0.0,0.0,0.0,0.0,0.0,0.0,0.0,0.0,0.0,0.0,0.0,0.0,0.0,0.0,0.0,0.0,0.0,0.0,0.0,0.0,0.0,0.0,0.0,0.0,0.0,0.0,0.0,0.0,0.0,0.0,0.0,0.0,0.0,0.0,0.0,0.0,0.0,0.0,0.0,0.0,0.0,0.0,0.0,0.0,0.0,0.0,0.0,0.0,0.0,0.0,0.0,0.0,0.0,0.0,0.0,0.0,0.0,0.0,-1.9161,-2.1198,-2.2978,0.0,-2.419,-2.4303,-2.4559,-2.4471,-2.3757,-2.2284,0.0,0.0,0.0,0.0,0.0,0.0,0.0,0.0,0.0,0.0,0.0,0.0,0.0,0.0,0.0,0.0,0.0,0.0,0.0,0.0,0.0,0.0,0.0,0.0,0.0,0.0,0.0,0.0,0.0,0.0,0.0,0.0,0.0,0.0,0.0,0.0,0.0,0.0,0.0,0.0,0.0,0.0,0.0,0.0,0.0,0.0,0.0,0.0,0.0,0.0,0.0,0.0,0.0,0.0,0.0,0.0,0.0,0.0,0.0,0.0,0.0,0.0,0.0,0.0,0.0,0.0,0.0,0.0,0.0,0.0,0.0,0.0,0.0,0.0,0.0,0.0,0.0,0.0,0.0,0.0,0.0,0.0,0.0,0.0,0.0,0.0,0.0,0.0,0.0,0.0,0.0,0.0,0.0,0.0,0.0,0.0,0.0,0.0,0.0,0.0,0.0,0.0,-1.9305,-2.2171,-2.419,-2.419,-2.419,-2.4357,-2.476,-2.4002,-2.2924,0.0,0.0,0.0,0.0,0.0,0.0,0.0,0.0,0.0,0.0,0.0,0.0,0.0,0.0,0.0,0.0,0.0,0.0,0.0,0.0,0.0,0.0,0.0,0.0,0.0,0.0,0.0,0.0,0.0,0.0,0.0,0.0,0.0,0.0,0.0,0.0,0.0,0.0,0.0,0.0,0.0,0.0,0.0,0.0,0.0,0.0,0.0,0.0,0.0,0.0,0.0,0.0,0.0,0.0,0.0,0.0,0.0,0.0,0.0,0.0,0.0,0.0,0.0,0.0,0.0,0.0,0.0,0.0,0.0,0.0,0.0,0.0,0.0,0.0,0.0,0.0,0.0,0.0,0.0,0.0,0.0,0.0,0.0,0.0,0.0,0.0,0.0,0.0,0.0,0.0,0.0,0.0,0.0,0.0,0.0,0.0,0.0,0.0,0.0,0.0,0.0,0.0,0.0,-1.9305,-2.2171,-2.419,-2.419,-2.419,-2.4357,-2.476,-2.4002,-2.2924,-2.1583,0.0,0.0,0.0,0.0,0.0,0.0,0.0,0.0,0.0,0.0,0.0,0.0,0.0,0.0,0.0,0.0,0.0,0.0,0.0,0.0,0.0,0.0,0.0,0.0,0.0,0.0,0.0,0.0,0.0,0.0,0.0,0.0,0.0,0.0,0.0,0.0,0.0,0.0,0.0,0.0,0.0,0.0,0.0,0.0,0.0,0.0,0.0,0.0,0.0,0.0,0.0,0.0,0.0,0.0,0.0,0.0,0.0,0.0,0.0,0.0,0.0,0.0,0.0,0.0,0.0,0.0,0.0,0.0,0.0,0.0,0.0,0.0,0.0,0.0,0.0,0.0,0.0,0.0,0.0,0.0,0.0,0.0,0.0,0.0,0.0,0.0,0.0,0.0,0.0,0.0,0.0,0.0,0.0,0.0,0.0,0.0,0.0,0.0,0.0,0.0,0.0,0.0,-1.9748,-2.2373,-2.419,-2.419,-2.419,-2.4339,-2.4654,-2.4275,-2.3259,-2.1484,0.0,0.0,0.0,0.0,0.0,0.0,0.0,0.0,0.0,0.0,0.0,0.0,0.0,0.0,0.0,0.0,0.0,0.0,0.0,0.0,0.0,0.0,0.0,0.0,0.0,0.0,0.0,0.0,0.0,0.0,0.0,0.0,0.0,0.0,0.0,0.0,0.0,0.0,0.0,0.0,0.0,0.0,0.0,0.0,0.0,0.0,0.0,0.0,0.0,0.0,0.0,0.0,0.0,0.0,0.0,0.0,0.0,0.0,0.0,0.0,0.0,0.0,0.0,0.0,0.0,0.0,0.0,0.0,0.0,0.0,0.0,0.0,0.0,0.0,0.0,0.0,0.0,0.0,0.0,0.0,0.0,0.0,0.0,0.0,0.0,0.0,0.0,0.0,0.0,0.0,0.0,0.0,0.0,0.0,0.0,0.0,0.0,0.0,0.0,0.0,0.0,0.0,-2.0393,-2.2666,-2.419,-2.419,-2.419,-2.4284,-2.4478,-2.461,-2.3674,-2.1342,0.0,0.0,0.0,0.0,0.0,0.0,0.0,0.0,0.0,0.0,0.0,0.0,0.0,0.0,0.0,0.0,0.0,0.0,0.0,0.0,0.0,0.0,0.0,0.0,0.0,0.0,0.0,0.0,0.0,0.0,0.0,0.0,0.0,0.0,0.0,0.0,0.0,0.0,0.0,0.0,0.0,0.0,0.0,0.0,0.0,0.0,0.0,0.0,0.0,0.0,0.0,0.0,0.0,0.0,0.0,0.0,0.0,0.0,0.0,0.0,-1.9179,0.0,0.0,0.0,0.0,0.0,0.0,0.0,0.0,0.0,0.0,0.0,0.0,0.0,0.0,0.0,0.0,0.0,0.0,0.0,0.0,0.0,0.0,0.0,0.0,0.0,0.0,0.0,0.0,0.0,0.0,0.0,0.0,0.0,0.0,0.0,0.0,0.0,0.0,0.0,0.0,0.0,-2.0393,-2.2666,-2.419,-2.419,-2.419,-2.4284,-2.4478,-2.4069,-2.3037,-2.1304,-1.9988,0.0,0.0,0.0,0.0,0.0,0.0,0.0,0.0,0.0,0.0,0.0,0.0,0.0,0.0,0.0,0.0,0.0,0.0,0.0,0.0,0.0,0.0,0.0,0.0,0.0,0.0,0.0,0.0,0.0,0.0,0.0,0.0,0.0,0.0,0.0,0.0,0.0,0.0,0.0,0.0,0.0,0.0,0.0,0.0,0.0,0.0,0.0,0.0,0.0,0.0,0.0,0.0,0.0,0.0,0.0,0.0,0.0,0.0,0.0,0.0,-2.0831,0.0,0.0,0.0,0.0,0.0,0.0,0.0,0.0,0.0,0.0,0.0,0.0,0.0,0.0,0.0,0.0,0.0,0.0,0.0,0.0,0.0,0.0,0.0,0.0,0.0,0.0,0.0,0.0,0.0,0.0,0.0,0.0,0.0,0.0,0.0,0.0,0.0,0.0,0.0,0.0,-2.0978,-2.2923,-2.419,-2.419,-2.419,-2.4247,-2.4358,-2.4214,-2.3596,-2.2376,-2.0986,0.0,0.0,0.0,0.0,0.0,0.0,0.0,0.0,0.0,0.0,0.0,0.0,0.0,0.0,0.0,0.0,0.0,0.0,0.0,0.0,0.0,0.0,0.0,0.0,0.0,0.0,0.0,0.0,0.0,0.0,0.0,0.0,0.0,0.0,0.0,0.0,0.0,0.0,0.0,0.0,0.0,0.0,0.0,0.0,0.0,0.0,0.0,0.0,0.0,0.0,0.0,0.0,0.0,-2.2721,-2.3529,-2.4832,-2.4832,-2.5181,-2.566,-2.2813,-2.2281,-2.3364,-2.2538,0.0,0.0,0.0,0.0,0.0,0.0,0.0,0.0,0.0,0.0,0.0,0.0,0.0,0.0,0.0,0.0,0.0,0.0,0.0,0.0,0.0,0.0,0.0,0.0,-2.2721,-2.2428,-1.9583,0.0,0.0,0.0,0.0,0.0,0.0,0.0,0.0,0.0,0.0,0.0,-2.1785,-2.329,-2.419,-2.419,-2.419,-2.419,-2.419,-2.4545,-2.4388,-2.3554,-2.2359,-2.0999,0.0,0.0,0.0,0.0,0.0,0.0,0.0,0.0,0.0,0.0,0.0,0.0,0.0,0.0,0.0,0.0,0.0,0.0,0.0,0.0,0.0,0.0,0.0,0.0,0.0,0.0,0.0,0.0,0.0,0.0,0.0,0.0,-1.4111,-1.5727,0.0,0.0,0.0,0.0,0.0,0.0,0.0,0.0,0.0,0.0,0.0,0.0,0.0,-2.1694,-2.2501,-2.3896,-2.4723,-2.4944,-2.6337,-2.7108,-2.7328,-2.7328,-2.7383,-2.742,-2.63,0.0,-2.5035,-2.4208,0.0,0.0,0.0,0.0,0.0,0.0,0.0,0.0,0.0,0.0,0.0,0.0,0.0,0.0,0.0,0.0,0.0,0.0,0.0,0.0,0.0,0.0,-2.3878,-2.3878,-2.3951,-2.3731,0.0,-2.1291,-2.0042,-1.9014,-1.8353,0.0,0.0,0.0,0.0,0.0,0.0,0.0,-2.263,-2.3639,-2.419,-2.419,-2.419,-2.419,-2.419,-2.441,-2.4236,-2.354,-2.279,-2.2009,-2.1188,-1.9665,0.0,0.0,0.0,0.0,0.0,0.0,0.0,0.0,0.0,0.0,0.0,0.0,0.0,0.0,0.0,0.0,0.0,0.0,0.0,0.0,0.0,0.0,0.0,0.0,0.0,0.0,0.0,0.0,0.0,-1.4431,-1.6399,-1.6657,-1.7128,-1.7155,0.0,0.0,0.0,0.0,0.0,0.0,0.0,0.0,0.0,-2.3199,-2.3602,-2.4428,-2.5695,-2.6392,-2.72,-2.8099,-2.8815,-2.9384,-2.9806,-2.9806,-2.9806,-2.9787,-2.9439,-2.8833,-2.797,-2.6245,-2.5071,-2.43,0.0,0.0,0.0,0.0,-2.3823,-2.3897,-2.4337,-2.4245,-2.3841,-2.3309,0.0,0.0,0.0,0.0,0.0,0.0,0.0,0.0,0.0,0.0,-2.4869,-2.4869,-2.4869,-2.4649,-2.3859,-2.3107,-2.2061,0.0,-2.0097,-1.9776,-1.849,0.0,0.0,0.0,0.0,-2.1734,-2.2868,-2.3694,-2.419,-2.419,-2.419,-2.419,-2.419,-2.4393,-2.4377,-2.4083,-2.3417,-2.2924,-2.2635,-2.1559,-2.0346,0.0,0.0,0.0,0.0,0.0,0.0,0.0,0.0,0.0,0.0,0.0,0.0,0.0,0.0,0.0,0.0,0.0,0.0,0.0,0.0,0.0,0.0,0.0,0.0,0.0,0.0,0.0,0.0,-1.6556,-1.8262,-1.7862,-1.8886,-1.9051,0.0,0.0,0.0,0.0,0.0,0.0,-2.2648,-2.2905,-2.3933,-2.5954,-2.6209,-2.6979,-2.8393,-2.8613,-2.931,-3.0503,-3.0723,-3.1127,-3.1715,-3.1715,-3.1715,-3.1696,-3.1476,-3.1054,-3.0356,-2.8356,-2.7053,-2.63,-2.608,-2.564,-2.5162,-2.5548,-2.5844,-2.6082,-2.6465,-2.6741,-2.6704,-2.5511,-2.4979,-2.4465,-2.263,0.0,0.0,0.0,0.0,-2.4061,-2.4667,-2.5254,-2.5695,-2.5695,-2.5695,-2.5474,-2.4667,-2.4502,-2.3896,0.0,-2.1804,-2.1561,-1.987,0.0,0.0,0.0,0.0,-2.2504,-2.3217,-2.3823,-2.419,-2.419,-2.419,-2.419,-2.419,-2.4339,-2.4462,-2.4495,-2.4027,-2.3775,-2.3832,-2.3139,-2.2186,-2.101,0.0,0.0,0.0,0.0,0.0,0.0,0.0,0.0,0.0,0.0,0.0,0.0,0.0,0.0,0.0,0.0,0.0,0.0,0.0,0.0,0.0,0.0,0.0,0.0,0.0,0.0,0.0,0.0,0.0,-2.0228,-2.0393,0.0,0.0,0.0,0.0,-2.1564,-2.307,-2.4318,-2.5182,-2.5933,-2.6759,-2.764,-2.8429,-2.9237,-3.0063,-3.0834,-3.1256,-3.1347,-3.2118,-3.2504,-3.254,-3.254,-3.254,-3.2504,-3.1733,-3.1366,-3.1256,-3.0375,-2.9549,-2.8737,-2.797,-2.764,-2.753,-2.6814,-2.7016,-2.7567,-2.6851,-2.7108,-2.7714,-2.764,-2.7108,-2.6465,-2.6337,-2.575,0.0,0.0,-2.6392,-2.6429,-2.6484,-2.6521,-2.6539,-2.6539,-2.6539,-2.6319,-2.5513,-2.5348,-2.509,0.0,-2.3437,-2.2905,-2.2776,0.0,-2.195,-2.2703,-2.2887,-2.3235,-2.4043,-2.4171,-2.419,-2.419,-2.419,-2.419,-2.419,-2.4209,-2.4303,-2.4495,-2.4474,-2.4535,-2.4733,-2.3922,-2.3498,-2.3614,-2.1211,0.0,0.0,0.0,0.0,0.0,0.0,0.0,0.0,0.0,0.0,0.0,0.0,0.0,0.0,0.0,0.0,0.0,0.0,0.0,0.0,0.0,0.0,0.0,0.0,0.0,0.0,0.0,0.0,-2.1235,-2.1804,0.0,-2.1712,-2.2409,-2.3217,-2.4062,-2.5126,-2.6319,-2.7658,-2.7989,-2.876,-3.0063,-3.0393,-3.0925,-3.1751,-3.2027,-3.243,-3.2944,-3.3238,-3.3366,-3.3366,-3.3366,-3.3366,-3.3366,-3.3073,-3.2944,-3.2908,-3.2632,-3.1733,-3.0522,-3.0228,-3.0118,-3.0081,-2.9787,-2.9861,-3.0063,-2.9787,-2.9879,-3.0026,-2.9512,-2.8815,-2.8062,-2.753,-2.7163,-2.6888,-2.6667,-2.6612,-2.6722,-2.7236,-2.7365,-2.7365,-2.7365,-2.7365,-2.7145,-2.6355,-2.5768,-2.5329,-2.5035,-2.4318,-2.364,-2.3194,-2.3356,-2.3447,-2.3172,-2.3615,-2.4025,-2.4172,-2.419,-2.419,-2.419,-2.419,-2.419,-2.419,-2.419,-2.4228,-2.4303,-2.4303,-2.4358,-2.441,-2.4373,-2.4119,-2.3625,-2.2408,-2.0877,0.0,0.0,0.0,0.0,0.0,0.0,0.0,0.0,0.0,0.0,0.0,0.0,0.0,0.0,0.0,0.0,0.0,0.0,0.0,0.0,0.0,0.0,0.0,0.0,0.0,0.0,-2.1826,-2.2538,-2.3566,-2.4116,-2.3841,-2.4538,-2.5346,-2.6156,-2.6961,-2.8007,-2.9347,-2.9659,-3.043,-3.1751,-3.1806,-3.2192,-3.2999,-3.2999,-3.3275,-3.3807,-3.4082,-3.4064,-3.3807,-3.4082,-3.4064,-3.3807,-3.3807,-3.3807,-3.3807,-3.3807,-3.3164,-3.2173,-3.1898,-3.1806,-3.177,-3.1494,-3.1568,-3.1806,-3.1806,-3.1623,-3.1311,-3.0779,-3.0246,-2.9714,-2.9182,-2.8998,-2.8888,-2.8374,-2.8227,-2.8282,-2.8539,-2.8613,-2.8539,-2.8264,-2.8209,-2.7989,-2.7181,-2.6576,-2.6137,-2.586,-2.4942,-2.4044,-2.3618,-2.4004,-2.4207,-2.3617,-2.4023,-2.4339,-2.4209,-2.419,-2.419,-2.419,-2.419,-2.419,-2.419,-2.419,-2.419,-2.419,-2.419,-2.419,-2.419,-2.4528,-2.4467,-2.3945,-2.3195,-2.1696,-1.9439,0.0,0.0,0.0,0.0,0.0,0.0,0.0,0.0,0.0,0.0,0.0,0.0,0.0,0.0,0.0,0.0,0.0,0.0,0.0,0.0,0.0,0.0,0.0,-2.0365,-2.2369,-2.3834,-2.4206,-2.564,-2.63,-2.5529,-2.6209,-2.7016,-2.7805,-2.859,-2.9439,-3.0228,-3.0999,-3.1806,-3.2614,-3.2651,-3.3018,-3.3788,-3.3807,-3.3807,-3.3844,-3.4633,-3.4614,-3.3899,-3.4642,-3.4578,-3.3844,-3.3807,-3.3807,-3.3807,-3.3807,-3.3807,-3.3715,-3.2944,-3.2651,-3.254,-3.1751,-3.1971,-3.2651,-3.2651,-3.2137,-3.1458,-3.1458,-3.1458,-3.1458,-3.1439,-3.1439,-3.1421,-3.1403,-3.1384,-3.1219,-3.0448,-3.0228,-3.0008,-2.9237,-2.9012,-2.8796,-2.8007,-2.7824,-2.7567,-2.6796,-2.5364,-2.4263,-2.4263,-2.4263,-2.4263,-2.4263,-2.4245,0.0,-2.4245,-2.4208,-2.419,-2.419,-2.419,-2.419,-2.419,-2.419,-2.419,-2.419,-2.419,-2.419,-2.419,-2.441,-2.4607,-2.4818,-2.3482,-2.2004,-2.0389,0.0,0.0,0.0,0.0,0.0,0.0,0.0,0.0,0.0,0.0,0.0,0.0,0.0,0.0,0.0,0.0,0.0,0.0,0.0,0.0,0.0,0.0,-2.0813,-2.1426,-2.2772,-2.4147,-2.5348,-2.6151,-2.6637,-2.6703,-2.7707,-2.8534,-2.9087,-3.0124,-3.1091,-3.1916,-3.2155,-3.2651,-3.344,-3.3476,-3.3587,-3.3807,-3.3807,-3.41,-3.4688,-3.488,-3.5238,-3.5605,-3.5202,-3.4862,-3.4651,-3.4064,-3.3807,-3.3807,-3.3807,-3.3807,-3.377,-3.3568,-3.3476,-3.344,-3.322,-3.3275,-3.3476,-3.3476,-3.333,-3.3128,-3.3128,-3.3128,-3.3036,-3.2449,-3.2284,-3.2155,-3.1549,-3.1384,-3.1347,-3.1127,-3.0632,-3.0136,-2.9934,-2.9439,-2.892,-2.8723,-2.8209,-2.7732,-2.7512,-2.6649,-2.5952,-2.5952,-2.5952,-2.5952,-2.5952,-2.5438,0.0,-2.5072,-2.4557,-2.419,-2.419,-2.419,-2.419,-2.419,-2.419,-2.419,-2.419,-2.419,-2.419,-2.419,-2.4545,-2.4855,-2.5149,-2.3602,-2.2562,0.0,0.0,0.0,0.0,0.0,0.0,0.0,0.0,0.0,0.0,0.0,0.0,0.0,0.0,0.0,0.0,0.0,0.0,0.0,0.0,0.0,0.0,-2.0755,-2.2175,-2.329,-2.419,-2.5131,-2.6165,-2.6795,-2.7349,-2.7897,-2.8603,-2.9242,-2.9776,-3.0764,-3.1572,-3.2043,-3.2546,-3.3076,-3.3532,-3.3707,-3.3807,-3.3807,-3.4137,-3.4559,-3.5009,-3.5716,-3.6138,-3.6285,-3.6119,-3.5862,-3.5532,-3.5055,-3.4853,-3.4853,-3.4853,-3.4853,0.0,0.0,0.0,0.0,0.0,-3.3807,-3.3807,-3.3807,-3.3807,-3.3807,-3.3807,-3.3807,-3.3715,-3.3238,-3.3109,-3.3018,-3.254,-3.2412,-3.232,-3.199,-3.1311,-3.0613,-3.0283,-2.9604,-2.8994,-2.8994,-2.8631,-2.8301,-2.8301,-2.7934,0.0,-2.7622,-2.7053,-2.6612,-2.6612,-2.5915,-2.5403,-2.5403,-2.4685,-2.419,-2.419,-2.419,-2.419,-2.419,-2.419,0.0,0.0,0.0,-2.4247,-2.4321,-2.4623,0.0,0.0,0.0,0.0,0.0,0.0,0.0,0.0,-2.1773,-2.1889,0.0,0.0,0.0,0.0,0.0,0.0,0.0,0.0,0.0,0.0,0.0,0.0,0.0,0.0,0.0,0.0,-2.2073,-2.3376,-2.5321,-2.5959,-2.6387,-2.6722,-2.7505,-2.8258,-2.887,-2.913,-2.9518,-3.0113,-3.0953,-3.1441,-3.1441,0.0,0.0,0.0,0.0,-3.3844,-3.3935,-3.4651,-3.5082,-3.5284,-3.678,-3.7165,-3.6597,-3.7202,-3.7092,-3.6431,-3.634,-3.6303,-3.6303,-3.6303,-3.6303,-3.6156,-3.4651,-3.4082,-3.4082,-3.4082,-3.4082,-3.4064,-3.3972,0.0,0.0,-3.3825,-3.3807,-3.3807,-3.3807,-3.3807,-3.3807,-3.3807,-3.3807,-3.3642,-3.2926,-3.2137,-3.1329,-3.0522,-2.9732,-2.9104,-2.9012,-2.8994,-2.8994,-2.8994,-2.8994,-2.8994,-2.8994,-2.7824,-2.6869,-2.6869,-2.619,-2.5642,-2.555,-2.4832,-2.43,-2.4208,0.0,0.0,-2.419,-2.419,-2.419,-2.419,-2.419,-2.4303,-2.451,-2.47,-2.4883,-2.5034,-2.5214,-2.5303,-2.5303,-2.5399,-2.5437,-2.538,-2.3139,-2.2889,0.0,0.0,0.0,0.0,0.0,0.0,0.0,0.0,0.0,0.0,0.0,0.0,0.0,0.0,0.0,-2.1921,-2.3714,-2.5118,-2.5558,-2.6182,-2.6749,-2.7139,-2.8135,-2.8722,-2.854,-2.9945,-3.0783,-3.061,-3.1648,-3.2254,-3.2254,-3.2862,-3.3214,-3.3214,-3.3578,-3.4119,-3.4752,-3.4917,-3.5697,-3.7019,0.0,0.0,-3.823,-3.7716,-3.7434,-3.7221,-3.6578,-3.6303,-3.6303,-3.6303,-3.6303,-3.6266,-3.5936,-3.5826,-3.5826,-3.5826,-3.5826,-3.5716,-3.5018,-3.4752,-3.4642,-3.4009,-3.3807,-3.3807,-3.3807,-3.3807,0.0,-3.3807,-3.3807,-3.3752,-3.3605,-3.2981,-3.2173,-3.1347,-3.0558,-2.9787,-2.9122,-2.8994,-2.8994,-2.8994,-2.8994,-2.8994,-2.8994,-2.8737,-2.8535,-2.8535,-2.7842,-2.709,-2.6447,-2.5658,-2.4905,-2.4263,-2.419,-2.419,-2.419,-2.419,-2.419,-2.419,-2.419,-2.4357,-2.4731,-2.4775,-2.4936,-2.5243,-2.5274,-2.5303,-2.5303,-2.6005,-2.6351,-2.6351,-2.5851,-2.5793,0.0,0.0,0.0,0.0,0.0,0.0,0.0,0.0,0.0,0.0,0.0,-1.9241,-2.0399,0.0,-2.2649,-2.3782,-2.4881,-2.5744,-2.6099,-2.6471,-2.6927,-2.7485,-2.8042,-2.861,-2.9178,-3.0126,-3.0783,-3.0945,-3.1507,-3.186,-3.186,-3.2484,-3.284,-3.284,-3.3847,-3.4596,-3.499,-3.5844,-3.667,-3.7507,-3.79,-3.8303,-3.8689,-3.8285,-3.8102,-3.8065,-3.7679,-3.7496,-3.7496,-3.7496,-3.7496,-3.7496,-3.7496,-3.7019,-3.6303,-3.6303,-3.6303,-3.6229,-3.5807,-3.5661,-3.5587,-3.5183,-3.4761,-3.4412,-3.4412,-3.4119,-3.3807,-3.3807,-3.3807,-3.3807,-3.3807,-3.3201,-3.2412,-3.1586,-3.0797,-2.9989,-2.9159,-2.8994,-2.8994,-2.8994,-2.8994,-2.8994,-2.8994,-2.8994,-2.8994,-2.8994,-2.8319,-2.764,-2.7255,-2.6502,-2.5676,-2.4887,-2.4795,-2.463,-2.4226,-2.419,-2.419,-2.419,-2.4284,-2.4426,-2.4639,-2.4809,-2.519,-2.5792,-2.5906,-2.6178,-2.6601,-2.7044,-2.7255,-2.7255,-2.7659,-2.764,0.0,0.0,0.0,0.0,0.0,0.0,0.0,0.0,-1.7794,-1.9435,-2.0264,-2.1066,-2.2479,-2.3325,-2.4222,-2.5423,-2.5727,-2.6031,-2.6607,-2.6691,-2.6962,-2.7688,-2.796,-2.8535,-2.977,-3.0159,-3.0565,-3.1157,-3.119,-3.119,-3.119,-3.2021,-3.2451,-3.2384,-3.4063,-3.5036,-3.5125,-3.6696,-3.7599,-3.7734,-3.8395,-3.8707,-3.8707,-3.8707,-3.8707,-3.8707,-3.8707,-3.8707,-3.8707,-3.8707,-3.8707,-3.8707,-3.8707,-3.7918,-3.6762,-3.6762,-3.6762,-3.6743,-3.6578,-3.6523,-3.6505,-3.634,-3.5826,-3.5247,-3.5247,-3.4688,-3.4027,-3.4027,-3.3917,-3.3807,-3.3807,-3.333,-3.2632,-3.1825,-3.1017,-3.021,-2.942,-2.9104,-2.8994,-2.8994,-2.8994,-2.8994,-2.8994,-2.8994,-2.8994,-2.8994,-2.8448,-2.797,-2.7824,-2.7236,-2.6521,-2.5713,-2.5495,-2.5072,-2.4263,-2.419,-2.4209,-2.4266,-2.441,-2.4526,-2.4588,-2.501,-2.5595,-2.6345,-2.6683,-2.7198,-2.789,-2.8063,-2.8121,-2.814,-2.8967,-2.8909,-1.8877,-1.8234,0.0,-1.8504,-1.8166,-1.8386,0.0,0.0,-2.0264,-2.2446,-2.2953,-2.3274,-2.4086,-2.4847,-2.5423,-2.5575,-2.615,-2.6607,-2.6674,-2.6691,-2.6962,-2.7688,-2.8433,-2.8924,-2.9093,-3.0294,-3.1106,-3.119,-3.119,-3.119,-3.119,-3.2021,-3.2316,-3.188,-3.3924,-3.5159,-3.5548,-3.6833,-3.7845,-3.8579,-3.867,-3.8707,-3.8707,-3.8707,-3.8707,-3.8707,-3.8707,-3.8707,-3.8707,-3.8707,-3.8707,-3.8707,-3.8707,-3.8597,-3.8432,-3.8432,-3.8432,-3.834,-3.7606,-3.7349,-3.7239,-3.6523,-3.6229,-3.6156,-3.6156,-3.555,-3.4862,-3.4862,-3.4357,-3.3807,-3.3807,-3.3733,-3.3458,-3.2669,-3.1843,-3.1035,-3.0246,-2.9512,-2.8994,-2.8994,-2.8994,-2.8994,-2.8994,-2.8994,-2.8994,-2.8994,-2.892,-2.8613,-2.7879,-2.7714,-2.7365,-2.6557,-2.5823,-2.5072,-2.4263,-2.419,-2.4266,-2.4444,-2.4495,-2.4636,-2.4937,-2.5711,-2.6274,-2.6551,-2.7341,-2.7794,-2.789,-2.8621,-2.8967,-2.8986,-2.9852,-2.9794,-2.0856,0.0,0.0,0.0,-1.9993,-2.0111,-2.1363,-2.1498,-2.1735,-2.3122,-2.4086,-2.478,-2.5084,-2.5744,-2.6234,0.0,-2.6488,-2.6691,-2.6691,-2.6691,-2.681,-2.7131,-2.7841,-2.8653,-2.955,-3.0209,-3.0734,-3.1157,-3.119,-3.119,-3.119,-3.1787,-3.1986,-3.1825,-3.4103,-3.5442,-3.5612,-3.7332,-3.8377,-3.8707,-3.8707,-3.8707,-3.8707,-3.8707,-3.8707,-3.8707,-3.8707,-3.8707,-3.8707,-3.8707,-3.8707,-3.8707,-3.8707,-3.8707,-3.8707,-3.8707,-3.8707,-3.8652,-3.8322,-3.8193,-3.8138,-3.7808,-3.7367,-3.6982,-3.6982,-3.6064,-3.499,-3.499,-3.4431,-3.3807,-3.3807,-3.3807,-3.3605,-3.2797,-3.2339,-3.188,-3.1072,-3.0632,-3.0393,-3.0393,-3.0026,-2.9714,-2.9714,-2.9329,-2.8994,-2.8994,-2.8994,-2.8865,-2.8539,-2.8503,-2.8191,-2.7383,-2.6153,-2.5274,-2.4944,-2.4465,-2.4284,-2.4495,-2.4607,-2.4766,-2.4998,-2.5953,-2.6749,-2.7332,-2.8159,-2.8852,-2.9371,-2.9698,-2.9871,-2.9871,-3.0237,-3.0198,-2.1556,0.0,0.0,-2.1204,-2.1346,-2.1498,-2.1498,-2.2073,-2.2818,-2.3545,-2.4543,-2.5372,-2.5575,-2.6048,0.0,-2.6387,-2.6573,-2.6691,-2.6691,-2.6691,-2.6691,-2.6691,-2.7182,-2.8027,-2.9347,-2.9668,-3.0108,-3.0835,-3.0903,-3.1048,-3.1334,-3.177,-3.2091,-3.2336,-3.4584,-3.5833,-3.5937,-3.7771,-3.8707,-3.8707,-3.8707,-3.8707,-3.8707,-3.8707,-3.8707,-3.8707,-3.8707,-3.8707,-3.8707,-3.8707,-3.8707,-3.8707,-3.8707,-3.8707,-3.8707,-3.8707,-3.8707,-3.8707,-3.8707,-3.8707,-3.8707,-3.8707,-3.8303,-3.7826,-3.7826,-3.6835,-3.5661,-3.544,-3.478,-3.4082,-3.3862,-3.3807,-3.3642,-3.3073,-3.2761,-3.2449,-3.1861,-3.1605,-3.1489,-3.1409,-3.098,-3.0549,-3.0252,-2.9732,-2.925,-2.9012,-2.8994,-2.8994,-2.8994,-2.8994,-2.8705,-2.7879,-2.6759,-2.5972,-2.575,-2.5241,-2.5023,-2.5232,-2.5227,-2.5405,-2.5776,-2.6549,-2.7351,-2.8198,-2.9044,-2.9775,-3.0398,-3.0398,-3.0398,-3.0398,-3.0398,-3.0398,0.0,0.0,-2.1204,-2.1204,-2.1735,-2.2276,-2.2276,-2.2835,-2.3579,-2.432,-2.4506,-2.4729,-2.5473,-2.5625,-2.5642,-2.5642,-2.6234,-2.6691,-2.6691,-2.6691,-2.6691,-2.6691,-2.6708,-2.7029,0.0,-2.8569,-2.933,-3.0091,-3.0142,-3.064,-3.1718,-3.223,-3.282,-3.3631,-3.5356,-3.6437,-3.6768,-3.8063,-3.8707,-3.8707,-3.8707,-3.8707,-3.8707,-3.8707,-3.8707,-3.8707,-3.8707,-3.8707,-3.8707,-3.8707,-3.8707,-3.8707,-3.8707,-3.8707,-3.8707,-3.8707,-3.8707,-3.8707,-3.8707,-3.8707,-3.8707,-3.8707,-3.8689,-3.867,-3.867,-3.8083,-3.7239,-3.6468,-3.5642,-3.477,-3.4009,-3.3807,-3.3788,-3.377,-3.3183,-3.2596,-3.2577,-3.2149,-3.1712,-3.144,-3.1575,-3.1433,-3.0368,-3.0173,-2.9898,-2.9104,-2.8994,-2.8994,-2.8994,-2.8994,-2.8705,-2.7879,-2.775,-2.7402,-2.6631,-2.6728,-2.6894,-2.7113,-2.6569,-2.6713,-2.7764,-2.7832,-2.8236,-2.9044,-2.9929,-3.0359,-3.0398,-3.0398,-3.0398,-3.0398,-3.0398,-3.0398,0.0,0.0,-2.1322,-2.1803,-2.2124,-2.231,-2.231,-2.2868,-2.346,-2.3714,-2.4167,-2.4591,-2.4814,-2.4864,-2.5033,-2.5524,-2.5812,-2.615,-2.6623,-2.6691,-2.6691,-2.6691,-2.6691,0.0,0.0,0.0,0.0,-3.0006,-3.0108,-3.0622,-3.1754,-3.1951,-3.2318,-3.2889,-3.4002,-3.5037,-3.5977,-3.6971,-3.7854,-3.8707,-3.8707,-3.8707,-3.8707,-3.8707,-3.8707,-3.8707,-3.8707,-3.8707,-3.8707,-3.8707,-3.8707,-3.8707,-3.8707,-3.8707,-3.8707,-3.8707,-3.8707,-3.8707,-3.8707,-3.8707,-3.8707,-3.8707,-3.8707,-3.8707,-3.8707,-3.8138,-3.7342,-3.6523,-3.5679,-3.4807,-3.4009,-3.3807,-3.3807,-3.3807,-3.3587,-3.3403,-3.3403,-3.3408,-3.3305,-3.304,-3.2778,-3.2432,-3.1893,-3.1347,-3.0723,-2.9934,-2.9347,-2.8994,-2.8994,-2.8994,-2.8883,-2.8631,-2.8117,-2.7677,-2.742,-2.7099,-2.7005,-2.7188,-2.7002,-2.7208,-2.786,-2.8267,-2.8689,-2.9083,-2.9967,-3.0398,-3.0398,-3.0398,-3.0398,-3.0398,-3.0398,-3.0398,0.0,-2.0772,-2.1336,-2.1922,-2.218,-2.231,-2.231,-2.2868,-2.3393,-2.3393,-2.3765,-2.4103,-2.4103,-2.4103,-2.4255,-2.4746,-2.527,-2.5778,-2.6234,-2.6522,-2.6691,-2.6691,-2.6691,0.0,0.0,0.0,0.0,-2.9583,-2.9702,-3.039,-3.1987,-3.2057,-3.2456,-3.3347,-3.3752,-3.4702,-3.6253,-3.6635,-3.7453,-3.8707,-3.8707,-3.8707,-3.8707,-3.8707,-3.8707,-3.8707,-3.8707,-3.8707,-3.8707,-3.8707,-3.8707,-3.8707,-3.8707,-3.8707,-3.8707,-3.8707,-3.8707,-3.8707,-3.8707,-3.8707,-3.8707,-3.8707,-3.8707,-3.8707,-3.8707,-3.834,-3.7753,-3.6945,-3.6321,-3.5642,-3.4523,-3.4229,-3.4174,-3.3862,-3.3807,-3.3807,-3.3807,-3.4093,-3.4265,-3.3895,-3.3709,-3.3384,-3.2728,-3.1696,-3.0797,-3.0283,-2.9531,-2.8994,-2.8994,-2.8994,-2.904,-2.9134,-2.8676,-2.8363,-2.8363,-2.809,-2.7921,-2.7974,-2.7759,-2.793,-2.8612,-2.8752,-2.9046,-2.9544,-3.0121,-3.0398,-3.0398,-3.0398,-3.0398,-3.0398,-3.0398,-3.0571,-1.9891,-2.0533,-2.1271,-2.1553,-2.1928,-2.2254,-2.2282,-2.2806,-2.3296,-2.3342,-2.3308,-2.3274,0.0,0.0,-2.3291,-2.3342,-2.4577,-2.5558,-2.5609,-2.6234,-2.6691,0.0,0.0,0.0,0.0,0.0,0.0,-2.8873,0.0,-3.0003,-3.2329,-3.2484,-3.3243,-3.4871,-3.4552,-3.5314,-3.7331,-3.703,-3.7453,-3.8707,-3.8707,-3.8707,-3.8707,-3.8707,-3.8707,-3.8707,-3.8707,-3.8707,-3.8707,-3.8707,-3.8707,-3.8707,-3.8707,-3.8707,-3.8707,-3.8707,-3.8707,-3.8707,-3.8707,-3.8707,-3.8707,-3.8707,-3.8707,-3.8707,-3.8707,-3.8707,-3.8524,-3.7716,-3.7507,-3.711,-3.5495,-3.5064,-3.4844,-3.4045,-3.3862,-3.3844,-3.3807,-3.426,-3.4526,-3.3921,-3.4279,-3.4239,-3.2882,-3.1366,-3.032,-3.0265,-2.9586,-2.9049,-2.8994,-2.8994,-2.9089,-2.9351,-2.9392,-2.9412,-2.9412,-2.9589,-2.9625,-2.9434,-2.8837,-2.8944,-2.9975,-2.927,-2.9352,-3.0379,-3.0398,-3.0398,-3.0398,-3.0398,-3.0398,-3.0398,-3.0398,-3.0871,-1.9688,-2.0489,-2.1516,-2.1579,-2.146,-2.1493,-2.2152,-2.2166,-2.2165,-2.2524,-2.2141,-2.1779,0.0,0.0,0.0,-2.2496,-2.3816,0.0,-2.5524,-2.6234,0.0,0.0,0.0,-2.6691,-2.6691,-2.7199,0.0,0.0,-2.9011,-2.9877,-3.1881,-3.2316,-3.2866,-3.364,-3.3551,-3.4189,-3.5614,-3.6765,-3.779,-3.8707,-3.8707,-3.8707,-3.8707,-3.8707,-3.8707,-3.8707,-3.8707,-3.8707,-3.8707,-3.8707,-3.8707,-3.8707,-3.8707,-3.8707,-3.8707,-3.8707,-3.8707,-3.8707,-3.8707,-3.8707,-3.8707,-3.8707,-3.8707,-3.8707,-3.8707,-3.8707,-3.8524,-3.7716,-3.7507,-3.7239,-3.6248,-3.5973,-3.5752,-3.4908,-3.4679,-3.4541,-3.3935,-3.426,-3.4526,-3.3921,-3.3902,-3.3924,-3.3558,-3.2669,-3.1788,-3.1182,-3.0411,-2.9696,-2.9067,-2.8994,-2.904,-2.9089,-2.9289,-2.9412,-2.9412,-2.9731,-2.9908,-2.9845,-2.9684,-2.9804,-3.0279,-2.9912,-2.9926,-3.0379,-3.0398,-3.0398,-3.0398,-3.0398,-3.0398,-3.0398,-3.0398,-3.0871,-1.9969,-2.0687,-2.1552,-2.1368,-2.115,-2.1085,-2.1425,-2.1313,-2.1139,-2.1282,-2.0974,0.0,0.0,0.0,0.0,0.0,0.0,0.0,-2.5,-2.5744,-2.6336,0.0,-2.6691,0.0,-2.6691,-2.7385,-2.8146,0.0,-2.9296,-3.0255,-3.2004,-3.2161,-3.2565,-3.3437,-3.3105,-3.3484,-3.4725,-3.6564,-3.7533,-3.7661,-3.8358,-3.8524,-3.8175,-3.8175,-3.8377,-3.8689,0.0,-3.8377,-3.8707,-3.8707,-3.8707,-3.8707,-3.8707,-3.8707,-3.8707,-3.8707,-3.8707,-3.8707,-3.8707,-3.8707,-3.8707,-3.8707,-3.8707,-3.8707,-3.8707,-3.8707,-3.8615,-3.8138,-3.8028,-3.7826,-3.7037,-3.6817,-3.6597,-3.5771,-3.5265,-3.4862,-3.4431,-3.4401,-3.4379,-3.4043,-3.3876,-3.3807,-3.3807,-3.3239,-3.2588,-3.2015,-3.1028,-3.0171,-2.9586,-2.9333,-2.9203,-2.9293,-2.9514,-2.9644,-2.9551,-2.9813,-2.9969,-2.9877,-2.9877,-2.9988,-3.0209,-3.0075,-3.0136,-3.0379,-3.0398,-3.0398,-3.0398,-3.0398,-3.0398,-3.0398,-3.0794,-3.1237,-2.0348,-2.0797,-2.1321,-2.0991,-2.0862,-2.0767,-2.0469,-2.0439,-2.0327,-2.0008,0.0,0.0,-1.9849,0.0,-2.1025,-2.1025,0.0,-2.3613,-2.4269,-2.5067,-2.5845,-2.6471,-2.664,-2.6691,-2.6691,-2.7385,-2.8095,-2.8772,-2.9617,-3.0754,-3.2247,-3.2004,-3.2382,-3.368,-3.3027,-3.3248,-3.4467,-3.6285,-3.6872,-3.6321,-3.7716,-3.801,-3.7331,-3.7331,-3.7716,-3.8358,-3.7753,-3.7881,-3.856,-3.867,-3.8707,-3.8707,-3.8707,-3.8707,-3.8707,-3.8707,-3.8707,-3.8707,-3.8707,-3.8707,-3.8707,-3.8707,-3.8707,-3.8707,-3.8707,-3.8707,-3.8707,-3.8707,-3.8707,-3.8542,-3.7826,-3.7643,-3.7441,-3.6652,-3.5881,-3.5284,-3.5192,-3.4726,-3.4301,-3.4195,-3.3986,-3.3807,-3.3807,-3.342,-3.2993,-3.264,-3.1635,-3.0764,-3.0304,-2.9746,-2.9474,-2.9643,-2.9861,-2.9939,-2.9746,-2.9924,-2.9988,-2.9799,-2.9799,-2.988,-3.0047,-3.0042,-3.015,-3.0398,-3.0398,-3.0398,-3.0398,-3.0398,-3.0398,-3.0417,-3.1179,-3.1583,-2.0,-2.0158,-2.0501,-2.0449,-2.0158,-1.997,-2.0064,-2.0042,0.0,0.0,0.0,-1.9096,-1.9096,-1.9705,0.0,-2.0204,0.0,0.0,0.0,0.0,-2.5659,0.0,0.0,0.0,0.0,0.0,0.0,0.0,0.0,-3.0489,-3.1393,-3.166,-3.2247,-3.3273,-3.3476,-3.4008,-3.4887,-3.5237,-3.5734,-3.6303,-3.6578,-3.6633,-3.6505,-3.6505,-3.6578,-3.6743,-3.7257,0.0,-3.7753,-3.8432,-3.8707,-3.8707,-3.8707,-3.8707,-3.8707,-3.8707,-3.8707,-3.8707,-3.8707,-3.8707,-3.8707,-3.8707,-3.8707,-3.8707,-3.8707,-3.8707,-3.8707,-3.8707,-3.8707,-3.867,-3.8524,-3.8487,-3.8285,-3.7477,-3.7165,-3.6872,-3.6211,-3.5432,-3.4739,-3.4277,-3.3986,-3.3807,-3.3807,-3.3732,-3.3427,-3.2706,-3.2575,-3.2091,-3.0705,-2.9874,-2.9394,-2.9454,-2.978,-2.9984,-2.9954,-3.0182,-3.0311,-3.0286,-3.0286,-3.0299,-3.0323,-3.0323,-3.0355,-3.0398,-3.0398,-3.0398,-3.0398,-3.0398,-3.0398,-3.0398,-3.0552,-3.1006,-2.0124,-2.0158,-2.0314,-2.0314,-2.0,-1.9652,-1.945,0.0,0.0,0.0,0.0,-1.8335,-1.8335,0.0,0.0,0.0,0.0,0.0,0.0,0.0,0.0,0.0,0.0,0.0,0.0,0.0,0.0,0.0,0.0,-2.9932,-3.0874,-3.1724,-3.2366,-3.2809,-3.3273,-3.3761,-3.4376,-3.477,-3.5018,-3.5018,-3.5881,-3.6064,-3.5624,-3.5624,-3.5881,-3.6303,-3.6229,-3.6688,-3.7544,-3.7918,-3.8322,-3.8707,-3.8707,-3.8707,-3.8707,-3.8707,-3.8707,-3.8707,-3.8707,-3.8707,-3.8707,-3.8707,-3.8707,-3.8707,-3.8707,-3.8707,-3.8707,-3.8707,-3.8707,-3.8707,-3.8707,-3.8707,-3.8597,-3.8212,-3.7477,-3.6652,-3.5807,-3.4981,-3.432,-3.4035,-3.3876,-3.3807,-3.3807,-3.3928,-3.3832,-3.3301,-3.3093,-3.2728,-3.1946,-3.1271,-3.0527,-2.9645,-2.9962,-3.015,-3.0013,-3.0254,-3.0398,-3.0398,-3.0398,-3.0398,-3.0398,-3.0398,-3.0398,-3.0398,-3.0398,-3.0398,-3.0398,-3.0398,-3.0398,-3.0398,-3.0871,-3.1295,-2.0193,-2.0193,-2.0193,-2.0193,-1.9929,-1.9541,-1.8826,-1.8736,0.0,0.0,0.0,-1.7557,-1.7557,0.0,0.0,0.0,0.0,0.0,0.0,0.0,0.0,0.0,0.0,0.0,0.0,0.0,0.0,0.0,0.0,0.0,-3.063,-3.1684,-3.2373,-3.2648,-3.3075,-3.3494,-3.3807,-3.4431,-3.4431,-3.3825,-3.5128,-3.5422,-3.4734,-3.4734,-3.5128,-3.5734,-3.5238,-3.5752,-3.6964,-3.7165,-3.7716,-3.8432,-3.8432,-3.856,-3.8707,-3.8707,-3.8707,-3.8707,-3.8707,-3.8707,-3.8707,-3.8707,-3.8707,-3.8707,-3.8707,-3.8707,-3.8707,-3.8707,-3.8707,-3.8707,-3.8707,-3.8707,-3.8707,-3.8707,-3.7606,-3.6321,-3.5477,-3.4651,-3.4009,-3.3825,-3.3807,-3.3807,-3.3807,-3.3986,-3.4043,-3.3842,-3.3482,-3.3194,-3.3026,-3.2727,-3.1918,-3.0217,-3.0409,-3.0522,-3.0122,-3.0267,-3.0398,-3.0398,-3.0398,-3.0398,-3.0398,-3.0398,-3.0398,-3.0398,-3.0398,-3.0398,-3.0398,-3.0398,-3.0398,-3.0417,-3.1102,-3.1525,-1.9747,-1.9747,-1.9747,-1.9747,-1.9726,-1.9436,-1.8469,0.0,0.0,0.0,-1.6586,-1.68,-1.68,0.0,0.0,0.0,0.0,0.0,0.0,0.0,0.0,0.0,0.0,0.0,0.0,0.0,0.0,0.0,0.0,0.0,-3.063,-3.1208,-3.1996,-3.3087,-3.3522,-3.3762,-3.3807,-3.3862,-3.3862,-3.3807,-3.3954,-3.399,-3.3917,-3.3917,-3.3954,-3.4064,-3.4715,0.0,0.0,-3.6083,-3.6872,-3.7606,-3.7606,-3.8046,-3.8707,-3.8707,-3.8707,-3.8707,-3.8707,-3.8707,-3.8707,-3.8707,-3.8707,-3.8707,-3.8707,-3.8707,-3.8707,-3.8707,-3.8707,-3.8707,-3.8707,-3.8707,-3.8707,-3.8707,-3.8028,-3.7165,-3.6358,-3.5514,-3.4688,-3.3935,-3.3807,-3.3807,-3.3807,-3.3815,-3.3815,-3.3788,-3.3963,-3.3827,-3.3082,-3.3374,-3.3013,-3.1333,-3.141,-3.1244,-3.0424,-3.0398,-3.0398,-3.0398,-3.0398,-3.0398,-3.0398,-3.0398,-3.0398,-3.0398,-3.0398,-3.0398,-3.0398,-3.0398,-3.0398,-3.0398,-3.0475,-3.0948,-1.957,-1.969,-1.969,-1.969,-1.939,-1.9008,-1.864,0.0,0.0,-1.6647,-1.624,-1.6153,-1.6631,0.0,0.0,0.0,0.0,0.0,0.0,0.0,0.0,0.0,0.0,0.0,0.0,0.0,0.0,0.0,0.0,0.0,-2.9311,-3.0818,-3.2115,-3.3166,-3.3379,-3.355,-3.3807,-3.3807,-3.3807,-3.3807,-3.3807,-3.3807,-3.3807,-3.3807,-3.3807,-3.3825,-3.4137,0.0,0.0,-3.5357,-3.6028,-3.6817,-3.7294,-3.7679,-3.8028,-3.8524,-3.8707,-3.8707,-3.8707,-3.8707,-3.8707,-3.8707,-3.8707,-3.8707,-3.8707,-3.8707,-3.8707,-3.8707,-3.8707,-3.8707,-3.8707,-3.8707,-3.8579,-3.8083,-3.7349,-3.6541,-3.5716,-3.4871,-3.4192,-3.3862,-3.3807,-3.3868,-3.4018,-3.3902,-3.385,-3.4018,-3.4123,-3.4157,-3.4036,-3.4339,-3.4181,-3.3168,-3.266,-3.1872,-3.0513,-3.0891,-3.0968,-3.0417,-3.0398,-3.0398,-3.0398,-3.0398,-3.0398,-3.0398,-3.0398,-3.0398,-3.0398,-3.0398,-3.0398,-3.0398,-3.0948,-3.1641,-1.9271,-1.954,-1.969,-1.969,-1.9196,-1.8725,0.0,0.0,-1.6643,-1.6416,-1.5781,-1.5494,-1.6241,-1.6377,0.0,0.0,0.0,0.0,0.0,0.0,0.0,0.0,0.0,0.0,0.0,0.0,0.0,0.0,0.0,0.0,-2.8444,-3.0298,-3.1784,-3.2823,-3.3105,-3.339,-3.3807,-3.3807,-3.3807,-3.3807,-3.3807,-3.3807,-3.3807,-3.3807,-3.3807,-3.3807,-3.3807,0.0,0.0,-3.4669,-3.5165,-3.5973,-3.6541,-3.6909,-3.7202,-3.7771,-3.8138,-3.8303,-3.8065,-3.8303,-3.867,-3.8414,-3.8505,-3.8707,-3.8707,-3.8707,-3.8707,-3.8707,-3.8707,-3.8707,-3.8707,-3.8524,-3.8193,-3.7624,-3.6688,-3.5752,-3.5119,-3.4376,-3.3815,-3.3902,-3.3928,-3.4012,-3.4288,-3.4189,-3.4136,-3.4311,-3.4357,-3.4467,-3.4774,-3.4981,-3.4863,-3.4263,-3.3872,-3.2987,-3.1275,-3.1487,-3.1448,-3.0833,-3.0533,-3.0398,-3.0398,-3.0398,-3.0398,-3.0398,-3.0398,-3.0398,-3.0398,-3.0398,-3.0533,-3.0814,-3.141,-3.2275,-1.8717,-1.9196,-1.969,-1.969,-1.9196,-1.8725,0.0,-1.7697,-1.6499,-1.5758,-1.502,-1.4749,-1.5477,-1.5612,-1.6323,0.0,0.0,0.0,0.0,0.0,0.0,0.0,0.0,0.0,0.0,0.0,0.0,0.0,0.0,0.0,-2.8479,-2.9593,-3.0802,-3.2068,-3.2816,-3.339,-3.3807,-3.3807,-3.3807,-3.3807,-3.3807,-3.3807,-3.3807,-3.3807,-3.3807,-3.3807,0.0,0.0,0.0,-3.3807,-3.4302,-3.5009,-3.5009,-3.5569,-3.6303,-3.6321,-3.6817,-3.7386,-3.6597,-3.7367,-3.8579,-3.7753,-3.8046,-3.8707,-3.8707,-3.8707,-3.8707,-3.8707,-3.8707,-3.8707,-3.8707,-3.8102,-3.7526,-3.7507,-3.6229,-3.5009,-3.499,-3.4376,-3.3876,-3.4147,-3.4218,-3.4311,-3.4632,-3.4694,-3.4694,-3.4694,-3.4694,-3.4793,-3.507,-3.5105,-3.4863,-3.4263,-3.4968,-3.4776,-3.3026,-3.216,-3.1698,-3.1698,-3.0891,-3.0398,-3.0398,-3.0398,-3.0398,-3.0398,-3.0398,-3.0398,-3.0398,-3.0398,-3.0852,-3.1698,-3.1698,-3.2583,-1.779,-1.8194,-1.8343,-1.8343,-1.8029,-1.7683,-1.7413,-1.6442,-1.5463,-1.4941,-1.4259,-1.3971,-1.4716,-1.4851,-1.5578,-1.7794,0.0,0.0,0.0,0.0,0.0,0.0,0.0,0.0,0.0,0.0,0.0,0.0,0.0,0.0,-2.7265,-2.8345,-2.9682,-3.1227,-3.2247,-3.283,-3.2981,-3.3532,-3.3807,-3.3807,-3.3807,-3.3807,-3.3807,-3.3807,-3.3807,0.0,0.0,0.0,-3.3807,-3.3807,-3.3954,-3.4229,-3.477,-3.5155,-3.5495,-3.6083,-3.645,-3.6633,-3.6376,-3.6982,-3.7826,-3.7599,-3.8028,-3.8707,-3.8707,-3.8707,-3.8707,-3.8707,-3.8707,-3.8707,-3.8707,-3.8102,-3.7379,-3.6798,-3.5826,-3.4844,-3.4302,-3.3972,-3.3876,-3.4147,-3.42,-3.436,-3.4889,-3.4813,-3.4754,-3.4944,-3.4963,-3.4999,-3.5088,-3.5273,-3.5302,-3.5109,-3.5353,-3.4795,-3.3045,-3.2679,-3.2295,-3.1737,-3.0891,-3.0398,-3.0398,-3.0398,-3.0398,-3.0398,-3.0398,-3.0398,-3.0398,-3.1006,-3.2025,-3.341,-3.341,-3.4007,0.0,-1.7341,-1.7697,-1.7697,-1.7273,-1.6825,-1.6712,-1.5644,-1.4648,-1.4523,-1.3904,-1.3633,-1.4359,-1.4494,-1.5119,-1.7067,0.0,0.0,0.0,0.0,0.0,0.0,0.0,0.0,0.0,0.0,0.0,0.0,0.0,0.0,-2.6691,-2.7659,-2.8687,-2.9743,-3.1184,-3.1981,-3.2155,-3.2944,-3.3348,-3.3348,-3.3642,-3.3807,-3.3807,-3.3807,-3.3807,0.0,0.0,-3.3807,0.0,-3.3807,-3.3807,-3.3844,-3.4357,-3.4559,-3.4614,-3.5165,-3.555,-3.5771,-3.5459,-3.6101,-3.6982,-3.6652,-3.7129,-3.779,-3.779,-3.801,-3.8248,-3.8248,-3.8028,-3.779,-3.779,-3.7184,-3.6431,-3.5936,-3.5165,-3.4412,-3.3917,-3.3807,-3.3902,-3.4311,-3.4379,-3.4574,-3.5155,-3.5105,-3.507,-3.5223,-3.5239,-3.5239,-3.5239,-3.5403,-3.5493,-3.5493,-3.5493,-3.493,-3.3506,-3.3083,-3.2699,-3.2179,-3.1064,-3.0398,-3.0398,-3.0717,-3.0737,-3.0398,-3.1025,-3.1044,-3.0398,-3.1583,-3.2852,-3.4199,-3.4545,-3.4988,0.0,-1.6518,-1.7445,-1.7462,-1.6756,-1.6099,-1.6422,-1.523,0.0,-1.4355,-1.387,-1.365,-1.4445,-1.4528,-1.502,0.0,0.0,0.0,0.0,0.0,0.0,0.0,0.0,0.0,0.0,0.0,0.0,0.0,0.0,0.0,-2.6691,-2.7457,-2.7869,-2.7897,-2.9679,-3.0831,-3.1311,-3.2118,-3.2522,-3.2522,-3.3275,-3.3623,-3.3623,-3.3623,-3.3623,0.0,-3.3697,-3.3715,-3.3715,-3.377,-3.3807,-3.3807,-3.3807,-3.3807,-3.3807,-3.3807,-3.4284,-3.4807,-3.4064,-3.4853,-3.6083,-3.5349,-3.5642,-3.6303,-3.6303,-3.6817,-3.7404,-3.7404,-3.6872,-3.6303,-3.6303,-3.5661,-3.499,-3.499,-3.4394,-3.3807,-3.3815,-3.3815,-3.4005,-3.4612,-3.4714,-3.4908,-3.5417,-3.5493,-3.5493,-3.5493,-3.5493,-3.5493,-3.5493,-3.5493,-3.5493,-3.5493,-3.5493,-3.518,-3.4353,-3.343,-3.2872,-3.2814,-3.1352,-3.0456,-3.0398,-3.1295,-3.1391,-3.0513,-3.2083,-3.216,-3.0667,-3.2237,-3.343,-3.4314,-3.5122,-3.5493,-1.3385,0.0,-1.5088,-1.5267,-1.5344,-1.5198,0.0,-1.4503,0.0,0.0,0.0,0.0,0.0,0.0,0.0,0.0,0.0,0.0,0.0,0.0,0.0,0.0,0.0,0.0,0.0,0.0,0.0,0.0,0.0,-2.6691,-2.6691,-2.7178,-2.756,-2.7897,-2.8596,-2.9442,-3.0467,-3.1274,-3.1678,-3.1678,-3.1861,-3.1953,-3.1953,-3.1953,-3.1953,-3.199,-3.2614,-3.2889,-3.2944,-3.355,-3.3807,-3.3807,-3.3807,-3.3807,-3.3807,-3.3807,-3.3917,-3.4064,-3.3862,-3.4468,-3.5385,-3.5844,-3.6138,-3.6303,-3.6303,-3.6431,-3.6578,-3.6578,-3.645,-3.6303,-3.6303,-3.5661,-3.499,-3.499,-3.4394,-3.3868,-3.4068,-3.4099,-3.4288,-3.4889,-3.4999,-3.5105,-3.5446,-3.5493,-3.5493,-3.5493,-3.5493,-3.5493,-3.5493,-3.5493,-3.5493,-3.5493,-3.5493,-3.543,-3.5218,-3.3776,-3.2641,-3.2025,-3.1621,-3.1102,-3.0417,-3.1833,-3.2237,-3.141,-3.2391,-3.3026,-3.3314,-3.3699,-3.4334,-3.5199,-3.5411,-3.5493,-1.2858,-1.3782,-1.4745,-1.4867,-1.5011,-1.4997,0.0,0.0,0.0,0.0,0.0,0.0,0.0,0.0,0.0,0.0,0.0,0.0,0.0,0.0,0.0,0.0,0.0,0.0,0.0,0.0,0.0,0.0,0.0,-2.6691,-2.6691,-2.7083,-2.7378,-2.7619,-2.7992,-2.8655,-2.9635,-3.0448,-3.0852,-3.0852,-3.1219,-3.1384,-3.1384,-3.1384,-3.1384,-3.1403,-3.1861,-3.2265,-3.2632,-3.3073,-3.3476,-3.3807,-3.3807,-3.3807,-3.3807,-3.3807,-3.3807,-3.3807,-3.3807,-3.41,-3.4541,-3.5,-3.5147,-3.5147,-3.5147,-3.5147,-3.522,-3.5605,-3.544,-3.5147,-3.5147,-3.4798,-3.4468,-3.4468,-3.4119,-3.3876,-3.4147,-3.42,-3.4383,-3.498,-3.5105,-3.519,-3.5446,-3.5493,-3.5493,-3.5493,-3.5493,-3.5493,-3.5493,-3.5493,-3.5493,-3.5493,-3.5493,-3.5353,-3.4949,-3.4045,-3.3314,-3.2872,-3.2468,-3.2045,-3.1583,-3.2795,-3.3487,-3.3449,-3.3083,-3.3526,-3.4795,-3.4391,-3.4641,-3.5493,-3.5493,-3.5493,-1.2927,-1.4116,-1.5186,-1.5057,-1.5024,-1.4978,0.0,0.0,0.0,0.0,0.0,0.0,0.0,0.0,0.0,0.0,0.0,0.0,0.0,0.0,0.0,0.0,0.0,0.0,0.0,0.0,0.0,0.0,0.0,-2.6691,-2.6691,-2.7019,-2.7241,-2.7303,-2.7619,-2.8147,-2.8834,-2.9564,-2.9936,-2.9936,-3.0681,-3.1017,-3.1017,-3.1017,-3.1017,-3.1035,0.0,0.0,-3.2247,-3.2375,-3.2889,-3.3623,-3.3623,-3.3697,-3.3807,-3.3807,-3.3807,-3.3807,-3.3807,-3.3807,-3.3807,-3.3807,-3.3807,-3.3807,-3.3807,-3.3807,-3.3935,-3.4633,-3.4339,-3.3807,-3.3807,-3.3807,-3.3807,-3.3807,-3.3842,-3.3954,-3.4218,-3.4292,-3.4492,-3.5051,-3.5155,-3.5223,-3.546,-3.5493,-3.5493,-3.5493,-3.5493,-3.5493,-3.5493,-3.5493,-3.5493,-3.5493,-3.5493,-3.5199,-3.4449,-3.4391,-3.4391,-3.4391,-3.3583,-3.316,-3.3295,-3.3872,-3.4603,-3.5488,-3.4045,-3.4026,-3.5493,-3.4757,-3.4776,-3.5493,-3.5493,-3.5493,-1.2999,-1.4056,-1.4691,-1.3899,-1.4148,-1.4422,0.0,0.0,0.0,0.0,0.0,0.0,0.0,0.0,0.0,0.0,0.0,0.0,0.0,0.0,0.0,0.0,0.0,0.0,0.0,0.0,0.0,0.0,0.0,-2.6691,-2.6691,-2.6758,-2.6971,-2.7303,-2.7348,-2.7619,-2.8065,-2.8468,-2.8696,-2.8677,-2.915,-2.9384,-2.9384,-2.9384,-2.9384,-2.942,0.0,-3.0448,-3.0632,-3.1292,-3.2063,-3.2797,-3.2797,-3.3201,-3.3807,-3.3807,-3.3807,-3.3807,-3.3807,-3.3807,-3.3807,-3.3807,-3.3807,-3.3807,-3.3807,-3.3807,-3.3825,-3.3954,-3.3899,-3.3807,-3.3807,-3.3807,-3.3807,-3.3807,-3.3986,-3.4242,-3.4551,-3.4813,-3.5051,-3.5383,-3.5432,-3.5446,-3.5493,-3.5493,-3.5493,-3.5493,-3.5493,-3.5493,-3.5493,-3.5493,-3.5493,-3.5493,-3.5493,-3.5449,-3.5315,-3.5315,-3.5315,-3.5315,-3.4487,-3.4334,-3.5084,-3.4526,-3.4603,-3.5488,-3.5238,-3.5238,-3.5493,-3.5372,-3.5372,-3.5493,-3.5493,-3.5493,-1.3011,-1.3864,-1.4532,-1.4104,-1.4851,-1.5595,0.0,0.0,0.0,0.0,0.0,0.0,0.0,0.0,0.0,0.0,0.0,0.0,0.0,0.0,0.0,0.0,0.0,0.0,0.0,0.0,0.0,0.0,0.0,0.0,-2.6116,-2.6116,-2.6197,-2.6373,-2.6373,-2.6656,-2.7241,-2.7631,-2.7918,-2.8129,-2.8308,-2.8507,-2.8682,-2.8682,-2.8797,-2.9012,0.0,-2.9806,-3.0228,-3.0595,-3.1219,-3.199,-3.243,-3.2834,-3.3201,-3.3642,-3.3807,-3.3807,-3.3807,-3.3807,-3.3807,-3.3807,-3.3807,-3.3807,-3.3807,-3.3807,-3.3807,-3.3807,-3.3807,-3.3807,-3.3807,-3.3807,-3.3807,-3.3807,-3.3993,-3.4292,-3.4632,-3.4908,-3.519,-3.5446,-3.5493,-3.5493,-3.5493,-3.5493,-3.5493,-3.5493,-3.5493,-3.5493,-3.5493,-3.5493,-3.5493,-3.5493,-3.5493,-3.5493,-3.5493,-3.5493,-3.5493,-3.5493,-3.5122,-3.5084,-3.5488,-3.5122,-3.5084,-3.5474,-3.5493,-3.5493,-3.5493,-3.5493,-3.5493,-3.5493,-3.5493,-3.5493,-1.3051,-1.3615,-1.42,0.0,0.0,0.0,0.0,0.0,0.0,0.0,0.0,0.0,0.0,0.0,0.0,0.0,0.0,0.0,0.0,0.0,0.0,0.0,0.0,0.0,0.0,0.0,0.0,0.0,0.0,0.0,-2.5338,-2.5338,-2.5338,-2.5338,-2.5338,-2.5609,-2.6167,-2.6644,-2.7174,-2.7754,-2.7869,-2.802,-2.829,-2.829,-2.8489,-2.8863,-2.8863,-2.9276,-2.9934,-2.9934,-3.0393,-3.1182,-3.1806,-3.2284,-3.2706,-3.3495,-3.3807,-3.3807,-3.3807,-3.3807,-3.3807,-3.3807,-3.3807,-3.3807,-3.3807,-3.3807,-3.3807,-3.3807,-3.3807,-3.3807,-3.3807,-3.3807,-3.3815,-3.3876,-3.4117,-3.4401,-3.4734,-3.4999,-3.5239,-3.546,-3.5493,-3.5493,-3.5493,-3.5493,-3.5493,-3.5493,-3.5493,-3.5493,-3.5493,-3.5493,-3.5493,-3.5493,-3.5493,-3.5493,-3.5493,-3.5493,-3.5493,-3.5493,-3.5493,-3.5493,-3.5493,-3.5493,-3.5493,-3.5493,-3.5493,-3.5493,-3.5493,-3.5493,-3.5493,-3.5493,-3.5493,-3.5493,-1.3154,-1.3238,-1.3249,-1.5078,0.0,0.0,0.0,0.0,0.0,0.0,0.0,0.0,0.0,0.0,0.0,0.0,0.0,0.0,0.0,0.0,0.0,0.0,0.0,0.0,0.0,0.0,0.0,0.0,0.0,0.0,-2.4591,-2.4591,-2.4591,-2.4591,-2.4591,-2.4608,-2.4675,-2.537,-2.6256,-2.7348,-2.7725,-2.7926,-2.7954,-2.7954,-2.8129,-2.8446,-2.8446,-2.8694,-2.9085,-2.9085,-2.9567,-3.0283,-3.0356,-3.1292,-3.2706,-3.3495,-3.3807,-3.3807,-3.3807,-3.3807,-3.3807,-3.3807,-3.3807,-3.3807,-3.3807,-3.3807,-3.3807,-3.3807,-3.3807,-3.3807,-3.3807,-3.3807,-3.385,-3.4099,-3.4423,-3.4734,-3.4999,-3.5289,-3.5479,-3.5493,-3.5493,-3.5493,-3.5493,-3.5493,-3.5493,-3.5493,-3.5493,-3.5493,-3.5493,-3.5493,-3.5493,-3.5493,-3.5493,-3.5493,-3.5493,-3.5493,-3.5493,-3.5493,-3.5493,-3.5493,-3.5493,-3.5493,-3.5493,-3.5493,-3.5493,-3.5493,-3.5493,-3.5493,-3.5493,-3.5493,-3.5493,-3.5493,-1.2497,-1.2701,-1.3083,0.0,0.0,0.0,0.0,0.0,0.0,0.0,0.0,0.0,0.0,0.0,0.0,0.0,0.0,0.0,0.0,0.0,0.0,0.0,0.0,0.0,0.0,0.0,0.0,0.0,0.0,0.0,-2.3816,-2.3816,-2.3816,-2.3816,-2.3816,-2.4036,-2.4506,-2.4763,-2.5128,-2.5555,-2.6636,-2.7043,-2.6848,-2.732,-2.7833,-2.8394,-2.8394,-2.8633,-2.8994,-2.8994,-2.9177,-2.9512,-3.0008,-3.1182,-3.2651,-3.2944,-3.3366,-3.3807,-3.3807,-3.3807,-3.3807,-3.3807,-3.3807,-3.3807,-3.3807,-3.3807,-3.3807,-3.3807,-3.3807,-3.3807,-3.3807,-3.3807,-3.3868,-3.4147,-3.4464,-3.4774,-3.5034,-3.5304,-3.5493,-3.5493,-3.5493,-3.5493,-3.5493,-3.5493,-3.5493,-3.5493,-3.5493,-3.5493,-3.5493,-3.5493,-3.5493,-3.5493,-3.5493,-3.5493,-3.5493,-3.5493,-3.5493,-3.5493,-3.5493,-3.5493,-3.5493,-3.5493,-3.5493,-3.5493,-3.5493,-3.5493,-3.5493,-3.5493,-3.5493,-3.5493,-3.5493,-3.5493,-1.1974,-1.2196,-1.2722,0.0,0.0,0.0,0.0,0.0,0.0,0.0,0.0,0.0,0.0,0.0,0.0,0.0,0.0,0.0,0.0,0.0,0.0,0.0,0.0,0.0,0.0,0.0,0.0,0.0,0.0,0.0,0.0,-2.3054,-2.3054,-2.3054,-2.3054,-2.3291,-2.3799,-2.4036,-2.4036,-2.3816,-2.5287,-2.6007,-2.6031,-2.653,-2.7225,-2.8057,-2.821,-2.8464,-2.8815,-2.8952,-2.8994,-2.9067,-2.9898,-3.087,-3.1916,-3.2412,-3.2963,-3.3458,-3.3715,-3.3807,-3.3807,-3.3807,-3.3807,-3.3807,-3.3807,-3.3807,-3.3807,-3.3807,-3.3807,-3.3807,-3.3807,-3.3807,-3.3876,-3.4265,-3.4529,-3.4812,-3.5138,-3.5369,-3.5493,-3.5493,-3.5493,-3.5493,-3.5493,-3.5493,-3.5493,-3.5493,-3.5493,-3.5493,-3.5493,-3.5493,-3.5493,-3.5493,-3.5493,-3.5493,-3.5493,-3.5493,-3.5493,-3.5493,-3.5493,-3.5493,-3.5493,-3.5493,-3.5493,-3.5493,-3.5493,-3.5493,-3.5493,-3.5493,-3.5493,-3.5493,-3.5493,-3.5493,-1.1691,-1.1742,0.0,0.0,0.0,0.0,0.0,0.0,0.0,0.0,0.0,0.0,0.0,0.0,0.0,0.0,0.0,0.0,0.0,0.0,0.0,0.0,0.0,0.0,0.0,0.0,0.0,0.0,0.0,0.0,0.0,-2.231,-2.231,-2.231,-2.231,-2.231,-2.231,-2.3021,-2.3021,-2.2327,-2.3765,-2.4864,-2.5592,-2.5609,-2.6207,-2.7317,-2.7707,-2.8102,-2.842,-2.8839,-2.8994,-2.9067,-2.9879,-3.0191,-3.0393,-3.199,-3.2596,-3.2724,-3.3513,-3.3788,-3.3807,-3.3807,-3.3807,-3.3807,-3.3807,-3.3807,-3.3807,-3.3807,-3.3807,-3.3807,-3.3788,-3.3788,-3.3954,-3.4569,-3.4694,-3.4851,-3.5383,-3.5493,-3.5493,-3.5493,-3.5493,-3.5493,-3.5493,-3.5493,-3.5493,-3.5493,-3.5493,-3.5493,-3.5493,-3.5493,-3.5493,-3.5493,-3.5493,-3.5493,-3.5493,-3.5493,-3.5493,-3.5493,-3.5493,-3.5493,-3.5493,-3.5493,-3.5493,-3.5493,-3.5493,-3.5493,-3.5493,-3.5493,-3.5493,-3.5493,-3.5493,-3.5493,-1.1388,0.0,0.0,0.0,0.0,0.0,0.0,0.0,0.0,0.0,0.0,0.0,0.0,0.0,0.0,0.0,0.0,0.0,0.0,0.0,0.0,0.0,0.0,0.0,0.0,0.0,0.0,0.0,0.0,0.0,0.0,-2.231,-2.231,-2.231,-2.231,-2.231,-2.231,-2.253,-2.253,-2.231,-2.275,-2.3342,-2.4086,-2.5135,-2.5934,-2.6571,-2.7478,-2.8102,-2.842,-2.8839,-2.8994,-2.9012,-2.925,-2.9714,-3.0265,-3.0742,-3.1641,-3.2632,-3.2871,-3.333,-3.3807,-3.3807,-3.3807,-3.3807,-3.3807,-3.3807,-3.3807,-3.3807,-3.3807,-3.3842,-3.4018,-3.4074,-3.4189,-3.4612,-3.4832,-3.5088,-3.5432,-3.5493,-3.5493,-3.5493,-3.5493,-3.5493,-3.5493,-3.5493,-3.5493,-3.5493,-3.5493,-3.5493,-3.5493,-3.5493,-3.5493,-3.5493,-3.5493,-3.5493,-3.5493,-3.5493,-3.5493,-3.5493,-3.5493,-3.5493,-3.5493,-3.5493,-3.5493,-3.5493,-3.5493,-3.5493,-3.5493,-3.5493,-3.5493,-3.5493,-3.5493,-3.5493,-1.1594,0.0,0.0,0.0,0.0,0.0,0.0,0.0,0.0,0.0,0.0,0.0,0.0,0.0,0.0,0.0,0.0,0.0,0.0,0.0,0.0,0.0,0.0,0.0,0.0,0.0,0.0,0.0,0.0,0.0,0.0,-2.231,-2.231,-2.231,-2.231,-2.231,-2.231,-2.231,-2.231,-2.231,-2.231,-2.2547,-2.3004,-2.4188,-2.5036,-2.5601,-2.6905,-2.7638,-2.8019,-2.8693,-2.8994,-2.8994,-2.8994,-2.931,-2.9769,-3.0081,-3.0815,-3.1696,-3.2008,-3.2651,-3.333,-3.333,-3.3532,-3.3807,-3.3807,-3.3807,-3.3807,-3.3807,-3.3876,-3.4012,-3.4171,-3.4383,-3.4615,-3.4813,-3.4981,-3.5155,-3.5446,-3.5493,-3.5493,-3.5493,-3.5493,-3.5493,-3.5493,-3.5493,-3.5493,-3.5493,-3.5493,-3.5493,-3.5493,-3.5493,-3.5493,-3.5493,-3.5493,-3.5493,-3.5493,-3.5493,-3.5493,-3.5493,-3.5493,-3.5493,-3.5493,-3.5493,-3.5493,-3.5493,-3.5493,-3.5493,-3.5493,-3.5493,-3.5493,-3.5493,-3.5493,-3.5493,0.0,0.0,0.0,0.0,0.0,0.0,0.0,0.0,0.0,0.0,0.0,0.0,0.0,0.0,0.0,0.0,0.0,0.0,0.0,0.0,0.0,0.0,0.0,0.0,0.0,0.0,0.0,0.0,0.0,0.0,0.0,-2.231,-2.231,-2.231,-2.231,-2.231,-2.231,-2.231,-2.231,-2.231,-2.231,-2.231,-2.2344,-2.3054,-2.3812,-2.4632,-2.6048,-2.6941,-2.7381,-2.8443,-2.892,-2.8994,-2.8994,-2.8994,-2.9085,-2.9824,-3.0136,-3.0301,-3.1035,-3.1825,-3.2504,-3.2504,-3.2999,-3.3587,-3.3587,-3.3587,-3.3587,-3.3587,-3.382,-3.4059,-3.4064,-3.4579,-3.507,-3.5088,-3.5122,-3.5207,-3.5446,-3.5493,-3.5493,-3.5493,-3.5493,-3.5493,-3.5493,-3.5493,-3.5493,-3.5493,-3.5493,-3.5493,-3.5493,-3.5493,-3.5493,-3.5493,-3.5493,-3.5493,-3.5493,-3.5493,-3.5493,-3.5493,-3.5493,-3.5493,-3.5493,-3.5493,-3.5493,-3.5493,-3.5493,-3.5493,-3.5493,-3.5493,-3.5493,-3.5493,-3.5493,-3.5493,0.0,0.0,0.0,0.0,0.0,0.0,0.0,0.0,0.0,0.0,0.0,0.0,0.0,0.0,0.0,0.0,0.0,0.0,0.0,0.0,0.0,0.0,0.0,0.0,0.0,0.0,0.0,0.0,0.0,0.0,-2.231,-2.231,-2.231,-2.231,-2.231,-2.231,-2.231,-2.231,-2.231,-2.231,-2.231,-2.231,-2.2344,-2.3054,-2.3972,-2.4994,-2.5543,-2.6361,-2.7345,-2.7839,-2.8429,-2.8994,-2.8994,-2.8994,-2.9012,-2.92,-2.9659,-3.0228,-3.0393,-3.098,-3.1659,-3.1659,-3.177,-3.1916,-3.1916,-3.1916,-3.1916,-3.1916,-3.2408,-3.2994,-3.3199,-3.402,-3.4851,-3.5053,-3.5273,-3.5432,-3.5493,-3.5493,-3.5493,-3.5493,-3.5493,-3.5493,-3.5493,-3.5493,-3.5493,-3.5493,-3.5493,-3.5493,-3.5493,-3.5493,-3.5493,-3.5493,-3.5493,-3.5493,-3.5493,-3.5493,-3.5493,-3.5493,-3.5493,-3.5493,-3.5493,-3.5493,-3.5493,-3.5493,-3.5493,-3.5493,-3.5493,-3.5493,-3.5493,-3.5493,-3.5493,-3.5493,0.0,0.0,0.0,0.0,0.0,0.0,0.0,0.0,0.0,0.0,0.0,0.0,0.0,0.0,0.0,0.0,0.0,0.0,0.0,0.0,0.0,0.0,0.0,0.0,0.0,0.0,0.0,0.0,0.0,-2.231,-2.231,-2.231,-2.231,-2.231,-2.231,-2.231,-2.231,-2.231,-2.231,-2.231,-2.231,-2.231,-2.2327,-2.2699,-2.3187,-2.3801,-2.447,-2.5207,-2.6002,-2.7108,-2.7894,-2.8466,-2.8847,-2.8994,-2.8994,-2.8994,-2.925,-2.9641,-2.9641,-3.0155,-3.0834,-3.0834,-3.1091,-3.1384,-3.1384,-3.1384,-3.1384,-3.1384,-3.2078,-3.2815,-3.2962,-3.3932,-3.4926,-3.507,-3.5304,-3.5493,-3.5493,-3.5493,-3.5493,-3.5493,-3.5493,-3.5493,-3.5493,-3.5493,-3.5493,-3.5493,-3.5493,-3.5493,-3.5493,-3.5493,-3.5493,-3.5493,-3.5493,-3.5493,-3.5493,-3.5493,-3.5493,-3.5493,-3.5493,-3.5493,-3.5493,-3.5493,-3.5493,-3.5493,-3.5493,-3.5493,-3.5493,-3.5493,-3.5493,-3.5493,-3.5493,-3.5493,0.0,0.0,0.0,0.0,0.0,0.0,0.0,0.0,0.0,0.0,0.0,0.0,0.0,0.0,0.0,0.0,0.0,0.0,0.0,0.0,0.0,0.0,0.0,0.0,0.0,0.0,0.0,0.0,0.0,-2.231,-2.231,-2.231,-2.231,-2.231,-2.231,-2.231,-2.231,-2.231,-2.231,-2.231,-2.231,-2.231,-2.231,-2.231,-2.231,-2.2372,-2.335,-2.4016,-2.4513,-2.6201,-2.7177,-2.7658,-2.8484,-2.8796,-2.8815,-2.8938,-2.8994,-2.8994,-2.8994,-2.9457,-2.9989,-2.9989,-3.0448,-3.098,-3.098,-3.098,-3.098,-3.098,-3.1708,-3.253,-3.2557,-3.3599,-3.4653,-3.4821,-3.5074,-3.5334,-3.5468,-3.5493,-3.5493,-3.5493,-3.5493,-3.5493,-3.5493,-3.5493,-3.5493,-3.5493,-3.5493,-3.5493,-3.5493,-3.5493,-3.5493,-3.5493,-3.5493,-3.5493,-3.5493,-3.5493,-3.5493,-3.5493,-3.5493,-3.5493,-3.5493,-3.5493,-3.5493,-3.5493,-3.5493,-3.5493,-3.5493,-3.5493,-3.5493,-3.5493,-3.5493,-3.5493,0.0,0.0,0.0,0.0,0.0,0.0,0.0,0.0,0.0,0.0,0.0,0.0,0.0,0.0,0.0,0.0,0.0,0.0,0.0,0.0,0.0,0.0,0.0,0.0,0.0,0.0,0.0,0.0,-2.231,-2.231,-2.231,-2.231,-2.231,-2.231,-2.231,-2.231,-2.231,-2.231,-2.231,-2.231,-2.231,-2.231,-2.231,-2.231,-2.231,-2.231,-2.272,-2.3465,-2.4442,-2.4985,-2.5823,-2.6851,-2.764,-2.7952,-2.8044,-2.8741,-2.8994,-2.8994,-2.8994,-2.9067,-2.914,-2.914,-2.9214,-2.9305,-2.9305,-2.9305,-2.9305,-2.9305,-2.9921,-3.0623,-3.0854,-3.1747,-3.2825,-3.3739,-3.4174,-3.4584,-3.5353,-3.5493,-3.5493,-3.5493,-3.5493,-3.5493,-3.5493,-3.5493,-3.5493,-3.5493,-3.5493,-3.5493,-3.5493,-3.5493,-3.5493,-3.5493,-3.5493,-3.5493,-3.5493,-3.5493,-3.5493,-3.5493,-3.5493,-3.5493,-3.5493,-3.5493,-3.5493,-3.5493,-3.5493,-3.5493,-3.5493,-3.5493,-3.5493,-3.5493,-3.5493,-3.5493,0.0,0.0,0.0,0.0,0.0,0.0,0.0,0.0,0.0,0.0,0.0,0.0,0.0,0.0,0.0,0.0,0.0,0.0,0.0,0.0,0.0,0.0,0.0,0.0,0.0,0.0,0.0,0.0,-2.231,-2.231,-2.231,-2.231,-2.231,-2.231,-2.231,-2.231,-2.231,-2.231,-2.231,-2.231,-2.231,-2.231,-2.231,-2.231,-2.231,-2.231,-2.2426,-2.2859,-2.3516,-2.4295,-2.5013,-2.5758,-2.6731,-2.7402,-2.7787,-2.7695,-2.8223,-2.892,-2.8484,-2.8631,-2.8994,-2.8994,-2.8994,-2.8994,-2.8994,-2.8994,-2.8994,-2.8994,-2.9683,-3.045,-3.0581,-3.1845,-3.3215,-3.3696,-3.4385,-3.5026,-3.543,-3.5493,-3.5493,-3.5493,-3.5493,-3.5493,-3.5493,-3.5493,-3.5493,-3.5493,-3.5493,-3.5493,-3.5493,-3.5493,-3.5493,-3.5493,-3.5493,-3.5493,-3.5493,-3.5493,-3.5493,-3.5493,-3.5493,-3.5493,-3.5493,-3.5493,-3.5493,-3.5493,-3.5493,-3.5493,-3.5493,-3.5493,-3.5493,-3.5493,-3.5493,-3.5493,0.0,0.0,0.0,0.0,0.0,0.0,0.0,0.0,0.0,0.0,0.0,0.0,0.0,0.0,0.0,0.0,0.0,0.0,0.0,0.0,0.0,0.0,0.0,0.0,0.0,0.0,0.0,0.0,-2.231,-2.231,-2.231,-2.231,-2.231,-2.231,-2.231,-2.231,-2.231,-2.231,-2.231,-2.231,-2.231,-2.231,-2.231,-2.231,-2.231,-2.231,-2.231,-2.249,-2.2883,-2.3753,-2.4331,-2.4835,-2.5868,-2.6649,-2.7126,-2.6759,-2.7493,-2.8594,-2.7769,-2.8172,-2.8957,-2.8778,-2.881,-2.8994,-2.8994,-2.8994,-2.8994,-2.8994,-2.9625,-3.0307,-3.035,-3.1599,-3.2966,-3.3452,-3.4218,-3.4968,-3.5397,-3.5493,-3.5493,-3.5493,-3.5493,-3.5493,-3.5493,-3.5493,-3.5493,-3.5493,-3.5493,-3.5493,-3.5493,-3.5493,-3.5493,-3.5493,-3.5493,-3.5493,-3.5493,-3.5493,-3.5493,-3.5493,-3.5493,-3.5493,-3.5493,-3.5493,-3.5493,-3.5493,-3.5493,-3.5493,-3.5493,-3.5493,-3.5493,-3.5493,-3.5493,-3.5526,0.0,0.0,0.0,0.0,0.0,0.0,0.0,0.0,0.0,0.0,0.0,0.0,0.0,0.0,0.0,0.0,0.0,0.0,0.0,0.0,0.0,0.0,0.0,0.0,0.0,0.0,0.0,0.0,-2.231,-2.231,-2.231,-2.231,-2.231,-2.231,-2.231,-2.231,-2.231,-2.231,-2.231,-2.231,-2.231,-2.231,-2.231,-2.231,-2.231,-2.231,-2.231,-2.2634,-2.3165,-2.3242,-2.366,-2.4317,-2.5144,-2.5495,-2.5623,-2.6337,-2.7145,-2.775,-2.6943,-2.7695,-2.8865,-2.8117,-2.8374,-2.8994,-2.8994,-2.8994,-2.8994,-2.8994,-2.9218,-2.9509,-2.97,-2.9978,-3.0667,-3.2513,-3.2974,-3.3487,-3.5141,-3.5493,-3.5493,-3.5493,-3.5493,-3.5493,-3.5493,-3.5493,-3.5493,-3.5493,-3.5493,-3.5493,-3.5493,-3.5493,-3.5493,-3.5493,-3.5493,-3.5493,-3.5493,-3.5493,-3.5493,-3.5493,-3.5493,-3.5493,-3.5493,-3.5493,-3.5493,-3.5493,-3.5493,-3.5493,-3.5493,-3.5493,-3.5493,-3.5493,-3.5493,-3.5545,0.0,0.0,0.0,0.0,0.0,0.0,0.0,0.0,0.0,0.0,0.0,0.0,0.0,0.0,0.0,0.0,0.0,0.0,0.0,0.0,0.0,0.0,0.0,0.0,0.0,0.0,0.0,0.0,0.0,-2.1974,-2.2282,-2.231,-2.231,-2.231,-2.231,-2.231,-2.231,-2.231,-2.231,-2.231,-2.231,-2.231,-2.231,-2.231,-2.231,-2.231,-2.231,-2.2415,-2.2634,-2.3038,-2.3346,-2.3624,-2.4346,-2.4962,-2.5384,-2.5144,-2.5897,-2.6906,-2.6098,-2.6869,-2.8172,-2.7879,-2.8338,-2.8994,-2.8994,-2.8994,-2.8994,-2.8994,-2.9291,-2.9607,-2.9678,-3.0392,-3.1546,-3.3301,-3.416,-3.4737,-3.5372,-3.5493,-3.5493,-3.5493,-3.5493,-3.5493,-3.5493,-3.5493,-3.5493,-3.5493,-3.5493,-3.5493,-3.5493,-3.5493,-3.5493,-3.5493,-3.5493,-3.5493,-3.5493,-3.5493,-3.5493,-3.5493,-3.5493,-3.5493,-3.5493,-3.5493,-3.5493,-3.5493,-3.5493,-3.5493,-3.5493,-3.5493,-3.5493,-3.5493,-3.5493,-3.5545,0.0,0.0,0.0,0.0,0.0,0.0,0.0,0.0,0.0,0.0,0.0,0.0,0.0,0.0,0.0,0.0,0.0,0.0,0.0,0.0,0.0,0.0,0.0,0.0,0.0,0.0,0.0,0.0,0.0,0.0,-2.1522,-2.1549,-2.1549,-2.1549,-2.1786,-2.1938,-2.1938,-2.2192,-2.231,-2.231,-2.231,-2.231,-2.231,-2.231,-2.231,-2.231,-2.231,-2.2415,-2.2634,-2.3038,-2.3346,-2.3566,-2.4016,-2.452,-2.4924,-2.4392,-2.5052,-2.608,-2.5273,-2.6227,-2.775,-2.7475,-2.8117,-2.8994,-2.8994,-2.8994,-2.8994,-2.8994,-2.9355,-2.9696,-2.9696,-3.0891,-3.2372,-3.3506,-3.4661,-3.5493,-3.5493,-3.5493,-3.5493,-3.5493,-3.5493,-3.5493,-3.5493,-3.5493,-3.5493,-3.5493,-3.5493,-3.5493,-3.5493,-3.5493,-3.5493,-3.5493,-3.5493,-3.5493,-3.5493,-3.5493,-3.5493,-3.5493,-3.5493,-3.5493,-3.5493,-3.5493,-3.5493,-3.5493,-3.5493,-3.5493,-3.5493,-3.5493,-3.5493,-3.5493,-3.5493,-3.5541,0.0,0.0,0.0,0.0,0.0,0.0,0.0,0.0,0.0,0.0,0.0,0.0,0.0,0.0,0.0,0.0,0.0,0.0,0.0,0.0,0.0,0.0,0.0,0.0,0.0,0.0,0.0,0.0,-1.9934,-1.9976,-1.9959,-1.9976,-2.0002,-2.0002,-2.0754,-2.117,-2.117,-2.1904,-2.2276,-2.2276,-2.2293,-2.231,-2.231,-2.231,-2.231,-2.231,-2.231,-2.2634,-2.3189,-2.3189,-2.3588,-2.419,-2.4208,-2.419,-2.419,-2.419,-2.4685,-2.5256,-2.4465,-2.575,-2.7603,-2.6814,-2.7658,-2.8957,-2.8957,-2.8975,-2.9017,-2.9017,-2.9336,-2.9713,-2.9713,-3.1287,-3.2872,-3.2891,-3.4218,-3.5468,-3.5474,-3.5493,-3.5493,-3.5493,-3.5493,-3.5493,-3.5493,-3.5493,-3.5493,-3.5493,-3.5493,-3.5493,-3.5493,-3.5493,-3.5493,-3.5493,-3.5493,-3.5493,-3.5493,-3.5493,-3.5493,-3.5493,-3.5493,-3.5493,-3.5493,-3.5493,-3.5493,-3.5493,-3.5493,-3.5493,-3.5493,-3.5493,-3.5493,-3.5493,-3.5493,-3.5566,-0.8034,0.0,0.0,0.0,0.0,0.0,0.0,0.0,0.0,0.0,0.0,0.0,0.0,0.0,0.0,0.0,0.0,0.0,0.0,0.0,0.0,0.0,0.0,0.0,0.0,0.0,0.0,0.0,-1.8853,-1.8981,-1.9274,-1.9508,-1.9762,-2.0002,-2.0204,-2.0322,-2.0322,-2.1109,-2.1498,-2.1498,-2.2057,-2.231,-2.231,-2.231,-2.231,-2.231,-2.231,-2.2634,-2.3189,-2.3189,-2.3437,-2.3858,-2.4094,-2.419,-2.419,-2.419,-2.4337,-2.4502,-2.4281,-2.5016,-2.6046,-2.5786,-2.6814,-2.8136,-2.8136,-2.8539,-2.904,-2.9225,-2.9494,-2.9782,-3.0114,-3.1104,-3.2179,-3.2756,-3.3757,-3.4737,-3.5372,-3.5493,-3.5493,-3.5493,-3.5493,-3.5493,-3.5493,-3.5493,-3.5493,-3.5493,-3.5493,-3.5493,-3.5493,-3.5493,-3.5493,-3.5493,-3.5493,-3.5493,-3.5493,-3.5493,-3.5493,-3.5493,-3.5493,-3.5493,-3.5493,-3.5493,-3.5493,-3.5493,-3.5493,-3.5493,-3.5493,-3.5493,-3.5493,-3.5493,-3.5565,-3.5618,0.0,0.0,0.0,0.0,0.0,0.0,0.0,-0.9683,0.0,0.0,0.0,0.0,0.0,0.0,0.0,0.0,0.0,0.0,0.0,0.0,0.0,0.0,0.0,0.0,0.0,-1.7106,-1.7287,-1.771,-1.7738,-1.7892,-1.827,-1.8496,-1.8743,-1.9072,-1.9376,-1.9529,-1.9529,-2.0314,-2.0703,-2.0703,-2.1143,-2.1532,-2.1837,-2.1837,-2.2006,-2.231,-2.231,-2.2634,-2.3189,-2.3189,-2.3477,-2.3917,-2.4113,-2.419,-2.419,-2.419,-2.419,-2.419,-2.419,-2.4722,-2.5403,-2.5403,-2.6505,-2.7787,-2.7787,-2.8356,-2.9062,-2.933,-2.9607,-2.9908,-3.0299,-3.1044,-3.1814,-3.2295,-3.3045,-3.3891,-3.4776,-3.4968,-3.5064,-3.543,-3.5493,-3.5493,-3.5493,-3.5493,-3.5493,-3.5493,-3.5493,-3.5493,-3.5493,-3.5493,-3.5493,-3.5493,-3.5493,-3.5493,-3.5493,-3.5493,-3.5493,-3.5493,-3.5493,-3.5493,-3.5493,-3.5493,-3.5493,-3.5493,-3.5493,-3.5493,-3.5493,-3.5493,-3.5493,-3.5493,-3.5584,-3.5641,-0.901,-0.901,0.0,0.0,0.0,0.0,-0.9561,-0.9278,0.0,0.0,0.0,0.0,0.0,0.0,0.0,0.0,0.0,0.0,0.0,0.0,0.0,0.0,0.0,0.0,-1.6095,-1.6138,-1.6289,-1.6659,-1.6686,-1.6825,-1.7158,-1.7224,-1.7392,-1.7726,-1.8414,-1.8775,-1.8775,-1.9519,-1.9866,-1.9866,-1.9951,-2.0433,-2.1204,-2.1204,-2.16,-2.231,-2.231,-2.2634,-2.3189,-2.3189,-2.3606,-2.419,-2.419,-2.419,-2.419,-2.419,-2.419,-2.419,-2.419,-2.4667,-2.5274,-2.5274,-2.6355,-2.7658,-2.7658,-2.8305,-2.9112,-2.9394,-2.9748,-3.0089,-3.0343,-3.0968,-3.1583,-3.1679,-3.2256,-3.3006,-3.3872,-3.4064,-3.4276,-3.5064,-3.5372,-3.5493,-3.5493,-3.5493,-3.5493,-3.5493,-3.5493,-3.5493,-3.5493,-3.5493,-3.5493,-3.5493,-3.5493,-3.5493,-3.5493,-3.5493,-3.5493,-3.5493,-3.5493,-3.5493,-3.5493,-3.5493,-3.5493,-3.5493,-3.5493,-3.5449,-3.5372,-3.5468,-3.5526,-3.5526,-3.5584,-3.5661,-0.9713,-0.9713,-0.9608,-0.9188,0.0,0.0,-0.8514,-0.8604,0.0,0.0,0.0,0.0,0.0,0.0,0.0,0.0,0.0,0.0,0.0,0.0,0.0,0.0,0.0,0.0,-1.5026,-1.5086,-1.5352,-1.5938,-1.5983,-1.6136,-1.6474,-1.6763,-1.7052,-1.7392,-1.7792,-1.8014,-1.8014,-1.8758,-1.9113,-1.9113,-1.9714,-2.0433,-2.1204,-2.1204,-2.16,-2.231,-2.231,-2.2634,-2.3189,-2.3189,-2.3606,-2.419,-2.419,-2.419,-2.419,-2.419,-2.419,-2.419,-2.419,-2.43,-2.4428,-2.4428,-2.5511,-2.6833,-2.6833,-2.8015,-2.9414,-2.978,-3.0095,-3.0323,-3.0398,-3.0533,-3.0833,-3.1525,-3.1814,-3.216,-3.2987,-3.3141,-3.3199,-3.3372,-3.4545,-3.5493,-3.5493,-3.5493,-3.5493,-3.5493,-3.5493,-3.5493,-3.5493,-3.5493,-3.5493,-3.5493,-3.5493,-3.5493,-3.5493,-3.5493,-3.5493,-3.5493,-3.5493,-3.5493,-3.5493,-3.5493,-3.5493,-3.5493,-3.5493,-3.5161,-3.4449,-3.5218,-3.5584,-3.5584,-3.5661,-3.5757,-1.0354,-1.0354,-1.0279,-0.992,0.0,0.0,0.0,0.0,0.0,0.0,0.0,0.0,0.0,0.0,0.0,0.0,0.0,0.0,0.0,0.0,0.0,0.0,0.0,0.0,-1.4274,-1.4303,-1.4573,-1.5259,-1.5304,-1.5579,-1.6243,-1.6448,-1.6773,-1.728,-1.7462,-1.7635,-1.7811,-1.8166,-1.8352,-1.8352,-1.8741,-1.9316,-2.0061,-2.0433,-2.1025,-2.1796,-2.2283,-2.2755,-2.3212,-2.3392,-2.3753,-2.419,-2.419,-2.419,-2.419,-2.419,-2.419,-2.419,-2.419,-2.419,-2.419,-2.419,-2.5016,-2.608,-2.6484,-2.7972,-2.9626,-2.9924,-3.0196,-3.0398,-3.0398,-3.0398,-3.0513,-3.0948,-3.1064,-3.1275,-3.2122,-3.2295,-3.2429,-3.2814,-3.3603,-3.4334,-3.4776,-3.4487,-3.4353,-3.4795,-3.4487,-3.4199,-3.4199,-3.4199,-3.4199,-3.4199,-3.4199,-3.4199,-3.4199,-3.4199,-3.4199,-3.4199,-3.4199,-3.4199,-3.4199,-3.4199,-3.4199,-3.4199,-3.4243,-3.4051,-3.3609,-3.4172,-3.4614,-3.4949,-3.5089,-3.5416,0.0,0.0,0.0,0.0,0.0,-0.983,0.0,0.0,0.0,0.0,0.0,0.0,0.0,0.0,0.0,0.0,0.0,0.0,0.0,0.0,0.0,0.0,0.0,0.0,-1.3585,-1.3615,-1.3885,-1.4558,-1.4483,-1.4871,-1.596,-1.6126,-1.6501,-1.7183,-1.732,-1.7526,-1.7811,-1.7811,-1.7811,-1.7811,-1.7811,-1.82,-1.891,-1.9536,-2.0297,-2.1237,-2.2117,-2.2758,-2.323,-2.3566,-2.3896,-2.419,-2.419,-2.419,-2.419,-2.419,-2.419,-2.419,-2.419,-2.419,-2.419,-2.419,-2.474,-2.5586,-2.6583,-2.809,-2.9538,-2.9897,-3.0196,-3.0398,-3.0398,-3.0398,-3.0398,-3.0398,-3.0398,-3.059,-3.1295,-3.1448,-3.1641,-3.2295,-3.2429,-3.2737,-3.3776,-3.3372,-3.3141,-3.3833,-3.3353,-3.2891,-3.2891,-3.2891,-3.2891,-3.2891,-3.2891,-3.2891,-3.2891,-3.2891,-3.2891,-3.2891,-3.2891,-3.2891,-3.2891,-3.2891,-3.291,-3.2929,-3.2961,-3.2929,-3.2798,-3.2948,-3.3415,-3.4122,-3.4291,-3.485,0.0,0.0,0.0,0.0,-1.0354,0.0,0.0,0.0,0.0,0.0,0.0,0.0,0.0,0.0,0.0,0.0,0.0,0.0,0.0,0.0,0.0,0.0,0.0,0.0,0.0,-1.2921,-1.3181,-1.387,-1.3361,-1.3595,-1.4908,-1.555,-1.6168,-1.685,-1.7432,-1.7749,-1.7811,-1.7811,-1.7811,-1.7811,-1.7811,-1.82,-1.8894,-1.8995,-1.9807,-2.1204,-2.1583,-2.2286,-2.323,-2.3566,-2.3896,-2.419,-2.419,-2.419,-2.419,-2.419,-2.419,-2.419,-2.419,-2.419,-2.419,-2.419,-2.474,-2.5719,-2.7416,-2.8258,-2.8817,-2.9745,-3.0196,-3.0398,-3.0398,-3.0398,-3.0398,-3.0398,-3.0398,-3.0417,-3.0533,-3.0552,-3.0571,-3.0679,-3.0667,-3.1198,-3.2776,-3.2968,-3.2929,-3.3026,-3.2968,-3.2891,-3.2891,-3.2891,-3.2891,-3.2891,-3.2891,-3.2891,-3.2891,-3.2891,-3.2891,-3.2891,-3.2891,-3.2891,-3.2891,-3.2891,-3.2917,-3.3,-3.3,-3.2679,-3.2023,-3.2112,-3.2588,-3.3415,-3.3507,-3.3996,0.0,0.0,0.0,0.0,0.0,0.0,-0.8754,0.0,-0.8364,0.0,0.0,0.0,0.0,0.0,0.0,0.0,0.0,0.0,0.0,0.0,0.0,0.0,0.0,0.0,0.0,0.0,0.0,0.0,-1.2583,-1.2807,-1.4154,-1.449,-1.5133,-1.6184,-1.649,-1.7024,-1.7772,-1.7811,-1.7811,-1.7811,-1.7811,-1.7963,-1.8285,-1.8691,-1.959,-2.0828,-2.1563,-2.2498,-2.3522,-2.3837,-2.4074,-2.419,-2.419,-2.419,-2.419,-2.419,-2.419,-2.419,-2.419,-2.419,-2.419,-2.419,-2.474,-2.5685,-2.7174,-2.8039,-2.8736,-2.9907,-3.0311,-3.0398,-3.0398,-3.0398,-3.0398,-3.0398,-3.0398,-3.0398,-3.0398,-3.0398,-3.0398,-3.0398,-3.0398,-3.0609,-3.1333,-3.1448,-3.1621,-3.2122,-3.1775,-3.1448,-3.1448,-3.1448,-3.1448,-3.1448,-3.1448,-3.1448,-3.1448,-3.1448,-3.1448,-3.1448,-3.1448,-3.1448,-3.1448,-3.1487,-3.1513,-3.1552,-3.1628,-3.1515,-3.1207,-3.1309,-3.1539,-3.1917,-3.2452,-3.3144,-1.1805,0.0,0.0,0.0,0.0,0.0,0.0,0.0,0.0,0.0,0.0,0.0,0.0,0.0,0.0,0.0,0.0,0.0,0.0,0.0,0.0,0.0,0.0,0.0,0.0,0.0,0.0,0.0,0.0,-1.1983,-1.3534,-1.3706,-1.431,-1.547,-1.5648,-1.6303,-1.749,-1.7507,-1.7608,-1.7811,-1.7811,-1.7811,-1.7828,-1.8444,-1.9236,-2.0246,-2.1401,-2.2461,-2.3407,-2.3983,-2.419,-2.419,-2.419,-2.419,-2.419,-2.419,-2.419,-2.419,-2.419,-2.419,-2.419,-2.419,-2.4633,-2.5412,-2.6775,-2.7689,-2.8529,-2.9908,-3.0336,-3.0398,-3.0398,-3.0398,-3.0398,-3.0398,-3.0398,-3.0398,-3.0398,-3.0398,-3.0398,-3.0398,-3.0398,-3.0398,-3.0398,-3.0398,-3.0609,-3.1256,-3.0814,-3.0398,-3.0398,-3.0398,-3.0398,-3.0398,-3.0398,-3.0398,-3.0398,-3.0398,-3.0398,-3.0398,-3.0398,-3.0398,-3.0417,-3.0467,-3.0525,-3.0544,-3.0641,-3.0719,-3.0768,-3.0849,-3.0907,-3.0912,-3.1558,-3.2285,0.0,0.0,0.0,-1.0234,0.0,0.0,0.0,0.0,-0.8875,0.0,0.0,0.0,0.0,0.0,0.0,0.0,0.0,0.0,0.0,0.0,0.0,0.0,0.0,0.0,0.0,0.0,-0.9593,0.0,-1.0461,-1.0905,-1.3089,-1.3526,-1.4015,-1.4703,-1.5292,-1.5984,-1.6733,-1.6749,-1.7084,-1.7811,-1.7811,-1.7811,-1.7811,-1.8095,-1.8637,-1.9425,-2.0809,-2.1853,-2.2628,-2.3725,-2.419,-2.419,-2.419,-2.419,-2.419,-2.419,-2.419,-2.419,-2.419,-2.419,-2.419,-2.419,-2.4358,-2.483,-2.6431,-2.7242,-2.7967,-2.9556,-3.0196,-3.0398,-3.0398,-3.0398,-3.0398,-3.0398,-3.0398,-3.0398,-3.0398,-3.0398,-3.0398,-3.0398,-3.0398,-3.0398,-3.0398,-3.0398,-3.0398,-3.0436,-3.0417,-3.0398,-3.0398,-3.0398,-3.0398,-3.0398,-3.0398,-3.0398,-3.0398,-3.0398,-3.0398,-3.0398,-3.0398,-3.0417,-3.0487,-3.0506,-3.0564,-3.0679,-3.0698,-3.0754,-3.0898,-3.0898,-3.0898,-3.0898,-3.0937,-3.1406,0.0,0.0,-1.1595,-1.0708,0.0,0.0,0.0,0.0,0.0,0.0,0.0,0.0,0.0,0.0,0.0,0.0,0.0,0.0,0.0,0.0,0.0,0.0,0.0,0.0,0.0,0.0,0.0,0.0,-1.0709,0.0,-1.2704,-1.2904,-1.338,-1.4276,-1.449,-1.5054,-1.595,-1.6462,-1.6834,-1.7067,-1.7574,-1.7883,-1.8078,-1.8146,-1.8813,-1.993,-2.0407,-2.1442,-2.2866,-2.3253,-2.3731,-2.419,-2.419,-2.419,-2.419,-2.419,-2.419,-2.419,-2.419,-2.419,-2.4228,-2.4375,-2.4444,-2.486,-2.6779,-2.7485,-2.7956,-2.9762,-3.0323,-3.0398,-3.0398,-3.0398,-3.0398,-3.0398,-3.0398,-3.0398,-3.0398,-3.0398,-3.0398,-3.0398,-3.0398,-3.0398,-3.0398,-3.0398,-3.0398,-3.0398,-3.0398,-3.0398,-3.0398,-3.0398,-3.0398,-3.0398,-3.0398,-3.0398,-3.0398,-3.0398,-3.0398,-3.0398,-3.0398,-3.0398,-3.0417,-3.053,-3.0587,-3.0626,-3.0764,-3.0855,-3.0898,-3.0898,-3.0898,-3.0898,-3.0898,-3.1055,-1.1805,-1.1805,0.0,-1.0962,-1.0499,0.0,-0.9398,0.0,-0.9578,0.0,0.0,0.0,0.0,0.0,0.0,0.0,0.0,0.0,0.0,0.0,0.0,0.0,0.0,0.0,0.0,0.0,-0.9343,-1.0784,-1.0399,0.0,0.0,-1.2205,-1.2637,-1.3295,-1.3669,-1.4281,-1.5206,-1.5933,-1.6445,-1.6716,-1.7548,-1.8035,-1.8208,-1.8391,-1.8963,-1.9795,-2.0154,-2.1169,-2.2593,-2.2887,-2.3474,-2.419,-2.419,-2.419,-2.419,-2.419,-2.419,-2.4209,-2.4284,-2.4303,-2.4339,-2.4545,-2.4636,-2.4986,-2.6643,-2.7408,-2.8025,-2.9521,-3.016,-3.0398,-3.0398,-3.0398,-3.0398,-3.0398,-3.0398,-3.0398,-3.0398,-3.0398,-3.0398,-3.0398,-3.0398,-3.0398,-3.0398,-3.0398,-3.0398,-3.0398,-3.0398,-3.0398,-3.0398,-3.0398,-3.0398,-3.0398,-3.0398,-3.0398,-3.0398,-3.0398,-3.0398,-3.0398,-3.0417,-3.0448,-3.0467,-3.0578,-3.0665,-3.0712,-3.0834,-3.0898,-3.0898,-3.0898,-3.0898,-3.0898,-3.0898,-3.0898]}]]